     2              Observation         GPS                 RINEX VERSION / TYPE
teqc 1998Mar9 19980907 20:20:38UTC                          PGM / RUN BY / DATE
                                                            COMMENT
Original Marker Name: 0104                                  COMMENT
Campaign Name: CalTrans district 7, Ventura County 1992     COMMENT
4-Character Station Name: 0104                              COMMENT
6-Character Antenna Code: TRMSST                            COMMENT
Vertical Measurement Point: BGP                             COMMENT
Vertical Offset to Rinex Ref. Point: 0.0597                 COMMENT
Radial Measurement Point: IGP                               COMMENT
Radial Offset to Rinex Ref. Point: 0.2403                   COMMENT
Antenna Height from Field Measurement: 1.5970 m             COMMENT
Revised Rinex header created by UCSD GPS archive for        COMMENT
SCEC DC on 23-Sep-1998 (1998.266) 06:45:21 GMT              COMMENT
For assistance contact dagnew@ucsd.edu or hjohnson@ucsd.edu COMMENT
                                                            COMMENT
CASITAS 1992                                                MARKER NAME
UNKNOWN OBSERVER CALIF DEPT TRANSPORTATION DISTRICT 7       OBSERVER / AGENCY
2667 TRIMBLE 4000 SST NP 4.80; SP 1.15                      REC # / TYPE / VERS
59773 TR 4000SST L1/L2 GEO                                  ANT # / TYPE
 -2585235.1267 -4591671.0909  3582105.1935                  APPROX POSITION XYZ
        1.5191        0.0000        0.0000                  ANTENNA: DELTA H/E/N
     1     1     0                                          WAVELENGTH FACT L1/2
     3    C1    L1    L2                                    # / TYPES OF OBSERV
     0                                                      INTERVAL
  1992     6    11     4    27   30.000000                  TIME OF FIRST OBS
  1992     6    11     6    57    0.000000                  TIME OF LAST OBS
                                                            END OF HEADER
 92  6 11  4 27 30.0000000  0  4G17G 3G21G23
  20695024.6954         -0.56658
  20846909.688          -0.25517
  22840799.055          -0.17916
  20663604.148          -0.76417
 92  6 11  4 27 45.0000000  0  4G17G 3G21G23
  20696131.1174       5841.04647        -0.51256
  20851253.9064      22819.65647        -0.14456
  22833523.8444     -38223.26946
  20662112.0864      -7844.63447
 92  6 11  4 28  0.0000000  0  4G17G 3G21G23
  20697254.9454      11734.78347      4592.01646
  20855621.6954      45773.30547     17885.80946
  22826263.6334     -76380.59546        -0.03355
  20660639.5704     -15586.64047        -0.66656
 92  6 11  4 28 15.0000000  0  4G17G 3G21G23
  20698383.3834      17682.66147      9226.72646
  20860011.2974      68859.00747     35874.66246
  22819014.8984    -114473.06246    -29682.43445
  20659188.2114     -23225.93847     -5953.36546
 92  6 11  4 28 30.0000000  0  4G17G 3G21G23
  20699531.2894      23691.89547     13909.25846
  20864431.1334      92079.37547     53968.45546
  22811778.055     -152496.435 6    -59310.985 5
  20657753.1954     -30761.98747    -11825.60246
 92  6 11  4 28 45.0000000  0  4G17G 3G21G23
  20700687.1254      29761.82847     18639.07046
  20868871.7504     115433.24547     72166.28046
  22804557.2664    -190451.26246    -88886.13845
  20656337.8984     -38197.54947    -17619.53546
 92  6 11  4 29  0.0000000  0  4G17G 3G21G23
  20701855.1724      35892.96547     23416.58546
  20873347.4924     138920.82147     90468.28046
  22797349.4384    -228335.70646   -118406.41845
  20654940.109      -45529.723 7    -23332.899 6
 92  6 11  4 29 15.0000000  0  4G17G 3G21G23
  20703031.9774      42085.59547     28242.00346
  20877838.9844     162541.14847    108873.73546
  22790152.5864    -266154.02546   -147875.20245
  20653567.7504     -52756.63247    -28964.24946
 92  6 11  4 29 30.0000000  0  4G17G 3G21G23
  20704219.6644      48337.38647     33113.53646
  20882357.9454     186291.83847    127380.75546
  22782965.9304    -303907.75346   -177293.64745
  20652210.9454     -59881.51647    -34516.10346
 92  6 11  4 29 45.0000000  0  4G17G 3G21G23
  20705421.6414      54646.73947     38029.91746
  20886901.7344     210172.28047    145988.88846
  22775794.875     -341595.147 6   -206660.409 5
  20650873.086      -66904.989 7    -39988.922 6
 92  6 11  4 30  0.0000000  0  4G17G 3G21G23
  20706631.8984      61012.99947     42990.64046
  20891467.4774     234182.37947    164698.05646
  22768634.6094    -379220.25346   -235978.63545
  20649558.7664     -73825.65847    -45381.64446
 92  6 11  4 30 15.0000000  0  4G17G 3G21G23
  20707855.2814      67439.21047     47998.07846
  20896068.9064     258321.02447    183507.38746
  22761484.4774    -416787.20946   -265251.55545
  20648262.117      -80642.092 7    -50693.132 6
 92  6 11  4 30 30.0000000  0  4G17G 3G21G23
  20709093.2584      73926.81747     53053.35346
  20900681.2974     282588.77547    202417.31946
  22754345.383     -454294.960 6   -294478.329 5
  20646984.7194     -87355.11547    -55924.04846
 92  6 11  4 30 45.0000000  0  4G17G 3G21G23
  20710336.5084      80472.31047     58153.73246
  20905325.8834     306986.41947    221428.45846
  22747221.1564    -491744.12246   -323659.46545
  20645724.2274     -93964.10747    -61073.90546
 92  6 11  4 31  0.0000000  0  4G17G 3G21G23
  20711592.9774      87070.20648     63294.95846
  20909992.4844     331509.71347    240537.51946
  22740101.6174    -529141.15246   -352799.96945
  20644488.5864    -100470.86247    -66144.09846
 92  6 11  4 31 15.0000000  0  4G17G 3G21G23
  20712861.3834      93723.47047     68479.31546
  20914681.7274     356159.93647    259745.47546
  22732998.469     -566485.665 6   -381899.565 5
  20643268.578     -106874.247 7    -71133.738 6
 92  6 11  4 31 30.0000000  0  4G17G 3G21G23
  20714135.0474     100431.59847     73706.42946
  20919398.7034     380938.00147    279053.05646
  22725904.9064    -603774.80946   -410956.00145
  20642069.844     -113176.984 7    -76044.942 6
 92  6 11  4 31 45.0000000  0  4G17G 3G21G23
  20715421.7274     107190.94447     78973.44346
  20924136.1884     405843.15147    298459.65546
  22718819.211     -641008.620 6   -439969.324 5
  20640885.672     -119380.116 7    -80878.536 6
 92  6 11  4 32  0.0000000  0  4G17G 3G21G23
  20716717.2504     114002.91547     84281.46846
  20928904.109      430874.793 7    317964.825 6
  22711740.781     -678188.753 6   -468940.826 5
  20639729.1484    -125481.91247    -85633.16846
 92  6 11  4 32 15.0000000  0  4G17G 3G21G23
  20718024.3914     120868.85148     89631.54946
  20933689.1414     456034.67447    337569.91746
  22704674.266     -715311.654 6   -497867.742 5
  20638585.0004    -131481.69147    -90308.30946
 92  6 11  4 32 30.0000000  0  4G17G 3G21G23
  20719341.8674     127784.30448     95020.22146
  20938498.953      481322.898 7    357275.016 6
  22697625.0394    -752372.70446   -526746.46745
  20637462.3594    -137380.48147    -94904.75746
 92  6 11  4 32 45.0000000  0  4G17G 3G21G23
  20720664.9694     134740.97048    100440.99846
  20943336.8204     506737.32847    377078.45846
  22690582.609     -789372.322 6   -555577.318 5
  20636361.352     -143181.840 7    -99425.290 6
 92  6 11  4 33  0.0000000  0  4G17G 3G21G23
  20721995.8444     141737.24148    105892.63846
  20948196.781      532276.914 7    396979.416 6
  22683557.2274    -826310.86546   -584360.56845
  20635273.773     -148886.829 7   -103870.717 6
 92  6 11  4 33 15.0000000  0  4G17G 3G21G23
  20723333.8594     148776.20247    111377.53146
  20953081.617      557944.075 7    416979.793 6
  22676537.617     -863184.490 6   -613093.202 5
  20634204.5474    -154494.14947   -108240.05246
 92  6 11  4 33 30.0000000  0  4G17G 3G21G23
  20724682.3594     155853.76347    116892.52646
  20957987.7894     583736.75447    437077.97946
  22669533.523     -899992.931 6   -641775.055 5
  20633156.500     -160004.281 7   -112533.647 6
 92  6 11  4 33 45.0000000  0  4G17G 3G21G23
  20726035.3984     162968.79047    122436.70546
  20962923.8914     609654.51547    457273.63346
  22662543.8674    -936736.38346   -670406.28645
  20632128.594     -165415.984 7   -116750.548 6
 92  6 11  4 34  0.0000000  0  4G17G 3G21G23
  20727396.7344     170124.54748    128012.61446
  20967877.695      635699.163 7    477568.149 6
  22655560.8134    -973415.04446   -698987.02345
  20631119.563     -170725.614 7   -120887.904 6
 92  6 11  4 34 15.0000000  0  4G17G 3G21G23
  20728764.1724     177320.25148    133619.64846
  20972856.852      661869.446 7    497960.560 6
  22648595.891    -1010028.387 6   -727516.885 5
  20630127.3054    -175937.62847   -124949.20346
 92  6 11  4 34 30.0000000  0  4G17G 3G21G23
  20730141.8054     184553.64547    139256.06846
  20977862.672      688164.917 7    518450.523 6
  22641641.539    -1046578.118 6   -755997.149 5
  20629153.8444    -181055.94947   -128937.49746
 92  6 11  4 34 45.0000000  0  4G17G 3G21G23
  20731526.1644     191826.38148    144923.12646
  20982887.820      714585.026 7    539037.608 6
  22634695.2584   -1083066.83146   -784429.87045
  20628196.2584    -186081.51947   -132853.51946
 92  6 11  4 35  0.0000000  0  4G17G 3G21G23
  20732919.5864     199143.13748    150624.49046
  20987942.523      741131.132 7    559722.879 6
  22627764.359    -1119493.344 6   -812814.109 5
  20627256.500     -191015.876 7   -136698.453 6
 92  6 11  4 35 15.0000000  0  4G17G 3G21G23
  20734322.1414     206505.50848    156361.40146
  20993017.305      767802.985 7    580506.116 6
  22620845.6334   -1155858.51646   -841150.56845
  20626334.6334    -195858.74047   -140472.10646
 92  6 11  4 35 30.0000000  0  4G17G 3G21G23
  20735731.2274     213914.17647    162134.38546
  20998119.305      794599.256 7    601386.315 6
  22613935.7504   -1192164.10446   -869440.59945
  20625429.4064    -200610.71547   -144174.93646
 92  6 11  4 35 45.0000000  0  4G17G 3G21G23
  20737150.2734     221371.26648    167945.11146
  21003239.000      821519.658 7    622363.234 6
  22607037.4454   -1228411.42046   -897685.22745
  20624543.3674    -205273.62447   -147808.36046
 92  6 11  4 36  0.0000000  0  4G17G 3G21G23
  20738581.4844     228878.78148    173795.13046
  21008384.625      848565.662 7    643438.025 6
  22600151.0004   -1264600.76346   -925884.66245
  20623670.3834    -209849.70647   -151374.12746
 92  6 11  4 36 15.0000000  0  4G17G 3G21G23
  20740012.8594     236436.33647    179684.12846
  21013557.695      875734.956 7    664608.886 6
  22593275.2194   -1300733.51346   -954040.00845
  20622819.8284    -214342.15647   -154874.73046
 92  6 11  4 36 30.0000000  0  4G17G 3G21G23
  20741462.7274     244046.27548    185613.96346
  21018750.969      903029.681 7    685877.490 6
  22586410.930    -1336805.498 6   -982147.999 5
  20621979.1724    -218748.63247   -158308.34146
 92  6 11  4 36 45.0000000  0  4G17G 3G21G23
  20742923.0004     251709.50448    191585.31146
  21023966.977      930450.483 7    707244.331 6
  22579557.234    -1372817.835 6  -1010209.533 5
  20621157.8204    -223063.42447   -161670.51146
 92  6 11  4 37  0.0000000  0  4G17G 3G21G23
  20744391.8524     259424.34347    197596.88246
  21029209.805      957996.521 7    728708.764 6
  22572715.633    -1408770.737 6  -1038224.727 5
  20620354.1254    -227282.70647   -164958.25846
 92  6 11  4 37 15.0000000  0  5G17G 3G21G23G28
  20745867.1334     267189.25547    203647.46946
  21034475.664      985666.720 7    750269.939 6
  22565886.766    -1444665.306 6  -1066194.466 5
  20619571.0234    -231403.80447   -168169.49546
  24020875.7814         -0.64654
 92  6 11  4 37 30.0000000  0  5G17G 3G21G23G28
  20747352.7894     275003.71747    209736.66246
  21039762.461     1013459.878 7    771926.924 6
  22559065.469    -1480503.945 6  -1094120.661 5
  20618807.7504    -235425.57047   -171303.32846
  24011325.703      -50159.484 4
 92  6 11  4 37 45.0000000  0  5G17G 3G21G23G28
  20748851.6804     282872.66847    215868.32746
  21045077.758     1041379.495 7    793682.454 6
  22552257.9144   -1516282.14846  -1121999.73645
  20618057.3524    -239345.04547   -174357.46146
  24001792.6564    -100285.00045
 92  6 11  4 38  0.0000000  0  5G17G 3G21G23G28
  20750356.7504     290790.64747    222038.18846
  21050412.234     1069422.841 7    815534.390 6
  22545459.1884   -1552000.16246  -1149831.91345
  20617334.0704    -243165.99747   -177334.81646
  23992255.891     -150381.335 5        -0.77914
 92  6 11  4 38 15.0000000  0  5G17G 3G21G23G28
  20751872.3204     298756.18447    228245.09746
  21055773.414     1097590.761 7    837483.401 6
  22538674.000    -1587658.596 6  -1177617.668 5
  20616625.4224    -246886.00047   -180233.51846
  23982732.3754    -200447.45345    -39013.30544
 92  6 11  4 38 30.0000000  0  5G17G 3G21G23G28
  20753401.0084     306768.89547    234488.77646
  21061158.4304    1125883.03047    859529.31346
  22531900.1094   -1623255.06146  -1205355.13945
  20615936.5554    -250504.22147   -183052.91046
  23973207.469     -250483.406 5    -78002.340 4
 92  6 11  4 38 45.0000000  0  5G17G 3G21G23G28
  20754932.5784     314829.68547    240769.91546
  21066567.539     1154300.471 7    881672.747 6
  22525141.141    -1658790.034 6  -1233044.690 5
  20615271.3134    -254018.69647   -185791.45246
  23963693.445     -300487.866 5   -116966.816 4
 92  6 11  4 39  0.0000000  0  5G17G 3G21G23G28
  20756477.9454     322935.80348    247086.37946
  21071996.477     1182842.099 7    903912.965 6
  22518386.0234   -1694265.47346  -1260687.83945
  20614616.7664    -257431.30547   -188450.61746
  23954182.6254    -350464.68245   -155909.74644
 92  6 11  4 39 15.0000000  0  5G17G 3G21G23G28
  20758026.8674     331089.76347    253440.11246
  21077451.984     1211507.229 7    926249.421 6
  22511648.7344   -1729678.79146  -1288282.59245
  20613986.9454    -260747.74647   -191034.85246
  23944678.5084    -400415.62845   -194832.54544
 92  6 11  4 39 30.0000000  0  5G17G 3G21G23G28
  20759586.9534     339296.49347    259834.98146
  21082933.4844    1240297.32147    948683.24846
  22504921.3754   -1765027.30046  -1315826.85545
  20613374.9304    -263972.03147   -193547.27646
  23935176.4224    -450339.48045   -233734.18544
 92  6 11  4 39 45.0000000  0  5G17G 3G21G23G28
  20761163.8914     347555.75348    266270.77946
  21088430.953     1269211.955 7    971214.122 6
  22498206.930    -1800311.517 6  -1343321.002 5
  20612773.5474    -267108.81147   -195991.51646
  23925684.625     -500235.023 5   -272613.808 5
 92  6 11  4 40  0.0000000  0  5G17G 3G21G23G28
  20762743.0314     355867.32148    272747.31746
  21093957.297     1298250.917 7    993841.862 6
  22491506.1644   -1835530.67146  -1370764.46445
  20612199.2894    -270158.16947   -198367.64046
  23916192.9924    -550101.95945   -311471.12745
 92  6 11  4 40 15.0000000  0  5G17G 3G21G23G28
  20764333.9844     364231.66347    279264.98846
  21099507.906     1327416.288 7   1016568.107 6
  22484818.7034   -1870686.94346  -1398158.92645
  20611634.1954    -273119.33747   -200675.02346
  23906709.2274    -599938.15145   -350304.47945
 92  6 11  4 40 30.0000000  0  5G17G 3G21G23G28
  20765937.492      372649.146 7    285824.078 6
  21105086.016     1356704.717 7   1039390.241 6
  22478136.7664   -1905784.28346  -1425507.47445
  20611083.4384    -275994.57647   -202915.46746
  23897231.3364    -649747.26445   -389116.75445
 92  6 11  4 40 45.0000000  0  5G17G 3G21G23G28
  20767549.3204     381124.15048    292427.98246
  21110677.484     1386118.280 7   1062309.881 6
  22471470.0234   -1940819.33546  -1452807.47145
  20610557.1094    -278781.80947   -205087.33446
  23887758.406     -699527.038 5   -427906.123 5
 92  6 11  4 41  0.0000000  0  5G17G 3G21G23G28
  20769174.4614     389656.33448    299076.44146
  21116298.266     1415655.912 7   1085326.206 6
  22464812.633    -1975794.791 6  -1480061.026 5
  20610042.5234    -281482.52647   -207191.78746
  23878290.1644    -749276.23144   -466671.71445
 92  6 11  4 41 15.0000000  0  5G17G 3G21G23G28
  20770810.531      398245.131 8    305769.026 6
  21121945.9614    1445317.28047   1108438.94746
  22458172.406    -2010710.863 6  -1507268.302 5
  20609539.836     -284099.378 7   -209230.885 6
  23868830.125     -798991.215 4   -505410.618 5
 92  6 11  4 41 30.0000000  0  5G17G 3G21G23G28
  20772451.9774     406890.63347    312505.78946
  21127609.508     1475103.004 7   1131648.588 6
  22451536.1724   -2045568.05346  -1534429.69545
  20609062.164     -286632.722 7   -211204.896 6
  23859376.563     -848667.587 4   -544119.421 5
 92  6 11  4 41 45.0000000  0  5G17G 3G21G23G28
  20774108.258      415587.970 8    319282.954 6
  21133303.570     1505013.460 7   1154955.425 6
  22444914.9064   -2080368.71146  -1561547.03545
  20608599.1414    -289079.56947   -213111.52846
  23849932.8594    -898302.00744   -582795.55845
 92  6 11  4 42  0.0000000  0  5G17G 3G21G23G28
  20775770.4224     424332.25748    326096.68146
  21139019.109     1535046.741 7   1178357.968 6
  22438303.289    -2115114.192 6  -1588621.392 5
  20608145.4064    -291437.77647   -214949.09146
  23840492.9454    -947894.98144   -621439.37545
 92  6 11  4 42 15.0000000  0  5G17G 3G21G23G28
  20777444.859      433122.793 7    332946.461 6
  21144757.953     1565203.689 7   1201856.871 6
  22431702.492    -2149803.346 6  -1615651.851 5
  20607713.6484    -293704.93147   -216715.70046
  23831070.023     -997446.163 4   -660050.642 5
 92  6 11  4 42 30.0000000  0  5G17G 3G21G23G28
  20779127.3984     441959.28347    339832.04246
  21150520.867     1595485.715 7   1225453.237 6
  22425113.5004   -2184433.52446  -1642636.37145
  20607298.9454    -295880.59747   -218411.01846
  23821640.4304   -1046954.71444   -698628.69245
 92  6 11  4 42 45.0000000  0  5G17G 3G21G23G28
  20780814.7344     450839.12447    346751.39946
  21156307.641     1625891.848 7   1249146.316 6
  22418535.313    -2219001.648 6  -1669572.537 5
  20606902.1954    -297965.12847   -220035.32246
  23812236.938    -1096419.583 4   -737172.693 5
 92  6 11  4 43  0.0000000  0  5G17G 3G21G23G28
  20782511.4224     459759.56547    353702.40146
  21162117.906     1656422.230 7   1272936.206 6
  22411968.539    -2253506.101 6  -1696459.077 5
  20606526.844     -299958.846 7   -221588.853 6
  23802830.1884   -1145838.15444   -775680.64545
 92  6 11  4 43 15.0000000  0  5G17G 3G21G23G28
  20784214.5784     468718.17447    360683.12846
  21167950.000     1687076.421 7   1296822.573 6
  22405415.742    -2287948.644 6  -1723297.361 5
  20606164.6484    -301861.72447   -223071.60946
  23793429.8984   -1195211.90844   -814153.66745
 92  6 11  4 43 30.0000000  0  5G17G 3G21G23G28
  20785926.7974     477715.18747    367693.78446
  21173806.3674    1717855.63047   1320806.36646
  22398869.727    -2322326.465 6  -1750085.244 5
  20605821.3984    -303672.91647   -224482.92146
  23784045.5554   -1244542.97644   -852593.42845
 92  6 11  4 43 45.0000000  0  5G17G 3G21G23G28
  20787648.4534     486747.79347    374732.19446
  21179684.258     1748756.847 7   1344885.221 6
  22392342.1954   -2356641.78446  -1776824.41845
  20605496.4924    -305393.18047   -225823.38146
  23774659.148    -1293837.172 4   -891004.434 5
 92  6 11  4 44  0.0000000  0  5G17G 3G21G23G28
  20789374.4774     495820.39547    381801.75946
  21185589.969     1779782.523 7   1369061.066 6
  22385822.3204   -2390891.09546  -1803512.14845
  20605182.1094    -307018.36148   -227089.74846
  23765289.1414   -1343092.84544   -929385.45445
 92  6 11  4 44 15.0000000  0  5G17G 3G21G23G28
  20791110.4304     504933.42548    388902.82446
  21191519.7664    1810931.71047   1393333.15246
  22379320.672    -2425074.254 6  -1830148.324 5
  20604886.1484    -308549.54147   -228282.86946
  23755929.7424   -1392313.07744   -967738.85745
 92  6 11  4 44 30.0000000  0  5G17G 3G21G23G28
  20792851.5864     514087.01947    396035.49046
  21197467.234     1842202.899 7   1417700.301 6
  22372825.352    -2459194.363 6  -1856735.372 5
  20604615.8444    -309988.49747   -229404.12946
  23746561.383    -1441500.161 4  -1006066.400 5
 92  6 11  4 44 45.0000000  0  5G17G 3G21G23G28
  20794602.7424     523284.25147    403202.16746
  21203444.180     1873596.937 7   1442163.172 6
  22366345.1954   -2493249.89146  -1883272.10645
  20604360.9774    -311335.60847   -230453.81246
  23737210.4844   -1490651.46845  -1044366.08845
 92  6 11  4 45  0.0000000  0  5G17G 3G21G23G28
  20796359.7114     532527.94647    410405.05346
  21209437.953     1905113.210 7   1466721.294 6
  22359876.8674   -2527241.38246  -1909758.94545
  20604122.164     -312588.584 7   -231430.146 6
  23727861.492    -1539765.101 5  -1082636.429 5
 92  6 11  4 45 15.0000000  0  5G17G 3G21G23G28
  20798129.5234     541822.14848    417647.29546
  21215461.906     1936752.298 7   1491375.109 6
  22353417.953    -2561169.972 6  -1936196.764 5
  20603900.2734    -313747.26147   -232333.00746
  23718527.867    -1588844.778 5  -1120880.293 5
 92  6 11  4 45 30.0000000  0  5G17G 3G21G23G28
  20799907.2034     551169.27547    424930.76746
  21221506.0314    1968516.11847   1516126.13746
  22346977.3284   -2595034.76346  -1962584.88245
  20603701.8594    -314809.83647   -233160.98246
  23709190.961    -1637888.392 5  -1159096.077 5
 92  6 11  4 45 45.0000000  0  5G17G 3G21G23G28
  20801697.0004     560570.30147    432256.24846
  21227575.3524    2000403.99047   1540973.82646
  22340544.031    -2628836.770 6  -1988924.064 5
  20603517.0084    -315776.50747   -233914.21546
  23699868.766    -1686892.756 5  -1197281.259 5
 92  6 11  4 46  0.0000000  0  5G17G 3G21G23G28
  20803493.0164     570026.81847    439624.96946
  21233666.102     2032416.907 7   1565918.931 6
  22334125.109    -2662574.436 6  -2015213.112 5
  20603348.6174    -316646.94347   -234592.46746
  23690542.7114   -1735854.87345  -1235433.53445
 92  6 11  4 46 15.0000000  0  5G17G 3G21G23G28
  20805303.5554     579535.93347    447034.67946
  21239780.1724    2064552.57247   1590959.69946
  22327716.4304   -2696250.17346  -2041453.89045
  20603200.4924    -317426.47547   -235199.89446
  23681238.8754   -1784776.39345  -1273554.17845
 92  6 11  4 46 30.0000000  0  5G17G 3G21G23G28
  20807126.3754     589097.93647    454485.59446
  21245921.1564    2096808.86647   1616094.46346
  22321317.7734   -2729866.56446  -2067648.44445
  20603068.352     -318117.794 7   -235738.572 6
  23671934.0864   -1833658.37845  -1311644.02145
 92  6 11  4 46 45.0000000  0  5G17G 3G21G23G28
  20808952.3284     598718.04947    461981.78646
  21252082.3364    2129188.47147   1641325.31746
  22314934.4304   -2763420.30746  -2093794.18045
  20602956.8054    -318720.61647   -236208.29246
  23662647.0084   -1882493.13245  -1349697.04345
 92  6 11  4 47  0.0000000  0  5G17G 3G21G23G28
  20810795.8134     608394.73348    469522.06746
  21258265.070     2161689.211 7   1666650.554 6
  22308560.195    -2796912.464 6  -2119891.922 5
  20602860.5634    -319236.13147   -236609.98346
  23653360.2584   -1931283.29545  -1387715.30545
 92  6 11  4 47 15.0000000  0  5G17G 3G21G23G28
  20812651.898      618129.465 7    477107.584 6
  21264472.094     2194312.406 7   1692071.212 6
  22302200.9064   -2830343.76946  -2145942.25345
  20602775.7034    -319662.90947   -236942.52946
  23644083.883    -1980029.729 5  -1425699.519 5
 92  6 11  4 47 30.0000000  0  5G17G 3G21G23G28
  20814509.3364     627921.16947    484737.49146
  21270702.2344    2227058.42447   1717587.58246
  22295849.742    -2863715.139 6  -2171945.876 5
  20602715.5164    -320002.98247   -237207.51346
  23634814.0314   -2028733.09545  -1463650.15045
 92  6 11  4 47 45.0000000  0  5G17G 3G21G23G28
  20816388.7034     637769.20947    492411.28546
  21276960.7974    2259926.97847   1743199.43346
  22289512.313    -2897025.888 6  -2197902.255 5
  20602661.4384    -320255.15547   -237404.00346
  23625557.5944   -2077389.69245  -1501564.34645
 92  6 11  4 48  0.0000000  0  5G17G 3G21G23G28
  20818269.7584     647671.96147    500127.72946
  21283235.7504    2292916.35147   1768905.42546
  22283184.703    -2930274.306 6  -2223810.069 5
  20602633.813     -320420.239 7   -237532.625 6
  23616310.008    -2126004.862 5  -1539446.280 5
 92  6 11  4 48 15.0000000  0  5G17G 3G21G23G28
  20820165.2894     657627.69647    507885.43746
  21289536.3284    2326025.14347   1794704.48146
  22276865.570    -2963460.880 6  -2249669.691 5
  20602615.656     -320500.650 7   -237595.265 6
  23607065.516    -2174582.404 5  -1577298.862 5
 92  6 11  4 48 30.0000000  0  5G17G 3G21G23G28
  20822070.7734     667640.97747    515687.99446
  21295861.000     2359255.608 7   1820598.340 6
  22270565.141    -2996583.236 6  -2275479.276 5
  20602618.313     -320490.715 7   -237587.512 6
  23597826.8914   -2223118.80145  -1615119.40245
 92  6 11  4 48 45.0000000  0  5G17G 3G21G23G28
  20823987.9534     677708.67247    523532.95046
  21302206.2194    2392607.17747   1846586.56446
  22264273.516    -3029640.442 6  -2301238.088 5
  20602637.813     -320389.591 7   -237508.696 6
  23588598.4064   -2271614.74045  -1652908.41845
 92  6 11  4 49  0.0000000  0  5G17G 3G21G23G28
  20825910.5164     687828.07747    531418.20146
  21308575.7734    2426080.01247   1872669.28046
  22257996.1884   -3062629.98746  -2326944.19245
  20602677.7814    -320196.86947   -237358.51946
  23579379.5864   -2320073.96645  -1690668.81945
 92  6 11  4 49 15.0000000  0  5G17G 3G21G23G28
  20827849.3134     697995.47747    539340.85146
  21314969.3204    2459673.09847   1898845.70546
  22251731.4064   -3095551.78346  -2352597.50145
  20602723.6954    -319913.39647   -237137.62746
  23570160.3834   -2368498.24645  -1728401.99545
 92  6 11  4 49 30.0000000  0  5G17G 3G21G23G28
  20829790.2114     708209.24047    547299.63846
  21321387.461     2493387.493 7   1925116.648 6
  22245480.875    -3128403.049 6  -2378195.841 6
  20602798.375     -319539.664 7   -236846.384 6
  23560957.7274   -2416884.74945  -1766105.72645
 92  6 11  4 49 45.0000000  0  5G17G 3G21G23G28
  20831742.7424     718466.71147    555292.47546
  21327822.117     2527222.848 7   1951481.848 6
  22239241.617    -3161181.395 6  -2403737.353 6
  20602890.547     -319074.942 7   -236484.255 6
  23551761.3674   -2465229.44845  -1803776.89045
 92  6 11  4 50  0.0000000  0  5G17G 3G21G23G28
  20833704.086      728766.714 7    563318.460 6
  21334286.406     2561178.504 7   1977940.783 6
  22233019.273    -3193888.315 6  -2429223.222 5
  20602990.766     -318520.239 7   -236052.005 6
  23542559.6024   -2513529.94745  -1841413.61245
 92  6 11  4 50 15.0000000  0  5G17G 3G21G23G28
  20835668.6484     739111.25347    571379.15046
  21340767.734     2595257.627 7   2004495.932 6
  22226807.6334   -3226523.75446  -2454653.39245
  20603116.6414    -317876.23947   -235550.17146
  23533381.195    -2561781.236 5  -1879012.000 5
 92  6 11  4 50 30.0000000  0  5G17G 3G21G23G28
  20837646.9144     749497.98047    579472.71446
  21347279.648     2629457.118 7   2031144.878 5
  22220611.984    -3259093.717 6  -2480032.541 6
  20603256.1024    -317148.84547   -234983.36346
  23524207.008    -2609981.262 5  -1916570.433 5
 92  6 11  4 50 45.0000000  0  5G17G 3G21G23G28
  20839632.7894     759926.33047    587598.71346
  21353809.172     2663777.652 7   2057888.132 5
  22214423.234    -3291597.432 6  -2505360.063 6
  20603409.531     -316336.878 7   -234350.645 6
  23515051.688    -2658126.838 5  -1954086.409 5
 92  6 11  4 51  0.0000000  0  5G17G 3G21G23G28
  20841627.852      770399.431 7    595759.588 6
  21360361.953     2698220.021 7   2084726.331 5
  22208251.883    -3324035.150 6  -2530636.172 6
  20603575.906     -315443.413 7   -233654.425 6
  23505894.3134   -2706218.82645  -1991560.65545
 92  6 11  4 51 15.0000000  0  5G17G 3G21G23G28
  20843628.844      780917.503 7    603955.509 6
  21366940.9614    2732782.50947   2111658.13045
  22202089.000    -3356410.538 6  -2555863.693 6
  20603764.641     -314469.417 7   -232895.456 6
  23496754.703    -2754255.069 5  -2028991.461 5
 92  6 11  4 51 30.0000000  0  5G17G 3G21G23G28
  20845633.5864     791481.58247    612187.26546
  21373541.6954    2767465.62447   2138683.92045
  22195942.3284   -3388725.02746  -2581043.77546
  20603966.344     -313412.756 7   -232072.070 6
  23487625.5234   -2802230.80445  -2066375.12845
 92  6 11  4 51 45.0000000  0  5G17G 3G21G23G28
  20847656.2974     802092.91147    620455.84646
  21380161.930     2802268.207 7   2165802.796 5
  22189804.820    -3420983.164 6  -2606179.940 6
  20604185.5784    -312274.15547   -231184.83846
  23478505.1884   -2850148.77646  -2103713.77045
 92  6 11  4 52  0.0000000  0  5G17G 3G21G23G28
  20849684.891      812752.643 7    628762.139 6
  21386810.477     2837191.528 7   2193015.758 5
  22183674.7894   -3453185.67246  -2631272.76246
  20604411.773     -311054.891 7   -230234.754 6
  23469396.8134   -2898008.68146  -2141007.18045
 92  6 11  4 52 15.0000000  0  5G17G 3G21G23G28
  20851725.5314     823462.09147    637107.16646
  21393479.2734    2872236.21247   2220323.29445
  22177555.6414   -3485330.79746  -2656320.87646
  20604659.414     -309755.543 7   -229222.262 6
  23460304.7894   -2945813.92646  -2178257.99345
 92  6 11  4 52 30.0000000  0  5G17G 3G21G23G28
  20853771.8134     834220.03047    645489.97846
  21400168.586     2907401.399 7   2247724.724 5
  22171450.6334   -3517415.10246  -2681321.59446
  20604921.383     -308376.996 7   -228148.056 6
  23451214.844    -2993567.078 6  -2215468.214 5
 92  6 11  4 52 45.0000000  0  5G17G 3G21G23G28
  20855828.3524     845026.48847    653910.59146
  21406883.945     2942687.600 7   2275220.447 5
  22165361.094    -3549433.839 6  -2706271.221 6
  20605199.4384    -306913.71247   -227007.82346
  23442135.563    -3041270.750 6  -2252639.897 5
 92  6 11  4 53  0.0000000  0  5G17G 3G21G23G28
  20857893.0634     855881.03747    662368.69346
  21413624.141     2978093.326 7   2302809.301 5
  22159279.9144   -3581387.59746  -2731170.20946
  20605497.2424    -305365.07647   -225801.08446
  23433065.141    -3088928.632 6  -2289775.888 5
 92  6 11  4 53 15.0000000  0  5G17G 3G21G23G28
  20859968.9694     866783.79248    670864.34946
  21420383.172     3013619.339 7   2330491.899 5
  22153211.7114   -3613276.13746  -2756018.39146
  20605805.227     -303730.102 7   -224527.065 6
  23424012.383    -3136538.991 6  -2326874.842 5
 92  6 11  4 53 30.0000000  0  5G17G 3G21G23G28
  20862052.4774     877731.23247    679394.81246
  21427165.250     3049265.311 7   2358267.964 5
  22147154.1484   -3645100.47346  -2780816.54146
  20606131.867     -302006.755 7   -223184.178 6
  23414956.3914   -3184101.02645  -2363936.13245
 92  6 11  4 53 45.0000000  0  5G17G 3G21G23G28
  20864144.1334     888725.03547    687961.41346
  21433973.102     3085031.124 7   2386137.418 5
  22141113.891    -3676858.708 6  -2805563.204 6
  20606477.6254    -300197.13047   -221774.07046
  23405917.1884   -3231618.63745  -2400962.80845
 92  6 11  4 54  0.0000000  0  5G17G 3G21G23G28
  20866244.4064     899767.25347    696565.74646
  21440799.773     3120917.357 7   2414100.693 5
  22135080.313    -3708548.432 6  -2830256.472 6
  20606838.6334    -298302.50747   -220297.73746
  23396884.4144   -3279091.04145  -2437954.26045
 92  6 11  4 54 15.0000000  0  5G17G 3G21G23G28
  20868355.1804     910860.93147    705210.16846
  21447653.695     3156925.260 7   2442158.788 5
  22129065.805    -3740164.877 6  -2854892.627 6
  20607217.6644    -296318.02047   -218751.37846
  23387856.1174   -3326513.39445  -2474906.69545
 92  6 11  4 54 30.0000000  0  5G17G 3G21G23G28
  20870473.9534     922007.15047    713895.52846
  21454525.461     3193052.659 7   2470309.985 5
  22123060.188    -3771712.559 6  -2879475.217 6
  20607616.695     -294242.141 7   -217133.794 6
  23378839.758    -3373886.609 5  -2511820.849 5
 92  6 11  4 54 45.0000000  0  5G17G 3G21G23G28
  20872605.1174     933210.59447    722625.48546
  21461426.188     3229299.767 7   2498554.470 5
  22117070.4924   -3803193.75346  -2904005.98746
  20608029.086     -292071.807 7   -215442.612 6
  23369837.828    -3421208.908 5  -2548695.325 5
 92  6 11  4 55  0.0000000  0  5G17G 3G21G23G28
  20874751.4694     944476.85247    731404.39346
  21468346.063     3265667.313 7   2526892.806 5
  22111091.992    -3834610.294 6  -2928486.382 5
  20608460.5944    -289806.26247   -213677.24246
  23360840.742    -3468476.659 6  -2585527.286 5
 92  6 11  4 55 15.0000000  0  5G17G 3G21G23G28
  20876902.1414     955805.52047    740231.93146
  21475288.156     3302154.293 7   2555324.196 5
  22105125.9384   -3865965.49346  -2952918.96545
  20608907.578     -287449.601 7   -211840.872 6
  23351858.6414   -3515687.77346  -2622315.13245
 92  6 11  4 55 30.0000000  0  5G17G 3G21G23G28
  20879074.5784     967197.32047    749108.66546
  21482254.266     3338761.673 7   2583849.414 5
  22099170.7194   -3897258.77546  -2977303.30745
  20609372.2114    -285001.71547   -209933.41246
  23342886.9384   -3562840.79546  -2659057.70445
 92  6 11  4 55 45.0000000  0  5G17G 3G21G23G28
  20881257.5394     978653.92247    758035.88446
  21489242.344     3375489.132 7   2612468.194 5
  22093226.2974   -3928487.15346  -3001637.07645
  20609853.0164    -282465.23347   -207956.92546
  23333923.0554   -3609936.19246  -2695755.37845
 92  6 11  4 56  0.0000000  0  5G17G 3G21G23G28
  20883445.7114     990177.27647    767015.12346
  21496258.070     3412337.621 7   2641181.286 5
  22087299.6174   -3959649.72946  -3025919.57045
  20610356.1174    -279840.75847   -205911.86946
  23324974.4454   -3656972.09946  -2732406.71045
 92  6 11  4 56 15.0000000  0  5G17G 3G21G23G28
  20885648.3364    1001763.63047    776043.44646
  21503289.828     3449305.553 7   2669987.455 5
  22081380.602    -3990747.705 6  -3050151.709 5
  20610872.867     -277127.257 7   -203797.441 6
  23316031.141    -3703948.462 6  -2769011.631 5
 92  6 11  4 56 30.0000000  0  5G17G 3G21G23G28
  20887871.9454    1013409.56447    785118.20246
  21510346.922     3486391.701 7   2698885.730 5
  22075473.313    -4021784.735 6  -3074336.365 5
  20611402.0314    -274325.52347   -201614.25846
  23307106.953    -3750866.947 5  -2805571.466 5
 92  6 11  4 56 45.0000000  0  5G17G 3G21G23G28
  20890095.4694    1025114.01147    794238.54146
  21517428.227     3523597.635 7   2727877.350 5
  22069577.4064   -4052760.43046  -3098473.23945
  20611950.320     -271440.160 7   -199365.913 6
  23298187.7974   -3797727.86946  -2842086.46545
 92  6 11  4 57  0.0000000  0  5G17G 3G21G23G28
  20892332.0944    1036875.32147    803403.20746
  21524529.586     3560924.630 7   2756963.301 5
  22063694.445    -4083669.587 6  -3122558.275 5
  20612519.1804    -268472.04047   -197053.08646
  23289281.0554   -3844528.66846  -2878554.60045
 92  6 11  4 57 15.0000000  0  5G17G 3G21G23G28
  20894579.4694    1048684.88947    812605.46746
  21531658.977     3598370.431 7   2786141.834 5
  22057829.1414   -4114514.59446  -3146593.33745
  20613098.7194    -265425.92947   -194679.47746
  23280384.695    -3891271.975 6  -2914977.931 5
 92  6 11  4 57 30.0000000  0  5G17G 3G21G23G28
  20896841.953     1060537.715 7    821841.462 6
  21538804.3284    3635935.63047   2815413.38745
  22051969.5314   -4145294.42046  -3170577.58545
  20613689.9224    -262301.55447   -192244.88946
  23271502.789    -3937957.559 6  -2951356.296 5
 92  6 11  4 57 45.0000000  0  5G17G 3G21G23G28
  20899094.813     1072432.821 7    831110.390 6
  21545979.109     3673619.920 7   2844777.757 5
  22046125.398    -4176009.007 6  -3194511.004 5
  20614302.0004    -259096.01347   -189747.05646
  23262629.938    -3984584.744 6  -2987689.143 5
 92  6 11  4 58  0.0000000  0  5G17G 3G21G23G28
  20901372.141     1084371.571 7    840413.335 6
  21553171.047     3711424.486 7   2874235.833 5
  22040296.445    -4206655.538 6  -3218391.392 5
  20614928.648     -255808.216 7   -187185.122 6
  23253766.852    -4031151.702 6  -3023975.050 5
 92  6 11  4 58 15.0000000  0  5G17G 3G21G23G28
  20903653.266     1096351.124 7    849748.056 6
  21560386.4144    3749347.29547   2903786.07045
  22034473.9694   -4237237.51746  -3242221.47945
  20615569.0784    -252438.23047   -184559.15446
  23244916.7974   -4077660.55946  -3060215.68845
 92  6 11  4 58 30.0000000  0  5G17G 3G21G23G28
  20905939.9454    1108370.49547    859113.80746
  21567625.742     3787388.613 7   2933428.632 5
  22028667.6804   -4267754.85646  -3266001.19046
  20616227.898     -248986.086 7   -181869.160 6
  23236079.570    -4124109.758 6  -3096409.864 5
 92  6 11  4 58 45.0000000  0  5G17G 3G21G23G28
  20908236.617     1120429.118 7    868510.152 6
  21574885.383     3825547.826 7   2963163.065 5
  22022874.422    -4298208.716 6  -3289731.447 5
  20616893.5314    -245454.53647   -179117.29446
  23227249.633    -4170498.793 6  -3132557.158 5
 92  6 11  4 59  0.0000000  0  5G17G 3G21G23G28
  20910533.148     1132527.087 7    877937.151 6
  21582171.820     3863824.561 7   2992989.078 5
  22017088.922    -4328595.787 6  -3313409.658 5
  20617586.7814    -241842.71247   -176302.87546
  23218433.906    -4216828.793 6  -3168658.427 5
 92  6 11  4 59 15.0000000  0  5G17G 3G21G23G28
  20912848.3674    1144667.92547    887397.55146
  21589478.250     3902220.404 7   3022907.902 5
  22011321.000    -4358912.252 6  -3337032.858 6
  20618287.1024    -238146.30747   -173422.54946
  23209629.148    -4263096.095 5  -3204710.831 5
 92  6 11  4 59 30.0000000  0  5G17G 3G21G23G28
  20915164.9774    1156853.58747    896892.86946
  21596809.141     3940734.832 7   3052919.123 5
  22005561.406    -4389159.411 6  -3360602.047 6
  20619007.906     -234364.267 7   -170475.495 6
  23200839.7814   -4309301.39946  -3240714.92745
 92  6 11  4 59 45.0000000  0  5G17G 3G21G23G28
  20917492.7274    1169086.60847    906425.09946
  21604156.3754    3979366.68847   3083021.85645
  21999821.9304   -4419336.69746  -3384116.77746
  20619740.883     -230495.264 7   -167460.676 6
  23192054.914    -4355445.615 6  -3276671.431 5
 92  6 11  5  0  0.0000000  0  5G17G 3G21G23G28
  20919828.8204    1181371.46547    915997.72246
  21611531.469     4018117.261 7   3113217.095 5
  21994095.7194   -4449438.75546  -3407572.88646
  20620495.3054    -226537.73947   -164376.88346
  23183289.328    -4401529.787 6  -3312581.149 5
 92  6 11  5  0 15.0000000  0  5G17G 3G21G23G28
  20922172.3674    1193708.52347    925611.01046
  21618929.516     4056985.378 7   3143503.915 5
  21988378.3834   -4479466.13946  -3430970.81046
  20621268.0864    -222496.65147   -161227.97246
  23174531.492    -4447555.945 6  -3348445.673 5
 92  6 11  5  0 30.0000000  0  5G17G 3G21G23G28
  20924535.4384    1206099.53847    935266.34746
  21626349.883     4095972.153 7   3173883.197 5
  21982681.508    -4509419.652 6  -3454311.188 6
  20622050.2664    -218369.56947   -158012.06246
  23165782.852    -4493522.074 6  -3384263.425 5
 92  6 11  5  0 45.0000000  0  5G17G 3G21G23G28
  20926904.8914    1218545.77148    944964.71546
  21633787.922     4135076.317 7   3204353.958 5
  21976994.0554   -4539300.26346  -3477594.74546
  20622852.289     -214157.173 7   -154729.664 6
  23157046.969    -4539429.570 6  -3420035.480 5
 92  6 11  5  1  0.0000000  0  5G17G 3G21G23G28
  20929283.1724    1231050.57447    954708.71346
  21641252.805     4174297.921 7   3234916.239 5
  21971323.133    -4569106.509 6  -3500820.364 6
  20623673.0474    -209858.75547   -151380.23946
  23148322.703    -4585278.311 6  -3455761.768 5
 92  6 11  5  1 15.0000000  0  5G17G 3G21G23G28
  20931673.8674    1243616.38747    964500.26146
  21648736.438     4213637.586 7   3265570.504 5
  21965665.4454   -4598836.67546  -3523986.68846
  20624503.7734    -205472.14647   -147962.09946
  23139607.602    -4631065.495 6  -3491440.053 5
 92  6 11  5  1 30.0000000  0  5G17G 3G21G23G28
  20934075.4774    1256242.10247    974338.48946
  21656248.242     4253095.206 7   3296316.679 5
  21960017.9454   -4628494.15246  -3547096.37946
  20625358.5474    -200997.17347   -144475.09546
  23130907.4144   -4676789.99246  -3527069.51445
 92  6 11  5  1 45.0000000  0  5G17G 3G21G23G28
  20936487.1644    1268927.49347    984223.21146
  21663778.797     4292670.725 7   3327154.723 5
  21954390.078    -4658080.910 6  -3570150.975 6
  20626227.3444    -196433.90247   -140919.29446
  23122219.250    -4722452.427 6  -3562650.610 5
 92  6 11  5  2  0.0000000  0  5G17G 3G21G23G28
  20938917.4844    1281671.34947    994153.49346
  21671332.242     4332363.172 7   3358083.876 5
  21948774.148    -4687597.447 6  -3593150.849 5
  20627111.7664    -191786.17747   -137297.69046
  23113542.297    -4768052.605 6  -3598183.195 5
 92  6 11  5  2 15.0000000  0  5G17G 3G21G23G28
  20941357.7584    1294475.12847   1004130.45946
  21678909.078     4372172.690 7   3389104.266 5
  21943170.023    -4717045.186 6  -3616097.119 6
  20628008.6414    -187057.08647   -133612.67646
  23104876.156    -4813587.511 6  -3633664.928 5
 92  6 11  5  2 30.0000000  0  5G17G 3G21G23G28
  20943802.5784    1307337.50147   1014153.08346
  21686503.5234    4412099.66846   3420216.17645
  21937580.8914   -4746429.29046  -3638993.78946
  20628925.1564    -182243.59547   -129861.88846
  23096225.7424   -4859053.86346  -3669093.24845
 92  6 11  5  2 45.0000000  0  5G17G 3G21G23G28
  20946258.5314    1320257.18047   1024220.37146
  21694127.258     4452144.794 7   3451420.156 5
  21931996.727    -4775749.328 6  -3661840.547 6
  20629858.0944    -177342.25447   -126042.65646
  23087583.523    -4904447.676 6  -3704465.038 5
 92  6 11  5  3  0.0000000  0  5G17G 3G21G23G28
  20948729.4924    1333230.89348   1034329.75046
  21701764.234     4492306.436 6   3482714.913 5
  21926431.5634   -4805004.37446  -3684636.65946
  20630807.680     -172355.803 7   -122157.095 6
  23078959.8914   -4949769.82746  -3739781.00445
 92  6 11  5  3 15.0000000  0  5G17G 3G21G23G28
  20951210.3984    1346257.21448   1044480.14546
  21709431.344     4532584.786 6   3514100.626 5
  21920876.641    -4834194.034 6  -3707381.825 6
  20631772.852     -167284.437 7   -118205.365 6
  23070349.7504   -4995018.91946  -3775040.02945
 92  6 11  5  3 30.0000000  0  5G17G 3G21G23G28
  20953694.2034    1359333.55147   1054669.48846
  21717120.273     4572978.935 7   3545576.567 5
  21915333.219    -4863320.499 6  -3730077.762 6
  20632751.273     -162129.480 7   -114188.505 6
  23061755.594    -5040195.308 6  -3810242.386 5
 92  6 11  5  3 45.0000000  0  5G17G 3G21G23G28
  20956195.9384    1372463.00047   1064900.22946
  21724829.7974    4613490.14147   3577143.71445
  21909803.953    -4892382.741 6  -3752723.645 6
  20633750.7504    -156892.86647   -110108.01946
  23053170.828    -5085298.066 6  -3845387.366 5
 92  6 11  5  4  0.0000000  0  5G17G 3G21G23G28
  20958705.3364    1385647.36547   1075173.76646
  21732558.875     4654117.072 7   3608801.036 5
  21904288.203    -4921379.804 6  -3775318.739 6
  20634762.4144    -151577.43147   -105966.11346
  23044602.531    -5130325.583 6  -3880473.722 5
 92  6 11  5  4 15.0000000  0  5G17G 3G21G23G28
  20961220.4924    1398885.04547   1085488.83546
  21740312.305     4694858.346 7   3640547.456 5
  21898780.758    -4950311.750 6  -3797863.096 6
  20635789.1484    -146182.33547   -101762.13746
  23036045.945    -5175277.810 6  -3915501.423 5
 92  6 11  5  4 30.0000000  0  5G17G 3G21G23G28
  20963748.7974    1412174.10247   1095843.94546
  21748085.016     4735713.256 6   3672382.439 5
  21893287.484    -4979180.481 6  -3820358.196 6
  20636831.2894    -140704.60947    -97493.76446
  23027510.203    -5220155.103 6  -3950470.721 5
 92  6 11  5  4 45.0000000  0  5G17G 3G21G23G28
  20966289.3754    1425515.43447   1106239.78846
  21755881.523     4776682.823 6   3704306.759 5
  21887806.781    -5007982.617 6  -3842801.406 6
  20637890.6564    -135143.33547    -93160.30346
  23018985.422    -5264956.799 6  -3985381.113 5
 92  6 11  5  5  0.0000000  0  5G17G 3G21G23G28
  20968837.1174    1438912.77247   1116679.26946
  21763703.6254    4817769.78347   3736322.54245
  21882340.742    -5036711.200 6  -3865187.296 6
  20638965.977     -129498.699 7    -88761.872 6
  23010472.234    -5309683.261 6  -4020232.885 5
 92  6 11  5  5 15.0000000  0  5G17G 3G21G23G28
  20971397.8054    1452368.66247   1127164.37246
  21771539.508     4858973.748 6   3768429.512 5
  21876886.570    -5065365.609 6  -3887515.389 6
  20640053.7424    -123770.63747    -84298.43546
  23001974.867    -5354336.349 6  -4055027.482 5
 92  6 11  5  5 30.0000000  0  5G17G 3G21G23G28
  20973969.7344    1465883.33347   1137695.28246
  21779407.5004    4900294.24647   3800627.26945
  21871448.289    -5093947.087 6  -3909786.651 6
  20641160.961     -117959.906 7    -79770.583 6
  22993491.5634   -5398916.11346  -4089764.95845
 92  6 11  5  5 45.0000000  0  5G17G 3G21G23G28
  20976554.5004    1479454.48047   1148270.20546
  21787289.0474    4941729.41546   3832914.39745
  21866022.289    -5122455.670 6  -3932001.111 6
  20642282.336     -112067.760 7    -75179.282 6
  22985025.227    -5443425.209 6  -4124447.352 5
 92  6 11  5  6  0.0000000  0  5G17G 3G21G23G28
  20979144.8364    1493082.32447   1158889.29946
  21795194.5164    4983279.06646   3865290.72545
  21860612.1334   -5150888.92246  -3954156.86546
  20643417.1094    -106092.29647    -70523.07246
  22976565.523    -5487865.646 6  -4159076.244 5
 92  6 11  5  6 15.0000000  0  5G17G 3G21G23G28
  20981747.0944    1506762.02347   1169548.80046
  21803125.039     5024941.644 6   3897755.036 5
  21855217.703    -5179248.014 7  -3976254.832 6
  20644570.023     -100031.795 7    -65800.593 6
  22968120.383    -5532240.597 6  -4193654.117 5
 92  6 11  5  6 30.0000000  0  5G17G 3G21G23G28
  20984365.0784    1520494.29947   1180249.27746
  21811075.3284    5066719.69546   3930309.34445
  21849832.039    -5207532.641 7  -3998294.784 6
  20645739.461      -93884.758 7    -61010.682 6
  22959686.6254   -5576550.65846  -4228181.40645
 92  6 11  5  6 45.0000000  0  5G17G 3G21G23G28
  20986988.5004    1534280.95247   1190992.11846
  21819050.008     5108613.050 6   3962953.497 5
  21844464.852    -5235741.354 7  -4020275.584 6
  20646923.469      -87655.160 7    -56156.440 6
  22951270.000    -5620794.215 6  -4262656.889 5
 92  6 11  5  7  0.0000000  0  5G17G 3G21G23G28
  20989622.3984    1548119.82747   1201775.65846
  21827039.875     5150619.520 6   3995685.784 5
  21839112.203    -5263875.179 7  -4042198.021 6
  20648124.8524     -81345.93947    -51240.14846
  22942863.578    -5664972.496 6  -4297081.509 5
 92  6 11  5  7 15.0000000  0  5G17G 3G21G23G28
  20992264.2814    1562013.44147   1212601.84246
  21835055.625     5192739.867 6   4028506.810 5
  21833772.820    -5291934.325 7  -4064062.273 6
  20649341.0554     -74953.71447    -46259.19246
  22934467.852    -5709082.342 6  -4331452.805 5
 92  6 11  5  7 30.0000000  0  5G17G 3G21G23G28
  20994921.3674    1575962.24247   1223471.04146
  21843092.523     5234973.899 6   4061416.429 5
  21828442.9224   -5319921.32746  -4085870.31446
  20650570.7424     -68482.50647    -41216.67746
  22926089.5234   -5753121.38946  -4365768.89945
 92  6 11  5  7 45.0000000  0  5G17G 3G21G23G28
  20997582.7814    1589967.95947   1234384.57746
  21851151.2424    5277323.01946   4094415.71945
  21823134.7504   -5347834.85347  -4107621.09446
  20651821.6804     -61931.74147    -36112.17646
  22917724.2584   -5797086.97546  -4400027.76845
 92  6 11  5  8  0.0000000  0  5G17G 3G21G23G28
  21000258.2034    1604029.31347   1245341.46946
  21859230.781     5319784.229 6   4127502.354 5
  21817838.055    -5375680.300 7  -4129318.820 6
  20653082.8364     -55305.67747    -30949.00346
  22909365.8054   -5840982.12046  -4434231.74345
 92  6 11  5  8 15.0000000  0  5G17G 3G21G23G28
  21002950.4844    1618149.79847   1256344.44546
  21867332.141     5362359.423 6   4160677.809 5
  21812550.367    -5403457.079 7  -4150963.049 6
  20654357.3524     -48602.98947    -25726.12146
  22901028.0864   -5884801.62046  -4468376.76845
 92  6 11  5  8 30.0000000  0  5G17G 3G21G23G28
  21005646.3754    1632328.28547   1267392.60846
  21875458.8594    5405048.18746   4193941.75545
  21807277.023    -5431169.198 7  -4172556.878 6
  20655643.2274     -41826.95047    -20446.08946
  22892706.813    -5928542.354 6  -4502460.448 5
 92  6 11  5  8 45.0000000  0  5G17G 3G21G23G28
  21008353.3364    1646566.97447   1278487.68646
  21883601.406     5447849.085 6   4227293.072 5
  21802015.180    -5458816.555 7  -4194100.250 6
  20656946.4534     -34979.07847    -15110.07846
  22884398.5944   -5972201.80946  -4536480.78545
 92  6 11  5  9  0.0000000  0  5G17G 3G21G23G28
  21011073.828     1660866.820 7   1289630.411 6
  21891768.2734    5490763.42446   4260732.79445
  21796765.453    -5486397.399 7  -4215591.811 6
  20658267.430      -28054.946 7     -9714.645 6
  22876110.797    -6015778.663 6  -4570436.754 5
 92  6 11  5  9 15.0000000  0  5G17G 3G21G23G28
  21013805.2974    1675225.09147   1300818.67746
  21899955.859     5533790.176 6   4294260.115 5
  21791531.820    -5513914.254 7  -4237033.499 6
  20659600.7734     -21052.60347     -4258.26646
  22867828.008    -6059277.444 6  -4604331.882 5
 92  6 11  5  9 30.0000000  0  5G17G 3G21G23G28
  21016548.5944    1689641.34747   1312052.11546
  21908163.617     5576929.179 6   4327874.905 5
  21786303.7974   -5541369.03847  -4258426.82046
  20660946.5084     -13974.76648      1256.94146
  22859569.438    -6102699.391 6  -4638167.142 5
 92  6 11  5  9 45.0000000  0  5G17G 3G21G23G28
  21019309.1954    1704112.04347   1323327.98046
  21916395.180     5620179.300 6   4361576.272 5
  21781093.195    -5568761.824 7  -4279771.833 6
  20662304.9144      -6821.16347      6831.17446
  22851313.492    -6146047.478 6  -4671944.839 5
 92  6 11  5 10  0.0000000  0  5G17G 3G21G23G28
  21022070.6884    1718637.27847   1334646.34246
  21924647.406     5663542.079 6   4395365.431 5
  21775893.086    -5596090.127 7  -4301066.586 6
  20663684.0394        414.83147     12469.61046
  22843081.7194   -6189320.29446  -4705663.89045
 92  6 11  5 10 15.0000000  0  5G17G 3G21G23G28
  21024841.8984    1733214.71247   1346005.37946
  21932919.719     5707015.970 6   4429241.172 5
  21770704.3204   -5623351.87247  -4322309.47646
  20665076.8364       7733.03847     18172.11946
  22834865.7424   -6232516.95246  -4739323.58245
 92  6 11  5 10 30.0000000  0  5G17G 3G21G23G28
  21027627.9064    1747843.84947   1357404.69746
  21941215.5554    5750601.92346   4463204.22445
  21765530.813    -5650543.469 7  -4343497.717 6
  20666484.1094      15135.40647     23940.19946
  22826656.1724   -6275637.07546  -4772923.63345
 92  6 11  5 10 45.0000000  0  5G17G 3G21G23G28
  21030418.9924    1762526.72647   1368845.89546
  21949531.4224    5794300.62346   4497255.13745
  21760370.125    -5677661.782 7  -4364628.855 6
  20667910.6804      22623.98048     29775.45646
  22818468.141    -6318680.253 6  -4806463.752 5
 92  6 11  5 11  0.0000000  0  5G17G 3G21G23G28
  21033225.7114    1777262.89647   1380328.61546
  21957866.195     5838109.108 6   4531391.594 5
  21755225.0084   -5704709.07947  -4385704.64146
  20669352.4534      30196.52047     35676.13146
  22810289.0234   -6361652.14146  -4839948.30545
 92  6 11  5 11 15.0000000  0  5G17G 3G21G23G28
  21036042.7974    1792051.90447   1391852.51146
  21966221.898     5882028.697 6   4565614.631 5
  21750089.8914   -5731684.29147  -4406724.26846
  20670806.1174      37853.22947     41642.40246
  22802127.539    -6404552.428 6  -4873377.083 5
 92  6 11  5 11 30.0000000  0  5G17G 3G21G23G28
  21038864.2194    1806897.36047   1403420.39846
  21974603.734     5926059.329 6   4599924.198 5
  21744969.219    -5758586.378 6  -4427686.931 6
  20672280.7274      45591.77747     47672.44846
  22793973.055    -6447378.334 6  -4906747.903 5
 92  6 11  5 11 45.0000000  0  5G17G 3G21G23G28
  21041698.7504    1821803.37947   1415035.47146
  21982999.8134    5970202.23646   4634321.24045
  21739865.1724   -5785413.15947  -4448590.88046
  20673769.2894      53411.78047     53765.95646
  22785840.109    -6490126.444 6  -4940058.101 5
 92  6 11  5 12  0.0000000  0  5G17G 3G21G23G28
  21044548.5704    1836769.72947   1426697.55346
  21991425.328     6014456.007 6   4668804.671 5
  21734775.352    -5812163.687 7  -4469435.434 6
  20675272.7584      61310.93447     59921.14146
  22777723.1564   -6532795.37046  -4973306.58645
 92  6 11  5 12 15.0000000  0  5G17G 3G21G23G28
  21047407.7504    1851797.27547   1438407.31946
  21999867.2504    6058821.85446   4703375.43245
  21729697.3054   -5838836.93346  -4490219.76746
  20676793.9224      69288.13547     66137.14446
  22769617.3754   -6575379.93946  -5006489.33745
 92  6 11  5 12 30.0000000  0  5G17G 3G21G23G28
  21050282.7504    1866884.69047   1450163.74946
  22008328.984     6103296.681 6   4738031.118 5
  21724636.383    -5865437.390 7  -4510947.379 6
  20678320.6254      77337.51347     72409.38246
  22761530.430    -6617882.898 6  -5039608.495 5
 92  6 11  5 12 45.0000000  0  5G17G 3G21G23G28
  21053162.9454    1882032.22947   1461967.02146
  22016816.6414    6147880.83246   4772771.99045
  21719590.531    -5891969.349 6  -4531621.608 6
  20679871.9534      85459.10147     78737.89246
  22753456.9384   -6660304.26346  -5072664.08745
 92  6 11  5 13  0.0000000  0  5G17G 3G21G23G28
  21056055.047     1897240.931 7   1473817.939 6
  22025318.6804    6192576.22146   4807599.53345
  21714551.7664   -5918434.97646  -4552244.16846
  20681427.5084      93653.60348     85123.22746
  22745401.9144   -6702640.94646  -5105653.67745
 92  6 11  5 13 15.0000000  0  5G17G 3G21G23G28
  21058958.3594    1912506.08047   1485712.86646
  22033843.6414    6237381.20646   4842512.48245
  21709528.078    -5944834.334 6  -4572815.079 6
  20683002.9384     101919.05747     91563.83646
  22737361.758    -6744893.385 6  -5138577.620 5
 92  6 11  5 13 30.0000000  0  5G17G 3G21G23G28
  21061874.6804    1927828.23247   1497652.19846
  22042388.461     6282297.427 6   4877512.125 5
  21704517.0944   -5971165.36646  -4593332.73346
  20684587.4454     110256.27947     98060.37846
  22729336.031    -6787056.888 6  -5171432.273 5
 92  6 11  5 13 45.0000000  0  5G17G 3G21G23G28
  21064801.6804    1943207.14247   1509635.76546
  22050958.945     6327324.060 6   4912597.785 5
  21699520.953    -5997427.840 6  -4613796.975 6
  20686186.8754     118662.57547    104610.74146
  22721328.6174   -6829129.97146  -5204216.48145
 92  6 11  5 14  0.0000000  0  5G17G 3G21G23G28
  21067739.5864    1958638.46247   1521660.16146
  22059547.4224    6372459.55246   4947768.27645
  21694535.375    -6023621.610 6  -4634207.697 6
  20687800.6724     127138.16447    111215.09746
  22713343.250    -6871110.874 6  -5236928.855 5
 92  6 11  5 14 15.0000000  0  5G17G 3G21G23G28
  21070686.977     1974119.928 7   1533723.631 6
  22068160.313     6417703.099 6   4983022.965 5
  21689565.148    -6049747.264 6  -4654565.318 6
  20689424.7194     135684.98347    117874.95746
  22705371.5554   -6912999.25646  -5269569.12545
 92  6 11  5 14 30.0000000  0  5G17G 3G21G23G28
  21073645.4224    1989656.18447   1545829.80946
  22076791.6174    6463056.39646   5018363.16245
  21684606.484    -6075805.703 6  -4674870.580 6
  20691065.6564     144308.03947    124594.22246
  22697418.039    -6954796.535 6  -5302138.408 5
 92  6 11  5 14 45.0000000  0  5G17G 3G21G23G28
  21076605.9844    2005248.00847   1557979.27046
  22085440.578     6508517.855 6   5053787.658 5
  21679658.797    -6101797.728 6  -4695124.086 6
  20692722.9064     153006.91547    131372.57546
  22689482.3834   -6996506.84646  -5334639.91945
 92  6 11  5 15  0.0000000  0  5G17G 3G21G23G28
  21079590.5164    2020898.51847   1570174.47846
  22094110.7034    6554088.85646   5089297.49945
  21674728.008    -6127718.950 6  -4715322.421 6
  20694391.5314     161783.63647    138211.58046
  22681560.6954   -7038128.34146  -5367072.21545
 92  6 11  5 15 15.0000000  0  5G17G 3G21G23G28
  21082578.1334    2036607.97147   1582415.60846
  22102807.5234    6599767.25046   5124891.02645
  21669810.984    -6153565.511 6  -4735462.579 6
  20696079.5784     170635.05947    145108.79846
  22673653.3204   -7079662.19146  -5399436.22345
 92  6 11  5 15 30.0000000  0  5G17G 3G21G23G28
  21085580.3364    2052377.80647   1594703.77846
  22111517.2974    6645552.63046   5160567.91245
  21664903.492    -6179336.885 7  -4755544.152 6
  20697773.0474     179560.76547    152063.88446
  22665766.5704   -7121108.62046  -5431732.12045
 92  6 11  5 15 45.0000000  0  5G17G 3G21G23G28
  21088589.2664    2068212.77447   1607042.71446
  22120250.4924    6691445.73646   5196328.74045
  21660013.344    -6205033.174 7  -4775567.220 6
  20699489.8984     188562.12647    159077.94646
  22657901.133    -7162465.280 6  -5463958.073 5
 92  6 11  5 16  0.0000000  0  5G17G 3G21G23G28
  21091618.1804    2084111.04947   1619430.98446
  22129002.9224    6737446.42546   5232173.40145
  21655138.391    -6230652.982 6  -4795530.686 6
  20701215.1954     197641.11047    166152.47046
  22650043.633    -7203732.205 6  -5496114.105 5
 92  6 11  5 16 15.0000000  0  5G17G 3G21G23G28
  21094654.6334    2100072.84247   1631868.73446
  22137780.133     6783555.466 6   5268102.506 5
  21650278.648    -6256198.190 6  -4815436.039 6
  20702958.4144     206801.21547    173290.21246
  22642205.5004   -7244912.86346  -5528202.90345
 92  6 11  5 16 30.0000000  0  5G17G 3G21G23G28
  21097702.3444    2116098.92347   1644356.58346
  22146574.1024    6829771.35546   5304114.86545
  21645433.055    -6281672.463 7  -4835286.093 6
  20704716.4064     216039.87147    180489.16946
  22634391.5864   -7286013.75446  -5560229.53945
 92  6 11  5 16 45.0000000  0  5G17G 3G21G23G28
  21100765.5314    2132190.53147   1656895.50046
  22155389.5704    6876095.58646   5340211.63245
  21640596.523    -6307072.684 6  -4855078.461 6
  20706488.2974     225354.36547    187747.21946
  22626582.2814   -7327032.03846  -5592191.80045
 92  6 11  5 17  0.0000000  0  5G17G 3G21G23G28
  21103837.5474    2148343.55347   1669482.26746
  22164223.875     6922527.304 6   5376392.165 5
  21635776.313    -6332396.237 6  -4874811.082 6
  20708276.8674     234742.55747    195062.69346
  22618794.2974   -7367964.89846  -5624087.50945
 92  6 11  5 17 15.0000000  0  5G17G 3G21G23G28
  21106928.0394    2164555.67047   1682115.09046
  22173079.8594    6969066.92246   5412656.77445
  21630971.750    -6357644.543 6  -4894485.063 6
  20710075.4224     244203.49247    202434.84346
  22611024.9454   -7408808.51846  -5655913.66545
 92  6 11  5 17 30.0000000  0  5G17G 3G21G23G28
  21110018.0944    2180822.43147   1694790.48846
  22181956.563     7015711.611 6   5449003.261 5
  21626182.570    -6382822.349 6  -4914104.120 6
  20711889.1414     253736.07047    209862.82046
  22603262.703    -7449565.415 6  -5687672.288 5
 92  6 11  5 17 45.0000000  0  5G17G 3G21G23G28
  21113121.2114    2197141.50147   1707506.64746
  22190851.8364    7062460.61546   5485431.03545
  21621402.125    -6407932.224 6  -4933670.228 6
  20713718.0394     263340.52347    217346.81446
  22595525.703    -7490235.479 6  -5719363.220 5
 92  6 11  5 18  0.0000000  0  5G17G 3G21G23G28
  21116244.5394    2213514.18847   1720264.58846
  22199771.3444    7109317.28246   5521942.69545
  21616638.945    -6432971.153 6  -4953181.056 6
  20715558.9224     273021.61647    224890.52646
  22587805.266    -7530815.588 6  -5750984.067 5
 92  6 11  5 18 15.0000000  0  5G17G 3G21G23G28
  21119364.9614    2229936.97347   1733061.56346
  22208704.5944    7156278.73946   5558536.00545
  21611885.945    -6457943.185 6  -4972639.768 6
  20717416.7194     282776.77547    232491.95546
  22580099.391    -7571311.733 6  -5782539.484 5
 92  6 11  5 18 30.0000000  0  5G17G 3G21G23G28
  21122498.7344    2246412.97747   1745900.00546
  22217660.797     7203344.997 6   5595210.992 5
  21607150.250    -6482847.935 6  -4992046.044 6
  20719286.9844     292605.80947    240150.94246
  22572409.0864   -7611722.49246  -5814028.34845
 92  6 11  5 18 45.0000000  0  5G17G 3G21G23G28
  21125649.5944    2262942.57947   1758780.22146
  22226638.4534    7250516.48146   5631967.96345
  21602420.727    -6507683.131 6  -5011398.124 6
  20721169.1644     302508.30447    247867.16746
  22564736.641    -7652040.574 6  -5845445.015 5
 92  6 11  5 19  0.0000000  0  5G17G 3G21G23G28
  21128803.6094    2279522.95047   1771699.99546
  22235635.2974    7297790.81046   5668805.07245
  21597708.219    -6532450.118 7  -5030697.057 6
  20723068.6334     312484.10047    255640.52246
  22557078.719    -7692265.908 6  -5876789.408 5
 92  6 11  5 19 15.0000000  0  5G17G 3G21G23G28
  21131965.6724    2296158.25847   1784662.55946
  22244654.6414    7345171.36846   5705724.96045
  21593005.430    -6557147.296 6  -5049941.590 6
  20724983.2344     322539.90247    263476.20846
  22549440.180    -7732395.414 6  -5908059.127 5
 92  6 11  5 19 30.0000000  0  5G17G 3G21G23G28
  21135142.0704    2312848.97247   1797668.31346
  22253688.6334    7392656.37646   5742726.23145
  21588322.4224   -6581776.93446  -5069133.50246
  20726911.6254     332674.40047    271373.22746
  22541823.4144   -7772432.62646  -5939256.92345
 92  6 11  5 19 45.0000000  0  5G17G 3G21G23G28
  21138334.6804    2329598.86747   1810720.18146
  22262742.367     7440247.483 6   5779810.186 5
  21583651.0164   -6606336.08146  -5088270.48146
  20728854.6484     342891.21747    279334.38346
  22534222.656    -7812376.240 6  -5970381.794 5
 92  6 11  5 20  0.0000000  0  5G17G 3G21G23G28
  21141529.3284    2346409.42847   1823819.32446
  22271817.570     7487944.452 6   5816976.630 5
  21578986.438    -6630825.224 6  -5107352.909 6
  20730816.8834     353189.44547    287358.97946
  22526641.109    -7852226.117 6  -6001433.627 5
 92  6 11  5 20 15.0000000  0  5G17G 3G21G23G28
  21144737.8984    2363280.79547   1836965.83946
  22280918.406     7535745.167 6   5854223.923 5
  21574342.938    -6655245.976 7  -5126382.057 6
  20732792.4844     363565.24847    295444.02046
  22519075.492    -7891986.293 6  -6032415.568 5
 92  6 11  5 20 30.0000000  0  5G17G 3G21G23G28
  21147959.1804    2380213.24547   1850159.95346
  22290033.3524    7583648.68246   5891551.30045
  21569708.469    -6679596.132 7  -5145356.177 6
  20734779.3204     374016.54747    303587.89546
  22511522.7504   -7931655.57946  -6063326.67045
 92  6 11  5 20 45.0000000  0  5G17G 3G21G23G28
  21151200.0394    2397201.98847   1863397.93146
  22299165.531     7631651.748 6   5928956.264 5
  21565086.945    -6703877.769 6  -5164276.917 6
  20736780.1564     384538.73747    311787.00446
  22503991.141    -7971234.415 6  -6094167.300 5
 92  6 11  5 21  0.0000000  0  5G17G 3G21G23G28
  21154443.7584    2414249.86247   1876681.99246
  22308324.8364    7679756.27846   5966440.28745
  21560478.156    -6728088.025 6  -5183142.033 6
  20738795.734      395131.931 7    320041.457 6
  22496477.750    -8010722.254 6  -6124937.020 5
 92  6 11  5 21 15.0000000  0  5G17G 3G21G23G28
  21157690.8834    2431357.28547   1890012.44746
  22317494.680     7727962.745 6   6004003.738 5
  21555886.039    -6752225.053 7  -5201950.089 6
  20740826.8364     405796.75747    328351.71646
  22488983.961    -8050121.885 6  -6155638.013 5
 92  6 11  5 21 30.0000000  0  5G17G 3G21G23G28
  21160962.2424    2448524.10847   1903389.19946
  22326685.906     7776269.755 6   6041645.546 5
  21551308.555    -6776290.506 7  -5220702.368 6
  20742868.2814     416526.77047    336712.77046
  22481502.742    -8089433.158 6  -6186270.154 5
 92  6 11  5 21 45.0000000  0  5G17G 3G21G23G28
  21164238.7034    2465753.48647   1916814.69146
  22335899.172     7824679.890 6   6079367.704 5
  21546741.016    -6800280.480 7  -5239395.844 6
  20744926.4534     427325.23347    345127.16046
  22474039.727    -8128651.739 6  -6216830.064 5
 92  6 11  5 22  0.0000000  0  5G17G 3G21G23G28
  21167527.008     2483044.574 7   1930288.258 6
  22345130.578     7873191.772 6   6117169.152 5
  21542192.367    -6824194.659 7  -5258030.242 6
  20746990.1884     438189.08847    353592.50746
  22466594.461    -8167777.699 6  -6247317.798 5
 92  6 11  5 22 15.0000000  0  5G17G 3G21G23G28
  21170834.9774    2500396.85747   1943809.51546
  22354379.578     7921805.994 6   6155050.332 5
  21537657.094    -6848031.087 7  -5276604.065 6
  20749067.1174     449116.81447    362107.61846
  22459164.234    -8206809.943 6  -6277732.518 5
 92  6 11  5 22 30.0000000  0  5G17G 3G21G23G28
  21174145.9924    2517810.45347   1957378.55046
  22363650.289     7970522.738 6   6193011.413 5
  21533134.078    -6871788.490 6  -5295116.312 6
  20751159.8754     460110.42247    370674.07646
  22451756.9224   -8245747.68546  -6308073.59145
 92  6 11  5 22 45.0000000  0  5G17G 3G21G23G28
  21177469.7814    2535284.60647   1970994.76546
  22372938.898     8019340.627 6   6231051.310 5
  21528628.8754   -6895469.04647  -5313568.68746
  20753263.8984     471169.43647    379291.48746
  22444363.555    -8284589.849 6  -6338340.192 5
 92  6 11  5 23  0.0000000  0  5G17G 3G21G23G28
  21180807.6174    2552821.07247   1984659.55646
  22382251.773     8068259.963 6   6269170.265 5
  21524133.844    -6919075.148 7  -5331963.030 6
  20755384.7034     482293.74047    387959.78646
  22436990.039    -8323335.845 6  -6368531.848 5
 92  6 11  5 23 15.0000000  0  5G17G 3G21G23G28
  21184160.4774    2570419.74347   1998372.80646
  22391578.547     8117278.913 6   6307366.821 5
  21519660.0634   -6942608.41747  -5350300.63446
  20757512.9694     493483.66347    396679.20846
  22429636.742    -8361986.175 6  -6398648.961 5
 92  6 11  5 23 30.0000000  0  5G17G 3G21G23G28
  21187519.6644    2588080.78747   2012134.65346
  22400927.5234    8166399.11746   6345642.26445
  21515193.6174   -6966070.72147  -5368582.93746
  20759655.8444     504741.19347    405451.30546
  22422301.6644   -8400537.51746  -6428688.95145
 92  6 11  5 23 45.0000000  0  5G17G 3G21G23G28
  21190893.6484    2605805.35047   2025945.99646
  22410291.4304    8215619.93446   6383996.11945
  21510741.8054   -6989464.06047  -5386811.50446
  20761810.5394     516067.96447    414277.36346
  22414983.070    -8438988.415 6  -6458650.662 5
 92  6 11  5 24  0.0000000  0  5G17G 3G21G23G28
  21194277.0784    2623591.80347   2039805.56946
  22419678.734     8264942.431 6   6422429.211 5
  21506303.484    -7012788.229 7  -5404986.172 6
  20763979.6414     527467.81347    423160.36546
  22407685.859    -8477339.980 6  -6488534.973 5
 92  6 11  5 24 15.0000000  0  5G17G 3G21G23G28
  21197672.1954    2641440.12347   2053713.35546
  22429082.7734    8314364.93046   6460940.21745
  21501878.977    -7036046.055 7  -5423109.140 6
  20766162.8984     538939.68947    432099.49446
  22400407.375    -8515594.044 6  -6518343.310 5
 92  6 11  5 24 30.0000000  0  5G17G 3G21G23G28
  21201078.5784    2659350.04247   2067669.13346
  22438508.414     8363886.624 6   6499528.529 5
  21497465.758    -7059241.524 7  -5441183.509 6
  20768360.4454     550484.52447    441095.46746
  22393148.5784   -8553750.16046  -6548075.32545
 92  6 11  5 24 45.0000000  0  5G17G 3G21G23G28
  21204498.3834    2677321.12047   2081672.58546
  22447949.133     8413507.714 6   6538194.297 5
  21493062.469    -7082373.010 7  -5459208.034 6
  20770573.016      562104.719 7    450150.180 6
  22385902.680    -8591805.572 6  -6577728.873 5
 92  6 11  5 25  0.0000000  0  5G17G 3G21G23G28
  21207931.9844    2695350.59347   2095721.51546
  22457408.2974    8463226.53546   6576936.19845
  21488672.445    -7105441.526 7  -5477183.482 6
  20772797.4304     573796.55247    459260.71146
  22378680.492    -8629760.648 6  -6607304.232 5
 92  6 11  5 25 15.0000000  0  5G17G 3G21G23G28
  21211370.6094    2713438.26447   2109815.79046
  22466890.742     8513043.582 6   6615754.646 5
  21484293.781    -7128445.926 7  -5495108.969 6
  20775033.914      585562.201 7    468428.759 6
  22371476.5314   -8667614.73246  -6636800.89345
 92  6 11  5 25 30.0000000  0  5G17G 3G21G23G28
  21214828.1724    2731582.57347   2123954.21646
  22476387.3204    8562958.61846   6654649.45545
  21479930.328    -7151384.438 7  -5512983.116 6
  20777287.0084     597402.52847    477654.99446
  22364292.578    -8705368.205 6  -6666219.156 5
 92  6 11  5 25 45.0000000  0  5G17G 3G21G23G28
  21218290.0084    2749785.27147   2138138.13346
  22485907.0554    8612972.86146   6693621.56845
  21475575.6484   -7174253.40047  -5530803.05646
  20779554.7034     609319.02447    486940.58346
  22357132.359    -8743019.149 6  -6695557.531 5
 92  6 11  5 26  0.0000000  0  5G17G 3G21G23G28
  21221768.0784    2768045.30547   2152366.72546
  22495446.2344    8663085.96946   6732670.71245
  21471239.039    -7197047.680 7  -5548564.802 6
  20781835.7114     621312.06947    496285.82246
  22349983.133    -8780567.394 6  -6724815.868 5
 92  6 11  5 26 15.0000000  0  5G17G 3G21G23G28
  21225251.5474    2786362.49647   2166639.86046
  22504994.3524    8713295.97046   6771795.35645
  21466916.148    -7219767.270 7  -5566268.362 6
  20784132.3594     633378.72147    505688.41046
  22342852.641    -8818014.843 6  -6753995.676 5
 92  6 11  5 26 30.0000000  0  5G17G 3G21G23G28
  21228746.8364    2804738.20747   2180958.60146
  22514569.2274    8763603.52446   6810996.02045
  21462605.898    -7242409.661 7  -5583911.766 6
  20786443.3524     645517.52347    515147.22546
  22335754.141    -8855357.980 6  -6783094.213 5
 92  6 11  5 26 45.0000000  0  5G17G 3G21G23G28
  21232256.4614    2823170.80447   2195321.66046
  22524163.508     8814008.019 6   6850272.226 5
  21458313.3284   -7264973.44547  -5601493.90546
  20788762.2424     657727.32147    524661.35446
  22328663.1564   -8892596.81946  -6812111.45345
 92  6 11  5 27  0.0000000  0  5G17G 3G21G23G28
  21235774.7274    2841662.17347   2209730.52946
  22533773.844     8864511.041 6   6889625.208 5
  21454036.0084   -7287454.48447  -5619011.56646
  20791100.3524     670008.77947    534231.33546
  22321596.8984   -8929730.89946  -6841047.07545
 92  6 11  5 27 15.0000000  0  5G17G 3G21G23G28
  21239306.2814    2860213.06847   2224185.76346
  22543399.414     8915111.564 6   6929054.161 5
  21449772.109    -7309856.793 7  -5636467.894 6
  20793450.2584     682359.37147    543855.17746
  22314551.1644   -8966763.39746  -6869903.53645
 92  6 11  5 27 30.0000000  0  5G17G 3G21G23G28
  21242846.9384    2878822.16647   2238686.35446
  22553050.5634    8965808.91046   6968558.56845
  21445523.9454   -7332179.95747  -5653862.54946
  20795815.2504     694778.76647    553532.63246
  22307526.609    -9003694.355 6  -6898680.894 5
 92  6 11  5 27 45.0000000  0  5G17G 3G21G23G28
  21246396.9694    2897489.68247   2253232.47146
  22562715.211     9016602.848 6   7008138.212 5
  21441290.4384   -7354424.00347  -5671195.57346
  20798191.563      707266.099 7    563263.035 6
  22300517.789    -9040523.292 6  -6927378.757 5
 92  6 11  5 28  0.0000000  0  5G17G 3G21G23G28
  21249961.8674    2916215.85747   2267824.29246
  22572397.3444    9067492.59846   7047792.53545
  21437074.102    -7376589.537 7  -5688467.406 6
  20800583.2194     719820.65447    573045.81046
  22293525.867    -9077249.630 6  -6955996.668 5
 92  6 11  5 28 15.0000000  0  5G17G 3G21G23G28
  21253535.3134    2934999.87347   2282461.18746
  22582103.5784    9118477.35146   7087520.88745
  21432870.023    -7398681.787 7  -5705682.129 6
  20802982.2894     732441.92847    582880.56246
  22286553.516    -9113876.050 6  -6984536.717 5
 92  6 11  5 28 30.0000000  0  5G17G 3G21G23G28
  21257119.4774    2953843.63547   2297144.63146
  22591825.1804    9169558.84746   7127324.61245
  21428679.781    -7420702.564 7  -5722841.149 6
  20805396.3984     745130.02047    592767.39046
  22279604.0554   -9150398.32546  -7012995.60045
 92  6 11  5 28 45.0000000  0  5G17G 3G21G23G28
  21260718.7424    2972744.74047   2311872.77146
  22601560.547     9220735.828 6   7167202.767 5
  21424501.422    -7442655.042 7  -5739946.966 6
  20807827.2974     757884.78747    602706.17546
  22272676.250    -9186815.884 6  -7041372.901 5
 92  6 11  5 29  0.0000000  0  5G17G 3G21G23G28
  21264327.0784    2991702.23747   2326644.84646
  22611319.6724    9272008.20546   7207155.24245
  21420336.516    -7464538.477 7  -5756998.972 6
  20810264.1414     770707.36047    612697.80146
  22265765.383    -9223129.184 6  -7069668.949 5
 92  6 11  5 29 15.0000000  0  5G17G 3G21G23G28
  21267945.7344    3010715.89847   2341460.68646
  22621091.6954    9323374.87546   7247181.17745
  21416186.586    -7486356.249 7  -5773999.819 6
  20812718.9304     783596.23547    622741.08546
  22258875.695    -9259338.988 6  -7097884.360 5
 92  6 11  5 29 30.0000000  0  5G17G 3G21G23G28
  21271575.5864    3029785.14047   2356319.83846
  22630884.641     9374835.531 6   7287280.364 5
  21412045.570    -7508109.712 7  -5790950.549 6
  20815181.3134     796551.79247    632836.32946
  22252008.9614   -9295441.72147  -7126016.33645
 92  6 11  5 29 45.0000000  0  5G17G 3G21G23G28
  21275212.7194    3048909.16047   2371221.67346
  22640691.625     9426390.271 6   7327452.865 5
  21407919.422    -7529795.598 7  -5807848.634 6
  20817662.3054     809575.57847    642984.74446
  22245155.6804   -9331435.45746  -7154063.39445
 92  6 11  5 30  0.0000000  0  5G17G 3G21G23G28
  21278859.6094    3068094.31747   2386171.14246
  22650519.188     9478041.142 6   7367700.286 5
  21403805.7274   -7551412.58147  -5824693.01846
  20820151.4614     822669.44747    653187.76746
  22238324.891    -9367317.746 6  -7182023.599 5
 92  6 11  5 30 15.0000000  0  5G17G 3G21G23G28
  21282523.8054    3087340.32847   2401168.03446
  22660370.305     9529785.905 6   7408020.853 5
  21399703.4064   -7572962.72447  -5841485.33246
  20822655.9454     835829.10647    663442.03846
  22231519.3054   -9403090.51646  -7209898.45245
 92  6 11  5 30 30.0000000  0  5G17G 3G21G23G28
  21286198.7034    3106647.87547   2416212.88046
  22670236.7194    9581624.50546   7448414.54645
  21395618.047    -7594446.038 7  -5858225.557 6
  20825174.8524     849051.94347    673745.56246
  22224733.609    -9438751.248 6  -7237686.012 5
 92  6 11  5 30 45.0000000  0  5G17G 3G21G23G28
  21289884.0784    3126016.00447   2431304.92546
  22680118.2194    9633555.51746   7488880.24245
  21391543.2504   -7615861.17947  -5874912.66746
  20827700.5474     862335.29447    684096.22846
  22217969.273    -9474300.338 6  -7265386.580 5
 92  6 11  5 31  0.0000000  0  5G17G 3G21G23G28
  21293583.2894    3145448.13847   2446446.84946
  22690012.6884    9685580.58846   7529419.23745
  21387480.398    -7637204.070 7  -5891543.472 6
  20830241.4304     875682.05347    694496.30146
  22211228.8054   -9509738.05046  -7293000.35545
 92  6 11  5 31 15.0000000  0  5G17G 3G21G23G28
  21297293.5474    3164943.74047   2461638.23346
  22699931.789     9737697.785 6   7570030.019 5
  21383435.3054   -7658475.44347  -5908118.56746
  20832794.1804     889089.32747    704943.52046
  22204503.203    -9545066.820 6  -7320529.252 6
 92  6 11  5 31 30.0000000  0  5G17G 3G21G23G28
  21301012.9454    3184506.30047   2476881.78146
  22709869.016     9789908.400 6   7610713.591 5
  21379399.867    -7679673.209 7  -5924636.283 6
  20835355.6174     902560.80047    715440.76446
  22197801.914    -9580283.598 6  -7347970.869 5
 92  6 11  5 31 45.0000000  0  5G17G 3G21G23G28
  21304748.9454    3204133.04447   2492175.35246
  22719820.445     9842210.906 6   7651468.770 5
  21375381.4844   -7700794.97847  -5941094.79946
  20837930.4304     916094.37247    725986.40846
  22191118.867    -9615387.716 6  -7375324.713 5
 92  6 11  5 32  0.0000000  0  5G17G 3G21G23G28
  21308492.9694    3223826.95047   2507521.25446
  22729794.258     9894606.288 6   7692296.305 5
  21371374.8754   -7721839.73447  -5957493.31946
  20840518.6724     929690.42347    736580.73946
  22184462.6174   -9650380.29646  -7402591.63745
 92  6 11  5 32 15.0000000  0  5G17G 3G21G23G28
  21312256.3204    3243586.82947   2522918.56646
  22739782.3364    9947092.95646   7733194.98245
  21367383.8204   -7742811.93547  -5973835.28446
  20843120.992      943347.551 7    747222.667 6
  22177821.148    -9685262.658 6  -7429772.670 5
 92  6 11  5 32 30.0000000  0  5G17G 3G21G23G28
  21316028.5164    3263407.91647   2538363.56746
  22749784.4614    9999669.84546   7774163.94845
  21363407.461    -7763713.254 7  -5990122.001 6
  20845733.8364     957067.52547    757913.56446
  22171207.750    -9720035.133 6  -7456868.082 5
 92  6 11  5 32 45.0000000  0  5G17G 3G21G23G28
  21319809.3134    3283290.41747   2553856.42746
  22759809.633    10052336.743 6   7815203.069 5
  21359440.508    -7784543.864 7  -6006353.623 6
  20848355.7274     970854.41947    768656.59646
  22164612.234    -9754696.976 6  -7483877.297 5
 92  6 11  5 33  0.0000000  0  5G17G 3G21G23G28
  21323606.2974    3303236.18047   2569398.58246
  22769847.5634   10105096.96346   7856314.89545
  21355495.570    -7805299.784 7  -6022527.055 6
  20850993.1254     984714.82047    779456.90546
  22158037.5704   -9789247.27646  -7510799.58845
 92  6 11  5 33 15.0000000  0  5G17G 3G21G23G28
  21327412.8674    3323241.77047   2584987.35146
  22779902.734    10157946.684 6   7897496.482 5
  21351555.867    -7825983.704 7  -6038644.382 6
  20853644.2894     998646.14447    790312.49446
  22151480.766    -9823686.039 6  -7537634.968 5
 92  6 11  5 33 30.0000000  0  5G17G 3G21G23G28
  21331232.1884    3343307.32047   2600622.84946
  22789980.1884   10210886.15046   7938747.99445
  21347635.969    -7846594.435 7  -6054704.669 6
  20856306.3204    1012650.10447    801224.68146
  22144953.117    -9858010.393 6  -7564381.194 5
 92  6 11  5 33 45.0000000  0  5G17G 3G21G23G28
  21335064.9384    3363435.99347   2616307.53046
  22800073.4304   10263917.81946   7980071.33245
  21343727.320    -7867132.345 7  -6070708.212 6
  20858985.6094    1026728.54847    812194.90046
  22138440.672    -9892217.169 6  -7591035.807 5
 92  6 11  5 34  0.0000000  0  5G17G 3G21G23G28
  21338908.9144    3383626.09747   2632040.08346
  22810182.656    10317038.681 6   8021464.187 5
  21339830.1094   -7887601.26347  -6086658.00646
  20861677.4534    1040877.29947    823219.90646
  22131955.188    -9926312.598 6  -7617603.661 5
 92  6 11  5 34 15.0000000  0  5G17G 3G21G23G28
  21342762.0084    3403877.25447   2647820.20146
  22820305.5864   10370246.80946   8062925.04245
  21335946.5944   -7908007.05347  -6102558.61946
  20864380.8914    1055095.53847    834299.05546
  22125486.008    -9960299.335 6  -7644086.813 5
 92  6 11  5 34 30.0000000  0  5G17G 3G21G23G28
  21346626.5634    3424189.90647   2663648.24146
  22830446.0704   10423544.82946   8104455.92845
  21332077.2974   -7928345.09047  -6118406.42946
  20867099.2814    1069385.19047    845433.85446
  22119041.250    -9994174.805 6  -7670483.255 5
 92  6 11  5 34 45.0000000  0  5G17G 3G21G23G28
  21350504.9064    3444565.63347   2679525.43946
  22840607.203    10476932.785 6   8146056.920 5
  21328221.766    -7948611.849 7  -6134198.691 6
  20869832.2344    1083744.40047    856622.84046
  22112614.367   -10027936.331 6  -7696790.919 5
 92  6 11  5 35  0.0000000  0  5G17G 3G21G23G28
  21354393.8364    3465002.63447   2695450.37746
  22850782.648    10530408.362 6   8187726.187 5
  21324378.719    -7968807.120 7  -6149935.246 6
  20872578.5704    1098168.98347    867862.78346
  22106214.039   -10061585.877 6  -7723011.330 5
 92  6 11  5 35 15.0000000  0  5G17G 3G21G23G28
  21358292.2814    3485503.99747   2711425.46646
  22860974.1724   10583973.29246   8229465.05945
  21320548.023    -7988929.482 7  -6165614.999 6
  20875337.8914    1112657.33147    879152.41346
  22099832.1174  -10095120.94446  -7749142.53645
 92  6 11  5 35 30.0000000  0  5G17G 3G21G23G28
  21362202.9534    3506070.46647   2727451.28446
  22871186.5704   10637625.93246   8271272.28345
  21316734.570    -8008981.815 7  -6181240.163 6
  20878105.7424    1127205.75847    890488.84846
  22093470.313   -10128544.144 6  -7775186.570 5
 92  6 11  5 35 45.0000000  0  5G17G 3G21G23G28
  21366129.1564    3526702.37747   2743528.10546
  22881410.5864   10691366.24346   8313147.82745
  21312928.633    -8028966.812 7  -6196812.879 6
  20880887.6334    1141811.73747    901870.13546
  22087129.688   -10161857.469 6  -7801144.986 5
 92  6 11  5 36  0.0000000  0  5G17G 3G21G23G28
  21370068.9614    3547400.68247   2759656.64846
  22891653.625    10745196.020 6   8355093.089 5
  21309141.063    -8048881.860 7  -6212331.072 6
  20883676.8594    1156474.03747    913295.31746
  22080817.1884  -10195059.25747  -7827016.50145
 92  6 11  5 36 15.0000000  0  5G17G 3G21G23G28
  21374018.7114    3568164.89147   2775836.55346
  22901915.211    10799114.229 6   8397107.250 5
  21305364.398    -8068723.979 7  -6227792.442 6
  20886478.3674    1171192.57847    924764.30746
  22074514.742   -10228146.648 6  -7852798.865 6
 92  6 11  5 36 30.0000000  0  5G17G 3G21G23G28
  21377985.1414    3588993.11647   2792066.34646
  22912190.695    10853118.306 6   8439188.319 5
  21301599.742    -8088493.679 7  -6243197.387 6
  20889287.2194    1185966.66347    936276.58746
  22068243.836   -10261118.646 6  -7878491.311 5
 92  6 11  5 36 45.0000000  0  5G17G 3G21G23G28
  21381963.9064    3609888.53747   2808348.49246
  22922486.852    10907209.754 6   8481337.492 5
  21297854.953    -8108186.248 7  -6258542.230 6
  20892109.4454    1200797.20547    947832.85546
  22061988.961   -10293971.545 6  -7904090.951 5
 92  6 11  5 37  0.0000000  0  5G17G 3G21G23G28
  21385955.5314    3630848.72447   2824681.10246
  22932791.195    10961386.458 6   8523553.080 5
  21294120.195    -8127804.925 7  -6273829.492 6
  20894942.1024    1215683.81847    959432.81846
  22055761.8364  -10326706.56446  -7929598.75546
 92  6 11  5 37 15.0000000  0  5G17G 3G21G23G28
  21389955.7274    3651876.04747   2841066.02546
  22943122.797    11015649.957 6   8565836.301 5
  21290404.336    -8147350.077 7  -6289059.470 6
  20897786.3444    1230627.41747    971077.18146
  22049554.906   -10359325.049 6  -7955015.740 6
 92  6 11  5 37 30.0000000  0  5G17G 3G21G23G28
  21393968.2424    3672971.63547   2857504.14746
  22953462.352    11070001.345 6   8608188.001 5
  21286697.117    -8166819.732 7  -6304230.608 6
  20900639.8984    1245629.97647    982767.49146
  22043369.477   -10391825.502 6  -7980340.747 6
 92  6 11  5 37 45.0000000  0  5G17G 3G21G23G28
  21397994.8754    3694131.82847   2873992.60946
  22963822.711    11124438.494 6   8650606.529 5
  21283007.133    -8186213.215 7  -6319342.396 6
  20903505.3444    1260690.92947    994503.29946
  22037206.0394  -10424209.30446  -8005574.87946
 92  6 11  5 38  0.0000000  0  5G17G 3G21G23G28
  21402034.5554    3715355.33147   2890530.40246
  22974199.2664   11178960.93646   8693091.52645
  21279330.7814   -8205529.52647  -6334394.05546
  20906382.6484    1275811.26047   1006285.39546
  22031070.0394  -10456475.12946  -8030717.07046
 92  6 11  5 38 15.0000000  0  5G17G 3G21G23G28
  21406084.9924    3736641.73147   2907117.20946
  22984585.4064   11233567.33846   8735641.93545
  21275669.063    -8224768.385 7  -6349385.356 6
  20909271.094     1290993.200 7   1018115.482 6
  22024948.633   -10488623.489 6  -8055767.731 6
 92  6 11  5 38 30.0000000  0  5G17G 3G21G23G28
  21410147.1094    3757990.87547   2923752.91546
  22994998.8594   11288257.23346   8778257.42045
  21272025.8444   -8243931.61247  -6364317.72546
  20912173.195     1306238.142 7   1029994.673 6
  22018853.203   -10520656.240 6  -8080728.301 6
 92  6 11  5 38 45.0000000  0  5G17G 3G21G23G28
  21414220.6094    3779399.43647   2940434.90246
  23005418.6094   11343030.27946   8820937.69045
  21268390.7194   -8263020.66147  -6379192.30646
  20915083.680     1321542.513 7   1041920.174 6
  22012782.078   -10552577.120 6  -8105601.701 6
 92  6 11  5 39  0.0000000  0  5G17G 3G21G23G28
  21418305.3204    3800866.95447   2957162.84546
  23015854.9844   11397888.04645   8863683.97345
  21264775.5394   -8282034.27647  -6394008.09646
  20918012.1644    1336906.04847   1053891.77146
  22006728.2114  -10584385.80246  -8130387.67346
 92  6 11  5 39 15.0000000  0  5G17G 3G21G23G28
  21422402.9064    3822394.89347   2973937.86346
  23026312.3204   11452830.31545   8906496.11045
  21261167.4144   -8300972.47547  -6408765.12446
  20920944.266     1352330.321 7   1065910.695 6
  22000694.9064  -10616082.08347  -8155086.06846
 92  6 11  5 39 30.0000000  0  5G17G 3G21G23G28
  21426510.2034    3843983.53647   2990760.18546
  23036784.453    11507855.454 6   8949372.812 5
  21257577.000    -8319838.012 7  -6423465.523 6
  20923890.789     1367813.519 7   1077975.536 6
  21994684.9064  -10647664.78246  -8179695.95546
 92  6 11  5 39 45.0000000  0  5G17G 3G21G23G28
  21430629.8524    3865632.67347   3007629.63646
  23047276.117    11562963.411 6   8992314.057 5
  21254002.195    -8338631.049 7  -6438109.436 6
  20926847.3754    1383358.47547   1090088.49946
  21988697.813   -10679130.873 6  -8204214.964 6
 92  6 11  5 40  0.0000000  0  5G17G 3G21G23G28
  21434759.7194    3887342.96547   3024546.74746
  23057775.758    11618153.555 6   9035319.331 5
  21250440.336    -8357353.645 7  -6452698.454 6
  20929821.6644    1398966.89247   1102250.90446
  21982729.836   -10710477.375 6  -8228640.790 6
 92  6 11  5 40 15.0000000  0  5G17G 3G21G23G28
  21438901.0474    3909116.32747   3041513.00846
  23068295.9304   11673427.00646   9078389.53445
  21246891.461    -8376004.378 7  -6467231.475 6
  20932802.164     1414641.142 7   1114464.621 6
  21976788.5864  -10741701.05646  -8252970.92646
 92  6 11  5 40 30.0000000  0  5G17G 3G21G23G28
  21443055.9534    3930951.41747   3058527.35646
  23078827.9534   11728783.93846   9121524.76245
  21243353.9064   -8394582.87047  -6481708.22446
  20935798.7734    1430378.50747   1126727.50946
  21970873.4534  -10772800.16446  -8277203.98746
 92  6 11  5 40 45.0000000  0  5G17G 3G21G23G28
  21447225.0864    3952844.96747   3075587.27146
  23089375.7194   11784221.49246   9164722.81845
  21239833.688    -8413091.706 7  -6496130.660 6
  20938801.6414    1446173.60847   1139035.39046
  21964980.5944  -10803776.74947  -8301341.58046
 92  6 11  5 41  0.0000000  0  5G17G 3G21G23G28
  21451400.9614    3974802.64847   3092697.14146
  23099943.8674   11839741.23446   9207984.92045
  21236320.875    -8431528.910 7  -6510497.291 6
  20941822.8444    1462028.87247   1151390.14846
  21959106.898   -10834627.353 6  -8325380.998 6
 92  6 11  5 41 15.0000000  0  5G17G 3G21G23G28
  21455592.4064    3996828.23347   3109859.93946
  23110518.945    11895344.065 6   9251311.762 5
  21232829.492    -8449895.112 7  -6524808.588 6
  20944852.8134    1477949.53547   1163795.86946
  21953259.766   -10865347.619 6  -8349318.844 6
 92  6 11  5 41 30.0000000  0  5G17G 3G21G23G28
  21459796.0864    4018920.38447   3127074.60446
  23121116.8444   11951027.23246   9294701.21345
  21229348.023    -8468192.615 7  -6539066.364 6
  20947893.4304    1493933.55647   1176250.94646
  21947443.5084  -10895938.91647  -8373156.21946
 92  6 11  5 41 45.0000000  0  5G17G 3G21G23G28
  21464011.7734    4041079.78547   3144341.65746
  23131731.5234   12006794.11846   9338155.89345
  21225878.406    -8486417.039 7  -6553267.192 6
  20950947.1254    1509983.32247   1188757.26946
  21941646.6884  -10926398.39146  -8396890.87846
 92  6 11  5 42  0.0000000  0  5G17G 3G21G23G28
  21468241.1564    4063302.19947   3161657.82546
  23142353.7504   12062641.11246   9381672.99545
  21222425.141    -8504567.937 7  -6567410.734 6
  20954013.7034    1526096.15747   1201312.73646
  21935872.844   -10956731.077 6  -8420526.723 6
 92  6 11  5 42 15.0000000  0  5G17G 3G21G23G28
  21472480.2344    4085590.41247   3179025.26646
  23153001.016    12118569.245 6   9425253.327 5
  21218986.438    -8522646.411 7  -6581497.842 6
  20957090.9534    1542269.36547   1213915.25346
  21930123.633   -10986938.005 6  -8444064.565 6
 92  6 11  5 42 30.0000000  0  5G17G 3G21G23G28
  21476736.2504    4107943.89347   3196443.55246
  23163659.6414   12174576.11646   9468894.99845
  21215561.477    -8540654.389 7  -6595530.013 6
  20960180.7344    1558496.51147   1226559.78046
  21924399.6334  -11017022.89246  -8467507.32346
 92  6 11  5 42 45.0000000  0  5G17G 3G21G23G28
  21481003.2734    4130365.77147   3213915.15246
  23174330.094    12230662.667 5   9512598.771 5
  21212144.563    -8558592.551 7  -6609507.787 6
  20963278.6334    1574780.59447   1239248.68246
  21918694.7584  -11046986.00346  -8490855.20246
 92  6 11  5 43  0.0000000  0  5G17G 3G21G23G28
  21485286.0234    4152856.00747   3231440.00746
  23185018.4304   12286827.07246   9556363.19145
  21208744.7584   -8576462.59847  -6623432.49346
  20966388.906     1591124.813 7   1251984.447 6
  21913018.4144  -11076828.42846  -8514109.03146
 92  6 11  5 43 15.0000000  0  5G17G 3G21G23G28
  21489576.6884    4175416.34747   3249019.48346
  23195720.961    12343071.613 5   9600190.074 5
  21205358.141    -8594261.487 7  -6637301.741 6
  20969510.3524    1607534.57947   1264771.28746
  21907363.1564  -11106544.93347  -8537264.74746
 92  6 11  5 43 30.0000000  0  5G17G 3G21G23G28
  21493883.6804    4198040.90147   3266648.99846
  23206434.258    12399392.907 5   9644076.759 5
  21201986.391    -8611990.483 7  -6651116.535 6
  20972646.4144    1624006.19847   1277606.32046
  21901730.3594  -11136138.58347  -8560324.72746
 92  6 11  5 43 45.0000000  0  5G17G 3G21G23G28
  21498200.7034    4220731.36247   3284329.88046
  23217171.1414   12455792.69545   9688024.61245
  21198624.813    -8629648.828 7  -6664876.269 6
  20975792.7504    1640538.80047   1290488.87546
  21896123.6414  -11165609.86646  -8583289.35146
 92  6 11  5 44  0.0000000  0  5G17G 3G21G23G28
  21502532.2504    4243485.00647   3302059.98346
  23227918.2114   12512270.24445   9732033.06645
  21195277.1174   -8647240.12947  -6678583.76946
  20978949.6884    1657130.93147   1303417.80246
  21890540.3204  -11194959.42146  -8606159.13046
 92  6 11  5 44 15.0000000  0  5G17G 3G21G23G28
  21506873.266     4266302.469 7   3319839.816 6
  23238682.664    12568824.358 5   9776101.163 5
  21191940.5164   -8664767.40147  -6692241.37846
  20982117.3284    1673781.58947   1316392.35146
  21884972.594   -11224186.943 6  -8628933.798 6
 92  6 11  5 44 30.0000000  0  5G17G 3G21G23G28
  21511225.6644    4289185.13947   3337670.46446
  23249460.656    12625456.436 5   9820230.003 5
  21188616.8754   -8682229.75747  -6705848.39846
  20985297.7974    1690492.52847   1329413.86646
  21879440.7274  -11253289.90247  -8651611.42146
 92  6 11  5 44 45.0000000  0  5G17G 3G21G23G28
  21515591.8364    4312129.80947   3355549.41946
  23260245.5704   12682166.53145   9864419.65345
  21185309.1024   -8699624.13647  -6719402.45146
  20988489.6804    1707266.95047   1342484.85246
  21873923.4614  -11282267.60547  -8674191.44046
 92  6 11  5 45  0.0000000  0  5G17G 3G21G23G28
  21519966.5554    4335133.85947   3373474.64346
  23271053.516    12738954.015 5   9908669.600 5
  21182009.727    -8716950.881 7  -6732903.799 6
  20991692.3754    1724103.64747   1355604.36146
  21868434.602   -11311120.970 7  -8696674.562 6
 92  6 11  5 45 15.0000000  0  5G17G 3G21G23G28
  21524359.1564    4358196.59147   3391445.58946
  23281876.7814   12795817.31445   9952978.62945
  21178729.188    -8734209.156 7  -6746351.793 6
  20994905.4304    1740997.39247   1368768.32546
  21862965.0164  -11339850.02747  -8719060.83646
 92  6 11  5 45 30.0000000  0  5G17G 3G21G23G28
  21528756.008     4381318.022 7   3409462.277 6
  23292712.945    12852755.322 6   9997345.863 5
  21175454.3204   -8751400.39847  -6759747.55846
  20998132.1174    1757943.32147   1381972.94246
  21857523.1884  -11368457.23447  -8741352.15846
 92  6 11  5 45 45.0000000  0  5G17G 3G21G23G28
  21533170.375     4404499.375 7   3427525.658 6
  23303560.6024   12909769.60545  10041772.54945
  21172196.258    -8768523.976 7  -6773090.597 6
  21001365.4064    1774941.45547   1395218.24946
  21852102.2664  -11396942.75647  -8763548.65646
 92  6 11  5 46  0.0000000  0  5G17G 3G21G23G28
  21537592.430     4427738.535 7   3445634.081 6
  23314424.820    12966859.154 5  10086257.851 5
  21168952.875    -8785581.223 7  -6786381.935 6
  21004610.2424    1791990.52347   1408503.24246
  21846701.8284  -11425306.00647  -8785649.88446
 92  6 11  5 46 15.0000000  0  5G17G 3G21G23G28
  21542025.0864    4451037.59247   3463789.18446
  23325302.047    13024024.315 5  10130802.105 5
  21165718.0474   -8802566.68547  -6799617.35246
  21007865.2114    1809091.66247   1421828.80546
  21841331.9384  -11453545.27047  -8807654.49446
 92  6 11  5 46 30.0000000  0  5G17G 3G21G23G28
  21546471.672     4474400.126 7   3481993.740 6
  23336197.758    13081264.854 5  10175405.091 5
  21162499.7114   -8819477.11347  -6812794.30746
  21011129.1644    1826245.17847   1435195.18246
  21835982.945   -11481658.471 7  -8829560.869 6
 92  6 11  5 46 45.0000000  0  5G17G 3G21G23G28
  21550929.8984    4497822.82047   3500245.19046
  23347102.7894   13138578.80845  10220065.26245
  21159298.0784   -8836313.13547  -6825913.29046
  21014402.8134    1843449.27247   1448600.96846
  21830655.9304  -11509647.17347  -8851370.24946
 92  6 11  5 47  0.0000000  0  5G17G 3G21G23G28
  21555401.3204    4521306.40947   3518544.07546
  23358019.781    13195965.221 5  10264781.918 5
  21156108.2114   -8853074.87847  -6838974.37146
  21017687.8914    1860701.33747   1462044.14046
  21825352.5164  -11537511.18447  -8873082.46446
 92  6 11  5 47 15.0000000  0  5G17G 3G21G23G28
  21559876.836     4544855.873 7   3536894.295 6
  23368957.969    13253425.609 5  10309556.206 5
  21152930.6804   -8869759.98747  -6851975.74946
  21020979.6954    1878004.48347   1475527.10846
  21820074.156   -11565246.796 7  -8894694.603 6
 92  6 11  5 47 30.0000000  0  5G17G 3G21G23G28
  21564374.344     4568471.505 7   3555296.075 6
  23379906.609    13310961.519 5  10354389.324 5
  21149770.281    -8886368.672 7  -6864917.563 6
  21024279.1414    1895364.33447   1489054.26046
  21814826.7194  -11592851.62047  -8916204.84646
 92  6 11  5 47 45.0000000  0  5G17G 3G21G23G28
  21568881.2974    4592148.76447   3573745.88346
  23390867.2504   13368570.28245  10399279.21745
  21146621.703    -8902905.800 7  -6877803.621 6
  21027594.5864    1912778.76947   1502623.95146
  21809592.8134  -11620326.31047  -8937613.69246
 92  6 11  5 48  0.0000000  0  5G17G 3G21G23G28
  21573401.2814    4615892.15447   3592247.22046
  23401844.6094   13426254.28745  10444227.75945
  21143490.4614   -8919367.01147  -6890630.52346
  21030921.4224    1930250.59747   1516238.36146
  21804389.438   -11647666.060 7  -8958917.370 6
 92  6 11  5 48 15.0000000  0  5G17G 3G21G23G28
  21577929.320     4639703.439 7   3610801.452 6
  23412837.1254   13484010.39645  10489232.45945
  21140375.2274   -8935753.72247  -6903399.38446
  21034256.8984    1947777.33847   1529895.55946
  21799214.4144  -11674872.30547  -8980117.02746
 92  6 11  5 48 30.0000000  0  5G17G 3G21G23G28
  21582474.320     4663587.312 7   3629412.255 6
  23423836.758    13541839.626 5  10534294.156 5
  21137268.992    -8952064.516 7  -6916109.078 6
  21037602.3284    1965362.33947   1543598.15346
  21794064.2894  -11701942.56847  -9001210.74446
 92  6 11  5 48 45.0000000  0  5G17G 3G21G23G28
  21587030.695     4687540.083 7   3648076.735 6
  23434858.7034   13599741.07145  10579412.13345
  21134180.375    -8968303.828 7  -6928763.077 6
  21040955.1414    1983005.39547   1557345.98346
  21788937.352   -11728877.583 7  -9022199.046 6
 92  6 11  5 49  0.0000000  0  5G17G 3G21G23G28
  21591603.9614    4711559.67447   3666793.29646
  23445894.3984   13657713.69745  10624585.53645
  21131098.9534   -8984473.32247  -6941362.67046
  21044326.2424    2000703.93347   1571137.05446
  21783839.4304  -11755677.15647  -9043081.83046
 92  6 11  5 49 15.0000000  0  5G17G 3G21G23G28
  21596186.2114    4735650.04447   3685565.00746
  23456930.5164   13715759.76745  10669816.21145
  21128038.047    -9000571.557 7  -6953906.733 6
  21047708.0234    2018459.40447   1584972.48146
  21778767.242   -11782335.938 7  -9063854.894 6
 92  6 11  5 49 30.0000000  0  5G17G 3G21G23G28
  21600781.500     4759806.193 7   3704387.959 6
  23467996.281    13773875.137 5  10715100.868 5
  21124989.0084   -9016604.58747  -6966400.00646
  21051096.4144    2036267.34047   1598848.79646
  21773717.609   -11808858.362 7  -9084521.695 6
 92  6 11  5 49 45.0000000  0  5G17G 3G21G23G28
  21605394.9614    4784031.30647   3723264.66346
  23479066.266    13832061.973 5  10760441.196 5
  21121951.4924   -9032569.04747  -6978839.83046
  21054494.0234    2054125.92647   1612764.57746
  21768694.7194  -11835241.21947  -9105079.76146
 92  6 11  5 50  0.0000000  0  5G17G 3G21G23G28
  21610019.953     4808327.746 7   3742196.936 6
  23490150.2974   13890319.29145  10805836.49245
  21118923.1884   -9048462.09647  -6991224.02446
  21057900.5474    2072033.59447   1626718.60246
  21763704.891   -11861485.601 7  -9125529.918 6
 92  6 11  5 50 15.0000000  0  5G17G 3G21G23G28
  21614657.3984    4832695.22147   3761184.57046
  23501251.3594   13948647.71945  10851287.17545
  21115915.1484   -9064280.32747  -7003549.91846
  21061316.9924    2089993.98647   1640713.70546
  21758734.2894  -11887592.31347  -9145872.79246
 92  6 11  5 50 30.0000000  0  5G17G 3G21G23G28
  21619308.297     4857129.608 7   3780224.344 6
  23512366.375    14007047.916 5  10896793.773 5
  21112918.8594   -9080025.39047  -7015818.79946
  21064746.2034    2108008.97947   1654751.35746
  21753792.086   -11913560.346 7  -9166107.605 6
 92  6 11  5 50 45.0000000  0  5G17G 3G21G23G28
  21623968.2734    4881624.87947   3799311.55346
  23523489.297    14065518.458 5  10942355.194 5
  21109936.0394   -9095700.10247  -7028032.84946
  21068184.0944    2126076.26447   1668829.77446
  21748879.1334  -11939392.15747  -9186236.27546
 92  6 11  5 51  0.0000000  0  5G17G 3G21G23G28
  21628635.8834    4906178.47347   3818444.22146
  23534629.688    14124057.697 5  10987970.145 5
  21106968.6724   -9111305.11047  -7040192.58546
  21071633.1484    2144193.09747   1682946.78546
  21743984.1564  -11965089.70647  -9206260.32946
 92  6 11  5 51 15.0000000  0  5G17G 3G21G23G28
  21633318.4224    4930791.78847   3837623.41746
  23545786.867    14182664.800 5  11033637.958 5
  21104009.2274   -9126839.30447  -7052297.13746
  21075090.8674    2162360.95247   1697103.55346
  21739125.164   -11990654.855 7  -9226181.212 6
 92  6 11  5 51 30.0000000  0  5G17G 3G21G23G28
  21638018.8524    4955465.41447   3856849.61146
  23556954.1724   14241340.62645  11079359.34045
  21101071.492    -9142302.156 7  -7064346.104 6
  21078554.4454    2180583.93947   1711303.27746
  21734281.125   -12016089.200 7  -9246000.163 6
 92  6 11  5 51 45.0000000  0  5G17G 3G21G23G28
  21642722.836     4980196.483 7   3876120.559 6
  23568132.039    14300084.194 5  11125133.503 5
  21098140.9454   -9157694.52647  -7076340.14846
  21082033.9144    2198863.35447   1725546.98346
  21729466.4774  -12041396.76847  -9265720.33946
 92  6 11  5 52  0.0000000  0  5G17G 3G21G23G28
  21647443.2734    5004987.58447   3895438.29946
  23579325.328    14358896.004 5  11170960.846 5
  21095225.5394   -9173014.41547  -7088277.72846
  21085524.2424    2217203.41947   1739837.95446
  21724673.938   -12066576.881 7  -9285341.194 6
 92  6 11  5 52 15.0000000  0  5G17G 3G21G23G28
  21652170.1724    5029837.87847   3914802.16346
  23590523.5474   14417776.06145  11216841.35245
  21092322.0394   -9188264.04247  -7100160.55846
  21089027.7114    2235605.94347   1754177.57646
  21719905.563   -12091631.104 7  -9304863.951 6
 92  6 11  5 52 30.0000000  0  5G17G 3G21G23G28
  21656910.2894    5054747.88147   3934212.54446
  23601741.914    14476724.285 5  11262774.990 5
  21089432.1024   -9203446.58247  -7111991.09346
  21092540.2194    2254070.34847   1768565.42546
  21715166.734   -12116557.105 7  -9324286.794 6
 92  6 11  5 52 45.0000000  0  5G17G 3G21G23G28
  21661663.0784    5079719.64647   3953671.05746
  23612973.883    14535739.084 5  11308760.484 5
  21086559.539    -9218562.870 7  -7123770.005 6
  21096065.0784    2272592.17147   1782998.01746
  21710443.641   -12141355.730 7  -9343610.385 6
 92  6 11  5 53  0.0000000  0  5G17G 3G21G23G28
  21666429.586     5104755.716 7   3973179.665 6
  23624219.141    14594820.077 5  11354797.606 5
  21083693.727    -9233611.627 7  -7135496.300 6
  21099600.7504    2291170.57747   1797474.68646
  21705748.5784  -12166027.81447  -9362835.38946
 92  6 11  5 53 15.0000000  0  5G17G 3G21G23G28
  21671207.4384    5129859.16947   3992740.79446
  23635471.969    14653968.621 5  11400887.328 5
  21080842.758    -9248591.675 7  -7147169.044 6
  21103144.313     2309805.515 7   1811995.414 6
  21701079.1024  -12190573.13147  -9381961.59846
 92  6 11  5 53 30.0000000  0  5G17G 3G21G23G28
  21675989.539     5155029.950 7   4012354.376 6
  23646740.5944   14713182.91445  11447028.28745
  21078003.8984   -9263504.66947  -7158789.56046
  21106703.0314    2328493.00747   1826557.08846
  21696431.852   -12214991.400 7  -9400988.804 6
 92  6 11  5 53 45.0000000  0  5G17G 3G21G23G28
  21680794.6174    5180270.75847   4032022.53346
  23658021.2194   14772463.90745  11493221.21345
  21075179.4534   -9278348.68147  -7170356.31446
  21110268.7894    2347230.88747   1841158.02746
  21691810.7894  -12239279.68747  -9419914.73446
 92  6 11  5 54  0.0000000  0  5G17G 3G21G23G28
  21685615.5704    5205582.83947   4051746.22746
  23669314.063    14831809.350 5  11539464.364 5
  21072366.758    -9293125.131 7  -7181870.420 6
  21113843.2424    2366015.51847   1855795.39846
  21687213.3594  -12263438.24047  -9438739.57946
 92  6 11  5 54 15.0000000  0  5G17G 3G21G23G28
  21690444.656     5230969.161 7   4071527.768 6
  23680613.188    14891220.052 5  11585758.374 5
  21069570.5944   -9307832.82647  -7193330.94946
  21117426.4064    2384845.88947   1870468.40046
  21682641.820   -12287461.511 7  -9457458.999 6
 92  6 11  5 54 30.0000000  0  5G17G 3G21G23G28
  21695287.0784    5256427.32947   4091365.29046
  23691939.117    14950693.647 5  11632101.369 5
  21066782.6334   -9322473.23747  -7204739.04746
  21121016.5944    2403718.15347   1885174.05946
  21678097.4304  -12311347.53447  -9476071.47046
 92  6 11  5 54 45.0000000  0  5G17G 3G21G23G28
  21700143.2894    5281957.59547   4111259.00446
  23703267.492    15010231.370 5  11678494.344 5
  21064009.5234   -9337044.85447  -7216093.54746
  21124618.1644    2422634.29047   1899913.90146
  21673577.5634  -12335093.40547  -9494574.74346
 92  6 11  5 55  0.0000000  0  5G17G 3G21G23G28
  21705019.828     5307560.148 7   4131209.029 6
  23714605.9304   15069834.06445  11724937.98445
  21061250.172    -9351545.290 7  -7227392.571 6
  21128224.6254    2441596.30947   1914689.48946
  21669089.852   -12358699.282 7  -9512968.915 6
 92  6 11  5 55 15.0000000  0  6G17G 3G21G23G28G11
  21709902.7894    5333236.69347   4151216.72346
  23725965.7734   15129502.14145  11771432.52745
  21058506.3524   -9365973.55247  -7238635.36046
  21131843.1024    2460607.90847   1929503.72146
  21664623.0394  -12382162.66647  -9531252.06746
  24687053.2814         -0.57053
 92  6 11  5 55 30.0000000  0  6G17G 3G21G23G28G11
  21714804.141     5358989.128 7   4171283.541 6
  23737330.0944   15189235.48945  11817977.94845
  21055773.1564   -9380329.37847  -7249821.71546
  21135471.586     2479670.678 7   1944357.809 6
  21660183.0314  -12405479.68147  -9549421.17046
  24676599.1414     -54946.65043
 92  6 11  5 55 45.0000000  0  6G17G 3G21G23G28G11
  21719718.9304    5384813.35847   4191406.30946
  23748707.281    15249030.742 5  11864571.583 5
  21053055.586    -9394614.682 7  -7260953.113 6
  21139106.9924    2498786.09747   1959252.93346
  21655772.648   -12428651.687 7  -9567477.260 6
  24666144.5394    -109878.23043
 92  6 11  5 56  0.0000000  0  6G17G 3G21G23G28G11
  21724647.8364    5410709.08347   4211584.79646
  23760098.039    15308888.500 5  11911213.986 5
  21050349.3364   -9408829.82447  -7272029.84546
  21142756.1484    2517958.96047   1974192.82546
  21651392.2504  -12451679.17947  -9585420.75146
  24655694.289     -164794.147 3        -0.02231
 92  6 11  5 56 15.0000000  0  6G17G 3G21G23G28G11
  21729584.8524    5436671.04347   4231814.88446
  23771499.516    15368805.810 5  11957902.757 5
  21047657.1414   -9422977.32147  -7283053.86746
  21146415.844     2537188.032 7   1989176.497 6
  21647040.5944  -12474562.00947  -9603251.53346
  24645250.7504    -219696.31344        -0.45153
 92  6 11  5 56 30.0000000  0  6G17G 3G21G23G28G11
  21734541.1024    5462698.51747   4252096.02846
  23782912.172    15428785.489 5  12004640.115 5
  21044980.6174   -9437054.63547  -7294023.19446
  21150086.8444    2556475.04547   2004205.33146
  21642710.7974  -12497297.68547  -9620967.63146
  24634803.1954    -274581.49644    -42768.13443
 92  6 11  5 56 45.0000000  0  6G17G 3G21G23G28G11
  21739502.0164    5488792.08947   4272428.67746
  23794339.813    15488828.371 5  12051426.717 5
  21042312.891    -9451059.607 7  -7304936.143 6
  21153767.5704    2575821.68147   2019280.62546
  21638415.547   -12519888.383 7  -9638570.757 6
  24624361.2664    -329448.03644    -85521.27843
 92  6 11  5 57  0.0000000  0  6G17G 3G21G23G28G11
  21744482.320     5514949.375 7   4292810.967 6
  23805780.1644   15548933.65445  12098261.96345
  21039663.820    -9464992.575 7  -7315792.990 6
  21157457.7274    2595226.10347   2034400.95446
  21634140.2424  -12542338.28547  -9656064.17446
  24613922.9224    -384296.19644   -128260.08243
 92  6 11  5 57 15.0000000  0  6G17G 3G21G23G28G11
  21749470.0084    5541170.93447   4313243.35246
  23817229.4304   15609099.43745  12145144.34345
  21037025.9144   -9478854.02947  -7326594.11046
  21161164.1644    2614683.57447   2049562.61646
  21629894.7974  -12564648.38047  -9673448.66246
  24603485.3134    -439126.99244   -170985.38543
 92  6 11  5 57 30.0000000  0  6G17G 3G21G23G28G11
  21754476.1564    5567457.24847   4333726.18646
  23828689.9454   15669326.96645  12192074.85345
  21034399.9694   -9492643.70147  -7337339.30746
  21164876.773     2634193.289 7   2064764.983 6
  21625674.6174  -12586816.21247  -9690722.30346
  24593061.563     -493938.563 5   -213695.664 4
 92  6 11  5 57 45.0000000  0  6G17G 3G21G23G28G11
  21759489.4304    5593803.54847   4354255.75946
  23840160.2734   15729614.60545  12239052.16245
  21031790.0474   -9506363.71047  -7348030.22646
  21168596.172     2653751.574 7   2080005.178 6
  21621486.6414  -12608843.04047  -9707886.05946
  24582632.422     -548731.826 5   -256391.695 4
 92  6 11  5 58  0.0000000  0  6G17G 3G21G23G28G11
  21764510.8444    5620208.31047   4374830.89646
  23851646.4694   15789961.71445  12286075.84645
  21029192.8444   -9520014.94447  -7358667.55646
  21172327.2814    2673355.57847   2095281.03046
  21617317.1804  -12630729.91747  -9724940.77046
  24572211.7734    -603506.61545   -299073.32844
 92  6 11  5 58 15.0000000  0  6G17G 3G21G23G28G11
  21769555.7734    5646673.64247   4395453.22946
  23863141.422    15850368.266 5  12333145.839 5
  21026608.7424   -9533598.68647  -7369252.27746
  21176066.3204    2693000.39447   2110588.67246
  21613181.2664  -12652476.06347  -9741885.81346
  24561790.930     -658262.490 5   -341740.227 5
 92  6 11  5 58 30.0000000  0  6G17G 3G21G23G28G11
  21774598.703     5673199.836 7   4416122.976 6
  23874651.3754   15910835.12045  12380262.82345
  21024034.7424   -9547113.25547  -7379783.11446
  21179814.2114    2712685.89147   2125928.01646
  21609075.4614  -12674080.25047  -9758720.24546
  24551380.4844    -712997.73544   -384391.04745
 92  6 11  5 58 45.0000000  0  6G17G 3G21G23G28G11
  21779656.3914    5699786.90547   4436840.16446
  23886164.234    15971360.132 5  12427425.136 5
  21021473.3754   -9560560.11647  -7390261.17646
  21183562.5164    2732409.36147   2141296.94446
  21604986.4924  -12695546.54147  -9775447.22046
  24540960.617     -767713.681 4   -427026.797 5
 92  6 11  5 59  0.0000000  0  6G17G 3G21G23G28G11
  21784725.5944    5726436.62347   4457606.17246
  23897693.508    16031943.776 5  12474633.129 5
  21018931.047    -9573939.096 7  -7400686.339 6
  21187328.7424    2752172.89347   2156697.09146
  21600925.9924  -12716875.87947  -9792067.48246
  24530552.070     -822409.387 4   -469646.801 5
 92  6 11  5 59 15.0000000  0  6G17G 3G21G23G28G11
  21789806.602     5753149.625 7   4478421.483 6
  23909234.3984   16092585.62145  12521886.46845
  21016398.6644   -9587249.50747  -7411058.07846
  21191096.3054    2771977.53947   2172129.28846
  21596894.0474  -12738066.17147  -9808579.38946
  24520150.195     -877084.534 4   -512250.776 5
 92  6 11  5 59 30.0000000  0  6G17G 3G21G23G28G11
  21794907.3204    5779928.34447   4499288.01746
  23920781.2344   16153285.82945  12569185.25745
  21013880.5314   -9600491.92747  -7421376.84346
  21194872.7504    2791826.33447   2187595.86846
  21592888.5394  -12759115.24847  -9824981.26046
  24509746.5634    -931738.24644   -554838.05845
 92  6 11  5 59 45.0000000  0  6G17G 3G21G23G28G11
  21800013.180     5806770.904 7   4520204.283 6
  23932344.8834   16214044.18745  12616529.40545
  21011371.7274   -9613665.83647  -7431642.22746
  21198659.4924    2811722.68847   2203099.53046
  21588909.8284  -12780023.29047  -9841273.24046
  24499353.7974    -986370.02244   -597408.25445
 92  6 11  6  0  0.0000000  0  6G17G 3G21G23G28G11
  21805136.7194    5833678.54447   4541171.27046
  23943920.414    16274860.306 5  12663918.524 5
  21008876.5084   -9626770.74247  -7441853.84646
  21202455.703     2831667.084 7   2218640.629 6
  21584955.5634  -12800790.11047  -9857455.18346
  24488960.109    -1040979.422 4   -639960.990 5
 92  6 11  6  0 15.0000000  0  6G17G 3G21G23G28G11
  21810269.609     5860651.356 7   4562189.030 6
  23955503.172    16335732.675 5  12711351.502 5
  21006398.2734   -9639808.16147  -7452012.87946
  21206257.2344    2851659.35947   2234219.02746
  21581032.9064  -12821418.93147  -9873529.58446
  24478577.2664   -1095567.46745   -682497.09045
 92  6 11  6  0 30.0000000  0  6G17G 3G21G23G28G11
  21815412.6024    5887689.49547   4583257.70846
  23967101.141    16396662.888 5  12758829.546 5
  21003927.2194   -9652775.42347  -7462117.22746
  21210072.4694    2871703.30147   2249837.67946
  21577134.3134  -12841908.51047  -9889495.48146
  24468193.508    -1150131.614 5   -725014.565 5
 92  6 11  6  0 45.0000000  0  6G17G 3G21G23G28G11
  21820572.063     5914790.494 7   4604375.353 6
  23978701.9844   16457649.49145  12806351.52245
  21001473.2504   -9665673.57747  -7472167.74946
  21213897.234     2891799.381 7   2265496.946 6
  21573260.5634  -12862259.55347  -9905353.43346
  24457814.9144   -1204672.75145   -767514.10045
 92  6 11  6  1  0.0000000  0  6G17G 3G21G23G28G11
  21825739.5704    5941955.05447   4625542.53246
  23990317.852    16518690.841 5  12853916.187 5
  20999031.3054   -9678504.30947  -7482165.72446
  21217730.4844    2911947.09347   2281196.45846
  21569416.9614  -12882472.16547  -9921103.51546
  24447437.5314   -1259191.55945   -809996.28445
 92  6 11  6  1 15.0000000  0  6G17G 3G21G23G28G11
  21830923.4774    5969185.64247   4646761.16246
  24001946.203    16579789.743 5  12901525.655 5
  20996603.6804   -9691264.88947  -7492109.02746
  21221574.8284    2932151.98347   2296940.52046
  21565592.164   -12902540.864 7  -9936741.445 6
  24437072.3674   -1313684.94545   -852458.60345
 92  6 11  6  1 30.0000000  0  6G17G 3G21G23G28G11
  21836113.0704    5996480.90547   4668030.18846
  24013579.9534   16640942.90545  12949177.44545
  20994188.9224   -9703958.54247  -7502000.18146
  21225430.2584    2952408.81647   2312725.06246
  21561804.2034  -12922467.01047  -9952268.30146
  24426703.2344   -1368155.11245   -894902.84545
 92  6 11  6  1 45.0000000  0  6G17G 3G21G23G28G11
  21841323.180     6023840.830 7   4689349.600 6
  24025230.9224   16702151.85944  12996872.66945
  20991784.8444   -9716585.02447  -7511839.00846
  21229293.0234    2972716.33947   2328549.11646
  21558040.3914  -12942248.14847  -9967682.17846
  24416341.5234   -1422600.06245   -937327.42945
 92  6 11  6  2  0.0000000  0  6G17G 3G21G23G28G11
  21846540.2664    6051265.72647   4710719.63546
  24036888.6884   16763416.34245  13044611.18245
  20989397.2734   -9729143.70847  -7521624.99446
  21233169.7194    2993074.62947   2344412.71546
  21554303.6254  -12961884.04647  -9982982.87746
  24405987.438    -1477019.192 5   -979731.894 5
 92  6 11  6  2 15.0000000  0  6G17G 3G21G23G28G11
  21851772.9384    6078757.03547   4732141.43346
  24048554.8364   16824736.23244  13092392.87445
  20987019.9064   -9741633.19647  -7531357.06046
  21237052.156     3013482.837 7   2360315.195 6
  21550594.8674  -12981374.53847  -9998170.26846
  24395632.352    -1531412.030 5  -1022115.869 5
 92  6 11  6  2 30.0000000  0  6G17G 3G21G23G28G11
  21857017.023     6106313.448 7   4753613.952 6
  24060231.617    16886110.268 4  13140216.752 5
  20984656.6644   -9754055.37247  -7541036.67746
  21240944.9694    3033940.13647   2376255.94846
  21546911.6804  -13000720.12047 -10013244.74146
  24385290.008    -1585779.183 5  -1064479.853 5
 92  6 11  6  2 45.0000000  0  6G17G 3G21G23G28G11
  21862272.2274    6133935.66547   4775137.75146
  24071919.953    16947536.543 4  13188081.338 5
  20982303.2114   -9766409.74647  -7550663.45946
  21244848.125     3054445.916 7   2392234.467 6
  21543259.4774  -13019919.04847 -10028204.95546
  24374948.180    -1640121.526 5  -1106824.484 5
 92  6 11  6  3  0.0000000  0  6G17G 3G21G23G28G11
  21867541.742     6161629.800 7   4796717.587 6
  24083626.4384   17009016.60745  13235987.85545
  20979968.9224   -9778693.52747  -7560235.23346
  21248759.2344    3075002.47847   2408252.55946
  21539632.8284  -13038969.00147 -10043049.06046
  24364612.4614   -1694436.91745  -1149148.10845
 92  6 11  6  3 15.0000000  0  6G17G 3G21G23G28G11
  21872827.422     6189395.684 7   4818353.328 6
  24095335.0784   17070547.83245  13283934.21945
  20977640.9844   -9790907.04747  -7569752.26246
  21252679.3054    3095607.53547   2424308.44946
  21536037.7894  -13057872.71547 -10057779.22546
  24354279.6724   -1748727.46345  -1191452.40444
 92  6 11  6  3 30.0000000  0  6G17G 3G21G23G28G11
  21878116.5314    6217234.82047   4840046.14546
  24107054.805    17132131.133 5  13331921.162 5
  20975333.0394   -9803049.68747  -7579214.05646
  21256611.7974    3116260.06947   2440401.33246
  21532468.1804  -13076629.86747 -10072395.17946
  24343955.477    -1802991.228 5  -1233735.834 4
 92  6 11  6  3 45.0000000  0  6G17G 3G21G23G28G11
  21883433.6954    6245145.70047   4861794.88446
  24118781.617    17193767.824 5  13379949.696 5
  20973035.7194   -9815119.95847  -7588619.46046
  21260550.5234    3136960.20947   2456531.31446
  21528926.3914  -13095239.76847 -10086896.39446
  24333634.4144   -1857226.47845  -1275996.99244
 92  6 11  6  4  0.0000000  0  6G17G 3G21G23G28G11
  21888766.0164    6273130.97747   4883601.58046
  24130518.9774   17255459.32945  13428020.95945
  20970754.7274   -9827116.04247  -7597967.06346
  21264494.8594    3157713.32547   2472702.56546
  21525413.328   -13113700.122 7 -10101281.076 6
  24323321.0634   -1911430.86845  -1318234.16544
 92  6 11  6  4 15.0000000  0  6G17G 3G21G23G28G11
  21894099.852     6301187.770 7   4905464.002 6
  24142266.828    17317202.331 5  13476132.352 5
  20968482.3364   -9839040.72747  -7607259.03446
  21268457.9454    3178516.30147   2488912.67446
  21521928.2504  -13132013.10347 -10115550.92446
  24313013.789    -1965607.037 5  -1360449.303 4
 92  6 11  6  4 30.0000000  0  6G17G 3G21G23G28G11
  21899455.0474    6329317.61747   4927383.36346
  24154025.7664   17378997.53744  13524284.41944
  20966229.3364   -9850892.81247  -7616494.42946
  21272427.2974    3199369.01547   2505161.54646
  21518474.0234  -13150179.84947 -10129706.81946
  24302701.258    -2019753.465 5  -1402641.304 4
 92  6 11  6  4 45.0000000  0  6G17G 3G21G23G28G11
  21904817.6954    6357519.03747   4949358.48346
  24165802.953    17440843.098 5  13572475.738 4
  20963985.1414   -9862676.08747  -7625676.20746
  21276402.9304    3220270.05147   2521448.06046
  21515044.7584  -13168201.99347 -10143750.03946
  24292406.063    -2073871.446 5  -1444811.105 4
 92  6 11  6  5  0.0000000  0  6G17G 3G21G23G28G11
  21910204.6024    6385793.03547   4971390.17146
  24177579.4844   17502739.38044  13620706.54645
  20961756.8754   -9874388.47147  -7634802.73046
  21280387.4384    3241217.82247   2537771.00846
  21511642.844   -13186079.263 7 -10157680.362 6
  24282116.3914   -2127959.80245  -1486957.87344
 92  6 11  6  5 15.0000000  0  6G17G 3G21G23G28G11
  21915591.555     6414136.750 7   4993476.164 6
  24189361.500    17564686.776 5  13668977.207 5
  20959541.4694   -9886031.31347  -7643875.07346
  21284380.8674    3262210.50247   2554128.92946
  21508266.9774  -13203812.73447 -10171498.64746
  24271833.836    -2182017.481 5  -1529080.712 4
 92  6 11  6  5 30.0000000  0  6G17G 3G21G23G28G11
  21920999.2034    6442546.49747   5015613.62146
  24201160.797    17626684.136 4  13717286.794 5
  20957339.4774   -9897607.31047  -7652895.31646
  21288387.9844    3283246.65247   2570520.73046
  21504918.3914  -13221402.17747 -10185204.70346
  24261548.9064   -2236044.79545  -1571179.88944
 92  6 11  6  5 45.0000000  0  6G17G 3G21G23G28G11
  21926415.6334    6471016.30747   5037797.87946
  24212972.4694   17688729.35345  13765633.65045
  20955150.2974   -9909119.73047  -7661866.02946
  21292397.2814    3304324.38047   2586944.93946
  21501598.203   -13238847.778 7 -10198798.657 6
  24251277.281    -2290043.151 5  -1613256.518 4
 92  6 11  6  6  0.0000000  0  6G17G 3G21G23G28G11
  21931844.594     6499548.632 7   5060030.854 6
  24224787.7734   17750822.66244  13814017.98844
  20952970.7194   -9920565.67547  -7670784.94746
  21296416.3674    3325442.82247   2603400.86046
  21498307.6724  -13256145.19447 -10212277.16346
  24241003.2584   -2344011.66145  -1655309.89044
 92  6 11  6  6 15.0000000  0  6G17G 3G21G23G28G11
  21937289.766     6528144.432 7   5082313.275 6
  24236610.492    17812962.642 5  13862438.723 5
  20950802.9844   -9931945.43647  -7679652.29446
  21300439.8594    3346599.16147   2619886.31746
  21495044.2114  -13273295.78947 -10225641.25746
  24230739.977    -2397950.710 5  -1697340.276 5
 92  6 11  6  6 30.0000000  0  6G17G 3G21G23G28G11
  21942743.578     6556805.714 7   5104646.723 6
  24248441.094    17875151.127 4  13910897.235 5
  20948650.7584   -9943255.54747  -7688465.36146
  21304475.1804    3367793.52247   2636401.39846
  21491810.6884  -13290298.17747 -10238889.86946
  24220481.7274   -2451858.17445  -1739346.05145
 92  6 11  6  6 45.0000000  0  6G17G 3G21G23G28G11
  21948206.5164    6585531.84647   5127030.71446
  24260288.297    17937387.601 5  13959393.134 4
  20946512.5004   -9954496.77447  -7697224.75146
  21308519.4384    3389026.46547   2652946.53846
  21488599.5944  -13307151.37347 -10252022.21446
  24210227.8054   -2505733.60145  -1781326.88445
 92  6 11  6  7  0.0000000  0  6G17G 3G21G23G28G11
  21953686.836     6614323.381 7   5149465.668 6
  24272138.477    17999671.960 5  14007926.356 5
  20944386.1024   -9965669.42347  -7705930.70746
  21312563.0314    3410297.98347   2669521.73046
  21485424.484   -13323850.648 7 -10265034.630 6
  24199981.0554   -2559576.32445  -1823282.19345
 92  6 11  6  7 15.0000000  0  6G17G 3G21G23G28G11
  21959178.266     6643177.121 7   5171949.084 6
  24284004.6024   18062003.05044  14056495.95945
  20942272.4694   -9976775.16147  -7714584.52646
  21316620.078     3431606.137 7   2686125.504 6
  21482276.188   -13340395.565 7 -10277926.754 6
  24189743.0004   -2613386.87345  -1865212.46045
 92  6 11  6  7 30.0000000  0  6G17G 3G21G23G28G11
  21964681.016     6672090.565 7   5194479.021 6
  24295867.313    18124380.206 4  14105101.477 4
  20940172.8594   -9987814.56347  -7723186.65246
  21320678.875     3452953.173 7   2702759.578 6
  21479157.2194  -13356787.71047 -10290699.85146
  24179512.445    -2667165.163 5  -1907117.594 5
 92  6 11  6  7 45.0000000  0  6G17G 3G21G23G28G11
  21970193.0234    6701064.67747   5217056.24246
  24307744.2194   18186802.39344  14153742.11844
  20938087.4384   -9998788.96247  -7731738.12546
  21324750.3914    3474338.48847   2719423.47046
  21476064.086   -13373027.196 7 -10303353.987 6
  24169282.6414   -2720911.41745  -1948997.74945
 92  6 11  6  8  0.0000000  0  6G17G 3G21G23G28G11
  21975720.578     6730105.012 7   5239685.058 6
  24319635.945    18249272.776 4  14202420.246 4
  20936009.2504  -10009693.43847  -7740235.11446
  21328827.1024    3495765.82147   2736120.09846
  21473004.9844  -13389112.31547 -10315887.83246
  24159060.7274   -2774621.84645  -1990849.98145
 92  6 11  6  8 15.0000000  0  6G17G 3G21G23G28G11
  21981263.914     6759214.660 7   5262367.888 6
  24331536.195    18311790.560 4  14251135.353 4
  20933945.5784  -10020528.62347  -7748678.10046
  21332912.2194    3517234.34747   2752848.82046
  21469973.2344  -13405046.69147 -10328304.22746
  24148849.406    -2828296.404 5  -2032674.281 5
 92  6 11  6  8 30.0000000  0  6G17G 3G21G23G28G11
  21986810.430     6788389.352 7   5285101.398 6
  24343438.898    18374351.040 4  14299883.688 4
  20931896.7734  -10031301.26947  -7757072.36946
  21337004.1954    3538742.23947   2769608.21346
  21466965.672   -13420837.949 7 -10340609.090 6
  24138637.5554   -2881939.04445  -2074473.71145
 92  6 11  6  8 45.0000000  0  6G17G 3G21G23G28G11
  21992376.313     6817632.367 7   5307888.146 6
  24355353.5164   18436956.94344  14348667.47344
  20929860.9774  -10042009.62047  -7765416.53246
  21341107.4774    3560292.86747   2786400.90746
  21463989.6414  -13436483.02247 -10352800.05046
  24128436.8134   -2935546.46845  -2116245.69145
 92  6 11  6  9  0.0000000  0  6G17G 3G21G23G28G11
  21997956.8754    6846943.73047   5330728.16446
  24367277.961    18499608.006 4  14397486.411 4
  20927832.453   -10052656.397 7  -7773712.703 6
  21345214.0864    3581887.29047   2803227.73646
  21461041.508   -13451981.435 7 -10364876.719 6
  24118243.047    -2989118.161 5  -2157989.842 5
 92  6 11  6  9 15.0000000  0  6G17G 3G21G23G28G11
  22003547.039     6876323.968 7   5353621.837 6
  24379211.3444   18562305.09144  14446341.21744
  20925819.594   -10063237.779 7  -7781957.919 6
  21349334.9924    3603526.58147   2820089.50946
  21458120.3984  -13467335.76747 -10376841.12346
  24108052.117    -3042652.364 5  -2199704.776 5
 92  6 11  6  9 30.0000000  0  6G17G 3G21G23G28G11
  22009151.289     6905772.676 7   5376568.865 6
  24391144.5234   18625046.87944  14495230.85044
  20923819.1024  -10073752.84647  -7790151.47346
  21353458.0554    3625208.26047   2836984.32046
  21455226.3204  -13482550.74747 -10388696.94846
  24097876.117    -3096149.835 5  -2241391.077 5
 92  6 11  6  9 45.0000000  0  6G17G 3G21G23G28G11
  22014764.070     6935295.538 7   5399573.666 6
  24403095.9774   18687833.65244  14544155.53544
  20921830.344   -10084198.770 7  -7798291.138 6
  21357593.8204    3646932.39747   2853912.21746
  21452356.7814  -13497624.62847 -10400442.81946
  24087704.852    -3149609.355 5  -2283047.804 5
 92  6 11  6 10  0.0000000  0  6G17G 3G21G23G28G11
  22020394.7974    6964894.66447   5422637.91246
  24415049.9454   18750664.22144  14593114.32644
  20919856.469   -10094575.172 7  -7806376.630 6
  21361733.8444    3668698.04147   2870872.45746
  21449517.4924  -13512553.80247 -10412075.93446
  24077536.4454   -3203031.69345  -2324675.58045
 92  6 11  6 10 15.0000000  0  6G17G 3G21G23G28G11
  22026042.492     6994570.065 7   5445761.597 6
  24427025.703    18813538.493 4  14642107.218 4
  20917895.7424  -10104880.22547  -7814406.53046
  21365886.1884    3690506.66447   2887866.19146
  21446702.1414  -13527336.61047 -10423595.00346
  24067375.500    -3256415.938 5  -2366273.648 5
 92  6 11  6 10 30.0000000  0  6G17G 3G21G23G28G11
  22031704.391     7024318.918 7   5468942.502 6
  24438990.898    18876455.848 4  14691133.655 4
  20915950.2664  -10115115.21847  -7822381.85546
  21370044.6174    3712358.33147   2904893.46446
  21443915.164   -13541969.194 7 -10434997.009 6
  24057224.266    -3309761.874 5  -2407841.901 5
 92  6 11  6 10 45.0000000  0  6G17G 3G21G23G28G11
  22037380.969     7054137.274 7   5492177.569 6
  24450968.9844   18939416.15644  14740193.55344
  20914015.4694  -10125280.43647  -7830302.80446
  21374212.445     3734254.409 7   2921955.366 6
  21441158.7894  -13556449.53647 -10446280.38046
  24047082.859    -3363069.156 5  -2449380.007 5
 92  6 11  6 11  0.0000000  0  6G17G 3G21G23G28G11
  22043071.078     7084021.972 7   5515464.331 6
  24462952.078    19002418.041 4  14789285.859 4
  20912092.219   -10135376.392 7  -7838169.758 6
  21378385.4844    3756194.81747   2939051.78046
  21438439.6414  -13570776.08347 -10457443.91446
  24036943.1094   -3416338.12045  -2490888.26545
 92  6 11  6 11 15.0000000  0  6G17G 3G21G23G28G11
  22048769.742     7113971.828 7   5538801.868 6
  24474954.383    19065460.621 4  14838409.879 4
  20910183.195   -10145402.711 7  -7845982.459 6
  21382566.2814    3778178.22847   2956181.71146
  21435739.3984  -13584950.68747 -10468489.05446
  24026816.4304   -3469569.35945  -2532367.12045
 92  6 11  6 11 30.0000000  0  6G17G 3G21G23G28G11
  22054478.195     7143986.629 7   5562190.009 6
  24486960.992    19128543.197 4  14887565.049 4
  20908290.133   -10155358.777 7  -7853740.411 6
  21386757.9774    3800203.21647   2973344.04346
  21433069.4064  -13598972.57447 -10479415.19346
  24016689.2974   -3522762.38845  -2573816.19145
 92  6 11  6 11 45.0000000  0  6G17G 3G21G23G28G11
  22060207.180     7174069.854 7   5585631.463 6
  24498967.023    19191668.460 3  14936753.516 4
  20906408.219   -10165244.374 7  -7861443.456 6
  21390961.656     3822276.938 7   2990544.355 6
  21430433.5084  -13612834.84847 -10490216.95146
  24006575.2274   -3575913.92745  -2615232.93745
 92  6 11  6 12  0.0000000  0  6G17G 3G21G23G28G11
  22065940.234     7204220.925 7   5609125.780 6
  24510986.727    19254836.721 4  14985975.440 4
  20904542.297   -10175061.355 7  -7869093.027 6
  21395172.1564    3844403.89047   3007786.14746
  21427822.6334  -13626535.48747 -10500892.76446
  23996473.539    -3629022.951 5  -2656616.562 5
 92  6 11  6 12 15.0000000  0  6G17G 3G21G23G28G11
  22071690.211     7234433.044 7   5632667.672 6
  24523015.789    19318045.142 4  15035228.692 4
  20902684.2894  -10184813.82947  -7876692.34946
  21399388.570     3866581.877 7   3025067.690 6
  21425246.2734  -13640081.10847 -10511447.79246
  23986371.2664   -3682091.43945  -2697968.63745
 92  6 11  6 12 30.0000000  0  6G17G 3G21G23G28G11
  22077452.516     7264700.132 7   5656252.400 6
  24535056.961    19381287.871 4  15084508.663 4
  20900840.656   -10194510.272 7  -7884248.005 6
  21403619.508     3888804.691 7   3042384.135 6
  21422695.945   -13653480.993 7 -10521889.239 6
  23976280.203    -3735124.716 5  -2739293.223 5
 92  6 11  6 12 45.0000000  0  6G17G 3G21G23G28G11
  22083218.930     7295019.775 7   5679878.066 6
  24547097.2734   19444561.65144  15133812.80944
  20899003.867   -10204154.849 7  -7891763.246 6
  21407858.4924    3911069.35047   3059733.22646
  21420174.2894  -13666740.89047 -10532221.62746
  23966190.383    -3788125.119 5  -2780592.219 5
 92  6 11  6 13  0.0000000  0  6G17G 3G21G23G28G11
  22089003.203     7325406.751 7   5703556.207 6
  24559140.344    19507877.886 4  15183150.064 4
  20897181.0234  -10213736.01547  -7899229.07746
  21412106.5394    3933386.80248   3077123.45846
  21417678.063   -13679853.693 7 -10542439.381 6
  23956121.289    -3841080.373 5  -2821856.013 5
 92  6 11  6 13 15.0000000  0  6G17G 3G21G23G28G11
  22094799.531     7355862.683 7   5727288.092 6
  24571192.5474   19571235.24444  15232519.35344
  20895370.023   -10223252.324 7  -7906644.368 6
  21416358.7194    3955754.68347   3094552.96546
  21415206.9614  -13692820.63947 -10552543.48846
  23946053.6724   -3893991.22145  -2863085.21745
 92  6 11  6 13 30.0000000  0  6G17G 3G21G23G28G11
  22100607.609     7386382.022 7   5751069.373 6
  24583262.781    19634628.977 4  15281916.985 4
  20893572.445   -10232709.195 7  -7914013.333 6
  21420622.5784    3978165.94847   3112016.29046
  21412768.5164  -13705644.53047 -10562536.12846
  23935990.156    -3946861.699 5  -2904282.938 5
 92  6 11  6 13 45.0000000  0  6G17G 3G21G23G28G11
  22106421.609     7416969.665 7   5774903.883 6
  24595338.3364   19698063.03244  15331346.06444
  20891784.297   -10242102.443 7  -7921332.721 6
  21424900.3674    4000627.40847   3129518.71346
  21410359.8364  -13718318.42647 -10572411.88146
  23925939.648    -3999687.045 5  -2945445.515 5
 92  6 11  6 14  0.0000000  0  5G17G21G23G28G11
  22112261.383     7447623.231 7   5798789.765 6
  20890008.305   -10251434.135 7  -7928604.148 6
  21429181.8204    4023133.17747   3147055.66946
  21407975.0394  -13730846.64947 -10582174.12546
  23915892.688    -4052470.387 5  -2986575.351 5
 92  6 11  6 14 15.0000000  0  5G17G21G23G28G11
  22118104.469     7478341.461 7   5822726.027 6
  20888243.6334  -10260702.81647  -7935826.48446
  21433468.9844    4045675.70447   3164621.26946
  21405619.3914  -13743229.33647 -10591822.96846
  23905858.6174   -4105211.94545  -3027672.63845
 92  6 11  6 14 30.0000000  0  5G17G21G23G28G11
  22123964.016     7509129.970 7   5846717.054 6
  20886494.2814  -10269902.16947  -7942994.79646
  21437769.023     4068257.891 7   3182217.793 6
  21403292.094   -13755458.248 7 -10601351.972 6
  23895829.3984   -4157904.86545  -3068732.03145
 92  6 11  6 14 45.0000000  0  5G17G21G23G28G11
  22129836.602     7539984.293 7   5870759.361 6
  20884755.031   -10279036.441 7  -7950112.404 6
  21442072.5864    4090874.73747   3199841.31646
  21400989.6564  -13767536.09847 -10610763.29246
  23885811.727    -4210554.275 5  -3109757.509 5
 92  6 11  6 15  0.0000000  0  5G17G21G23G28G11
  22135720.320     7570906.575 7   5894854.627 6
  20883030.3984  -10288100.30747  -7957175.14846
  21446383.2814    4113527.79447   3217493.03646
  21398724.445   -13779456.854 7 -10620052.166 6
  23875799.9774   -4263156.56045  -3150746.26045
 92  6 11  6 15 15.0000000  0  5G17G21G23G28G11
  22141615.609     7601893.337 7   5919000.134 6
  20881318.8444  -10297092.11747  -7964181.75246
  21450702.0474    4136214.93747   3235171.33746
  21396485.3204  -13791217.15647 -10629216.03446
  23865797.4844   -4315713.33445  -3191699.55045
 92  6 11  6 15 30.0000000  0  5G17G21G23G28G11
  22147523.727     7632940.285 7   5943192.540 6
  20879618.5234  -10306012.08247  -7971132.37546
  21455021.3134    4158931.55347   3252872.60746
  21394282.211   -13802814.064 7 -10638252.571 6
  23855808.1644   -4368224.97145  -3232617.68745
 92  6 11  6 15 45.0000000  0  5G17G21G23G28G11
  22153443.578     7664051.134 7   5967434.732 6
  20877939.000   -10314858.633 7  -7978025.782 6
  21459352.133     4181679.873 7   3270598.582 6
  21392106.2034  -13814244.67747 -10647159.54046
  23845823.0084   -4420688.07345  -3273498.00945
 92  6 11  6 16  0.0000000  0  5G17G21G23G28G11
  22159376.273     7695225.315 7   5991726.285 6
  20876271.148   -10323634.292 7  -7984863.935 6
  21463685.6024    4204456.66748   3288346.72946
  21389958.2894  -13825515.17547 -10655941.74046
  23835849.539    -4473105.005 5  -3314342.328 5
 92  6 11  6 16 15.0000000  0  5G17G21G23G28G11
  22165319.563     7726463.969 6   6016068.073 6
  20874611.289   -10332339.002 7  -7991646.821 6
  21468027.5084    4227262.33148   3306117.36646
  21387846.1644  -13836623.09147 -10664597.25546
  23825883.3364   -4525473.38445  -3355148.84045
 92  6 11  6 16 30.0000000  0  5G17G21G23G28G11
  22171274.508     7757765.138 6   6040458.591 6
  20872969.047   -10340975.425 7  -7998376.479 6
  21472372.7504    4250099.49147   3323912.55746
  21385758.8054  -13847569.43047 -10673126.86246
  23815924.797    -4577794.007 5  -3395918.116 5
 92  6 11  6 16 45.0000000  0  5G17G21G23G28G11
  22177250.375     7789129.159 7   6064898.065 6
  20871338.4144  -10349544.56547  -8005053.71946
  21476722.3444    4272972.04847   3341735.32446
  21383713.6334  -13858356.31247 -10681532.22046
  23805982.2424   -4630066.61645  -3436649.99445
 92  6 11  6 17  0.0000000  0  5G17G21G23G28G11
  22183229.5634    7820556.96947   6089387.23946
  20869720.2894  -10358046.21947  -8011678.37646
  21481083.477     4295880.479 7   3359586.068 6
  21381689.4534  -13868983.22547 -10689812.92646
  23796043.9614   -4682290.58045  -3477343.95945
 92  6 11  6 17 15.0000000  0  5G17G21G23G28G11
  22189219.2814    7852050.14647   6113927.35146
  20868117.1884  -10366481.54047  -8018251.34846
  21485449.4144    4318823.65247   3377463.87046
  21379692.4844  -13879451.25947 -10697969.82846
  23786114.4144   -4734466.03146  -3518000.11045
 92  6 11  6 17 30.0000000  0  5G17G21G23G28G11
  22195226.820     7883610.912 7   6138520.135 6
  20866523.352   -10374852.989 7  -8024774.542 6
  21489821.3444    4341802.50947   3395369.47646
  21377733.680   -13889761.292 7 -10706003.607 6
  23776195.117    -4786592.088 5  -3558617.804 5
 92  6 11  6 17 45.0000000  0  5G17G21G23G28G11
  22201243.6884    7915240.55547   6163166.58746
  20864938.7504  -10383167.15147  -8031253.10046
  21494201.8284    4364816.47647   3413302.43646
  21375802.6804  -13899920.79147 -10713920.09146
  23766283.086    -4838671.273 5  -3599198.957 5
 92  6 11  6 18  0.0000000  0  5G17G21G23G28G11
  22207281.523     7946944.123 7   6187870.646 6
  20863365.3524  -10391422.62147  -8037685.92846
  21498588.3914    4387873.05447   3431268.60446
  21373896.0314  -13909928.62547 -10721718.39746
  23756383.8134   -4890701.24045  -3639741.76445
 92  6 11  6 18 15.0000000  0  5G17G21G23G28G11
  22213326.453     7978720.428 7   6212631.385 6
  20861809.797   -10399617.660 7  -8044071.660 6
  21502986.2504    4410975.99747   3449270.90646
  21372020.2974  -13919782.91947 -10729397.06346
  23746494.625    -4942680.469 5  -3680245.018 5
 92  6 11  6 18 30.0000000  0  5G17G21G23G28G11
  22219385.805     8010568.349 7   6237447.924 6
  20860260.7034  -10407751.73147  -8050409.88546
  21507392.5944    4434125.85348   3467309.76146
  21370173.0314  -13929483.29647 -10736955.79146
  23736608.5084   -4994609.27345  -3720709.00345
 92  6 11  6 18 45.0000000  0  5G17G21G23G28G11
  22225461.055     8042486.330 7   6262319.063 6
  20858725.3834  -10415822.85547  -8056699.06446
  21511806.2734    4457322.86848   3485385.34846
  21368355.0784  -13939032.13147 -10744396.42846
  23726735.6884   -5046487.89845  -3761133.88145
 92  6 11  6 19  0.0000000  0  5G17G21G23G28G11
  22231542.4694    8074474.34046   6287244.75346
  20857199.250   -10423830.223 7  -8062938.555 6
  21516225.8134    4480564.78647   3503495.92946
  21366570.031   -13948430.605 7 -10751719.909 6
  23716878.0554   -5098315.99146  -3801519.38045
 92  6 11  6 19 15.0000000  0  5G17G21G23G28G11
  22237643.672     8106531.036 7   6312223.978 6
  20855686.1254  -10431775.91447  -8069129.99746
  21520659.9144    4503847.83847   3521638.56646
  21364811.7424  -13957680.83047 -10758927.87446
  23707025.4614   -5150095.31646  -3841866.87345
 92  6 11  6 19 30.0000000  0  5G17G21G23G28G11
  22243765.383     8138660.850 7   6337260.176 6
  20854192.6954  -10439652.30747  -8075267.44046
  21525095.5704    4527178.12747   3539818.01346
  21363079.7034  -13966777.08347 -10766015.86146
  23697179.1484   -5201818.86646  -3882170.90945
 92  6 11  6 19 45.0000000  0  5G17G21G23G28G11
  22249891.891     8170860.507 7   6362350.796 6
  20852705.3444  -10447459.84247  -8081351.22146
  21529543.6724    4550552.84047   3558032.06846
  21361374.7734  -13975722.46147 -10772986.27746
  23687343.672    -5253487.982 5  -3922432.536 5
 92  6 11  6 20  0.0000000  0  5G17G21G23G28G11
  22256026.250     8203126.058 7   6387492.766 6
  20851230.1334  -10455200.17547  -8087382.64046
  21534001.6884    4573968.73747   3576278.21446
  21359703.3754  -13984517.88147 -10779839.84746
  23677526.938    -5305104.379 6  -3962653.095 5
 92  6 11  6 20 15.0000000  0  5G17G21G23G28G11
  22262180.477     8235458.592 7   6412686.931 6
  20849773.195   -10462867.842 7  -8093357.416 6
  21538467.2814    4597425.61847   3594556.30746
  21358058.1804  -13993157.63747 -10786572.11946
  23667711.8594   -5356663.91445  -4002829.31645
 92  6 11  6 20 30.0000000  0  5G17G21G23G28G11
  22268344.898     8267849.192 7   6437926.337 6
  20848326.406   -10470471.196 7  -8099282.092 6
  21542931.1724    4620911.20047   3612856.74446
  21356440.0554  -14001652.80647 -10793191.72046
  23657912.6954   -5408175.37345  -4042968.09145
 92  6 11  6 20 45.0000000  0  5G17G21G23G28G11
  22274518.352     8300307.249 7   6463218.311 6
  20846891.602   -10478002.321 7  -8105150.487 6
  21547411.4694    4644431.13947   3631183.97546
  21354856.3444  -14009996.49647 -10799693.28146
  23648117.5164   -5459630.58445  -4083063.02645
 92  6 11  6 21  0.0000000  0  5G17G21G23G28G11
  22280710.539     8332835.960 7   6488565.343 6
  20845473.398   -10485460.605 7  -8110962.115 6
  21551891.4384    4667984.90147   3649537.55846
  21353292.8754  -14018185.41447 -10806074.25846
  23638338.1334   -5511027.14645  -4123112.27245
 92  6 11  6 21 15.0000000  0  5G17G21G23G28G11
  22286913.172     8365426.994 7   6513960.938 6
  20844064.250   -10492855.620 7  -8116724.443 6
  21556378.500     4691559.161 7   3667907.113 6
  21351764.3134  -14026228.00847 -10812341.20446
  23628568.211    -5562374.231 5  -4163122.960 5
 92  6 11  6 21 30.0000000  0  5G17G21G23G28G11
  22293127.625     8398092.163 7   6539414.301 6
  20842672.4774  -10500176.72047  -8122429.18546
  21560872.9454    4715165.06147   3686301.33146
  21350265.5084  -14034111.23347 -10818483.97446
  23618808.016    -5613660.105 6  -4203085.962 5
 92  6 11  6 21 45.0000000  0  5G17G21G23G28G11
  22299355.063     8430820.663 7   6564916.994 6
  20841291.9774  -10507436.39947  -8128086.08846
  21565368.1954    4738792.88047   3704712.60846
  21348792.2664  -14041846.53647 -10824511.47646
  23609059.063    -5664895.637 6  -4243009.742 5
 92  6 11  6 22  0.0000000  0  5G17G21G23G28G11
  22305594.922     8463620.631 6   6590475.396 6
  20839923.5554  -10514629.61447  -8133691.18246
  21569869.3364    4762453.02147   3723149.09146
  21347350.6644  -14049425.81947 -10830417.40646
  23599324.7274   -5716072.59346  -4282887.87945
 92  6 11  6 22 15.0000000  0  5G17G21G23G28G11
  22311855.039     8496490.222 7   6616088.053 6
  20838566.148   -10521757.174 7  -8139245.103 6
  21574377.1414    4786145.56647   3741610.81646
  21345939.711   -14056847.861 7 -10836200.803 6
  23589590.961    -5767191.256 6  -4322720.582 5
 92  6 11  6 22 30.0000000  0  5G17G21G23G28G11
  22318124.742     8529425.961 7   6641752.242 6
  20837222.8984  -10528818.04147  -8144747.08246
  21578893.5634    4809871.78047   3760098.78246
  21344558.0004  -14064116.55847 -10841864.72046
  23579874.0084   -5818253.43845  -4362509.29745
 92  6 11  6 22 45.0000000  0  5G17G21G23G28G11
  22324399.469     8562429.398 6   6667469.192 6
  20835891.2664  -10535811.07647  -8150196.20046
  21583418.4614    4833634.90847   3778615.51246
  21343203.0474  -14071227.85847 -10847405.98746
  23570169.711    -5869256.754 5  -4402252.109 5
 92  6 11  6 23  0.0000000  0  5G17G21G23G28G11
  22330693.547     8595494.015 6   6693233.809 6
  20834574.156   -10542741.460 7  -8155596.516 6
  21587945.9534    4857431.28047   3797158.14946
  21341878.3834  -14078183.22347 -10852825.72146
  23560478.391    -5920204.380 5  -4441951.522 5
 92  6 11  6 23 15.0000000  0  5G17G21G23G28G11
  22336996.352     8628620.487 6   6719046.625 6
  20833265.5944  -10549607.88147  -8160946.95346
  21592478.2424    4881262.84647   3815728.20546
  21340586.3524  -14084982.07347 -10858123.54946
  23550794.039    -5971094.409 6  -4481606.059 5
 92  6 11  6 23 30.0000000  0  5G17G21G23G28G11
  22343312.336     8661811.358 7   6744909.629 6
  20831972.5864  -10556409.63947  -8166247.01946
  21597022.6804    4905138.10047   3834332.30546
  21339322.8834  -14091620.67047 -10863296.47946
  23541120.8444   -6021922.63146  -4521212.45745
 92  6 11  6 23 45.0000000  0  5G17G21G23G28G11
  22349634.648     8695061.159 6   6770818.541 6
  20830688.3284  -10563153.60547  -8171502.04846
  21601575.8674    4929057.36847   3852970.69746
  21338087.4064  -14098103.36947 -10868347.92246
  23531457.2814   -6072693.09846  -4560773.85045
 92  6 11  6 24  0.0000000  0  5G17G21G23G28G11
  22355977.063     8728372.894 6   6796775.719 6
  20829419.1174  -10569835.74747  -8176708.90746
  21606138.4304    4953023.82047   3871645.85246
  21336884.9844  -14104425.42147 -10873274.19346
  23521809.1954   -6123402.04746  -4600287.28645
 92  6 11  6 24 15.0000000  0  5G17G21G23G28G11
  22362325.625     8761744.619 6   6822779.640 6
  20828156.8834  -10576454.80647  -8181866.61346
  21610704.656     4977033.120 7   3890354.431 6
  21335710.7664  -14110587.84047 -10878076.08046
  23512170.9144   -6174050.38346  -4639753.49945
 92  6 11  6 24 30.0000000  0  5G17G21G23G28G11
  22368690.766     8795175.837 6   6848829.916 6
  20826909.9304  -10583012.96547  -8186976.86746
  21615283.9304    5001080.55147   3909092.68746
  21334567.5004  -14116594.89747 -10882756.89546
  23502540.094    -6224641.745 6  -4679175.325 5
 92  6 11  6 24 45.0000000  0  5G17G21G23G28G11
  22375066.148     8828678.058 6   6874935.528 6
  20825676.1884  -10589503.78447  -8192034.64646
  21619861.5864    5025173.14747   3927866.13646
  21333457.2344  -14122439.40747 -10887311.05646
  23492931.844    -6275167.509 6  -4718546.037 5
 92  6 11  6 25  0.0000000  0  5G17G21G23G28G11
  22381456.6954    8862247.30346   6901093.37146
  20824450.9454  -10595935.71047  -8197046.53546
  21624454.1954    5049302.84547   3946668.50146
  21332374.1804  -14128125.25847 -10891741.59046
  23483320.250    -6325632.494 6  -4757869.379 5
 92  6 11  6 25 15.0000000  0  5G17G21G23G28G11
  22387859.156     8895886.855 6   6927305.990 6
  20823240.2734  -10602306.88947  -8202011.09446
  21629054.3524    5073471.91747   3965501.55046
  21331323.9144  -14133652.16047 -10896048.25546
  23473732.398    -6376034.220 6  -4797143.437 5
 92  6 11  6 25 30.0000000  0  5G17G21G23G28G11
  22394273.617     8929594.366 6   6953571.564 6
  20822035.2734  -10608623.75847  -8206933.32146
  21633662.9924    5097675.04047   3984361.13646
  21330302.8984  -14139023.84747 -10900233.98046
  23464154.602    -6426376.680 6  -4836371.306 5
 92  6 11  6 25 45.0000000  0  5G17G21G23G28G11
  22400700.6644    8963377.92047   6979896.40146
  20820844.8674  -10614878.77847  -8211807.37246
  21638273.1884    5121916.16147   4003250.32346
  21329310.3914  -14144232.81647 -10904292.91546
  23454584.3054   -6476653.15946  -4875547.76245
 92  6 11  6 26  0.0000000  0  5G17G21G23G28G11
  22407137.031     8997227.215 6   7006272.450 6
  20819667.5314  -10621078.46747  -8216638.29246
  21642890.9534    5146180.53947   4022157.63346
  21328345.4844  -14149289.68047 -10908233.32846
  23445031.367    -6526873.615 6  -4914680.580 5
 92  6 11  6 26 15.0000000  0  5G17G21G23G28G11
  22413600.703     9031153.304 6   7032708.352 6
  20818500.8134  -10627210.29147  -8221416.33746
  21647515.0944    5170478.40347   4041091.03446
  21327416.1564  -14154184.88647 -10912047.77146
  23435486.406    -6577026.243 6  -4953760.529 5
 92  6 11  6 26 30.0000000  0  5G17G21G23G28G11
  22420065.016     9065158.267 6   7059205.701 6
  20817347.9454  -10633273.27047  -8226140.72046
  21652144.6564    5194810.19047   4060050.88246
  21326517.1254  -14158919.65247 -10915737.19346
  23425953.320    -6627110.380 6  -4992787.101 5
 92  6 11  6 26 45.0000000  0  5G17G21G23G28G11
  22426546.383     9099231.603 6   7085756.339 6
  20816201.8674  -10639278.51247  -8230820.13546
  21656782.4064    5219168.32947   4079031.25146
  21325644.0784  -14163502.43747 -10919308.19246
  23416434.609    -6677135.042 6  -5031767.338 5
 92  6 11  6 27  0.0000000  0  5G17G21G23G28G11
  22433052.906     9133375.913 6   7112362.273 6
  20815073.1334  -10645220.25347  -8235450.05646
  21661421.0704    5243558.67947   4098036.71746
  21324801.7974  -14167926.17847 -10922755.26646
  23406929.9844   -6727093.62846  -5070696.10645
 92  6 11  6 27 15.0000000  0  5G17G21G23G28G11
  22439559.930     9167590.248 6   7139022.778 6
  20813951.3134  -10651098.07847  -8240030.16546
  21666069.2894    5267982.70547   4117068.43946
  21323990.3914  -14172189.38347 -10926077.25046
  23397431.0784   -6776984.93946  -5109572.44845
 92  6 11  6 27 30.0000000  0  5G17G21G23G28G11
  22446081.820     9201866.737 6   7165731.716 6
  20812847.3594  -10656917.77447  -8244564.98346
  21670722.9534    5292431.26847   4136119.26846
  21323205.1024  -14176300.90247 -10929281.03646
  23387953.281    -6826817.324 6  -5148402.838 5
 92  6 11  6 27 45.0000000  0  5G17G21G23G28G11
  22452618.320     9236218.903 6   7192499.617 6
  20811755.1174  -10662664.08047  -8249042.62746
  21675381.8054    5316919.78947   4155201.22046
  21322455.1414  -14180246.51047 -10932355.53346
  23378481.047    -6876575.647 6  -5187175.543 5
 92  6 11  6 28  0.0000000  0  5G17G21G23G28G11
  22459166.070     9270629.792 6   7219313.272 6
  20810670.2974  -10668348.32547  -8253471.90346
  21680046.5784    5341435.97047   4174304.73346
  21321733.0234  -14184042.91847 -10935313.76946
  23369027.1884   -6926274.38846  -5225901.82245
 92  6 11  6 28 15.0000000  0  5G17G21G23G28G11
  22465726.8054    9305107.99046   7246179.39646
  20809603.8674  -10673961.01347  -8257845.41146
  21684718.5864    5365991.57347   4193438.96946
  21321043.3134  -14187679.66547 -10938147.59646
  23359586.2734   -6975902.50046  -5264573.06745
 92  6 11  6 28 30.0000000  0  5G17G21G23G28G11
  22472301.586     9339651.089 6   7273096.078 5
  20808547.1804  -10679505.12647  -8262165.49246
  21689397.4224    5390583.52547   4212601.54046
  21320378.0004  -14191158.88647 -10940858.67946
  23350153.219    -7025461.509 6  -5303190.463 5
 92  6 11  6 28 45.0000000  0  5G17G21G23G28G11
  22478884.867     9374253.934 6   7300059.308 5
  20807505.0084  -10684986.62947  -8266436.80146
  21694084.922     5415204.416 7   4231786.665 6
  21319748.7424  -14194485.53247 -10943450.87046
  23340732.352    -7074956.370 6  -5341757.878 5
 92  6 11  6 29  0.0000000  0  5G17G21G23G28G11
  22485484.320     9408923.260 6   7327074.367 5
  20806476.4844  -10690398.80247  -8270654.07746
  21698778.7664    5439863.53047   4251001.56846
  21319146.3834  -14197651.40747 -10945917.79146
  23331327.773    -7124377.793 6  -5380268.059 5
 92  6 11  6 29 15.0000000  0  5G17G21G23G28G11
  22492095.211     9443653.640 6   7354136.974 5
  20805455.7664  -10695748.45547  -8274822.64046
  21703472.3054    5464551.00047   4270238.54846
  21318571.6804  -14200663.24347 -10948264.67546
  23321936.313    -7173732.236 6  -5418726.046 5
 92  6 11  6 29 30.0000000  0  5G17G21G23G28G11
  22498709.430     9478444.719 6   7381246.897 5
  20804454.3674  -10701033.44247  -8278940.80846
  21708173.6414    5489264.90347   4289496.14246
  21318028.1334  -14203522.40347 -10950492.59446
  23312555.508    -7223019.749 6  -5457131.879 5
 92  6 11  6 29 45.0000000  0  5G17G21G23G28G11
  22505348.922     9513301.858 6   7408408.283 5
  20803457.5164  -10706248.68947  -8283004.63146
  21712887.492     5514010.507 7   4308778.445 6
  21317514.3284  -14206223.25947 -10952597.15746
  23303193.2974   -7272234.09946  -5495480.72645
 92  6 11  6 30  0.0000000  0  5G17G21G23G28G11
  22511983.766     9548216.493 6   7435614.479 5
  20802478.984   -10711404.548 7  -8287022.168 6
  21717600.2664    5538780.39447   4328079.66046
  21317026.9144  -14208773.08947 -10954584.03546
  23293836.1174   -7321383.14746  -5533778.68145
 92  6 11  6 30 15.0000000  0  5G17G21G23G28G11
  22518646.602     9583195.109 6   7462870.522 5
  20801510.9924  -10716495.09947  -8290988.82346
  21722320.3984    5563577.92147   4347402.41146
  21316573.0164  -14211164.01947 -10956447.10246
  23284500.5004   -7370460.83746  -5572021.03045
 92  6 11  6 30 30.0000000  0  5G17G21G23G28G11
  22525315.109     9618241.864 6   7490179.669 5
  20800552.6954  -10721520.56947  -8294904.78146
  21727043.7584    5588405.88047   4366748.87746
  21316151.664   -14213392.482 7 -10958183.573 6
  23275178.828    -7419463.412 6  -5610204.829 5
 92  6 11  6 30 45.0000000  0  5G17G21G23G28G11
  22531995.938     9653345.949 6   7517533.489 5
  20799606.5164  -10726493.85647  -8298780.05646
  21731770.7034    5613254.50847   4386111.45446
  21315754.7734  -14215470.87247 -10959803.09346
  23265862.391    -7468402.912 6  -5648339.485 5
 92  6 11  6 31  0.0000000  0  5G17G21G23G28G11
  22538691.016     9688522.840 6   7544944.038 5
  20798671.9534  -10731399.08247  -8302602.30646
  21736510.0234    5638143.57847   4405505.53146
  21315392.9844  -14217381.87647 -10961292.18746
  23256565.8054   -7517263.15346  -5686412.39545
 92  6 11  6 31 15.0000000  0  5G17G21G23G28G11
  22545398.328     9723759.039 6   7572400.794 5
  20797749.9454  -10736249.25047  -8306381.65046
  21741248.6094    5663060.15847   4424921.04146
  21315057.8594  -14219136.55947 -10962659.47746
  23247280.6954   -7566056.44346  -5724433.12845
 92  6 11  6 31 30.0000000  0  5G17G21G23G28G11
  22552107.188     9759061.026 6   7599908.817 5
  20796838.7274  -10741039.32647  -8310114.17746
  21745996.594     5688011.088 7   4444363.337 6
  21314757.0554  -14220728.90747 -10963900.26146
  23238005.1724   -7614777.69846  -5762397.73545
 92  6 11  6 31 45.0000000  0  5G17G21G23G28G11
  22558845.828     9794436.975 6   7627474.482 5
  20795938.2344  -10745761.46447  -8313793.75346
  21750757.977     5713008.294 7   4463841.692 6
  21314485.0164  -14222150.06747 -10965007.66246
  23228754.984    -7663417.340 6  -5800298.728 5
 92  6 11  6 32  0.0000000  0  5G17G21G23G28G11
  22565591.6414    9829870.01446   7655084.62045
  20795051.055   -10750436.976 7  -8317436.991 6
  21755517.9224    5738035.70747   4483343.57446
  21314241.0784  -14223419.13647 -10965996.54546
  23219507.742    -7711993.754 6  -5838150.463 5
 92  6 11  6 32 15.0000000  0  5G17G21G23G28G11
  22572343.813     9865376.727 6   7682752.175 5
  20794174.9844  -10755045.16947  -8321027.79346
  21760289.0704    5763111.23847   4502882.95146
  21314031.3524  -14224518.84947 -10966853.47246
  23210279.2034   -7760488.77546  -5875938.79545
 92  6 11  6 32 30.0000000  0  5G17G21G23G28G11
  22579106.531     9900947.479 6   7710469.621 5
  20793305.5634  -10759596.12447  -8324573.98646
  21765068.7034    5788226.52447   4522453.30446
  21313851.5944  -14225461.31247 -10967587.86646
  23201067.2034   -7808911.26146  -5913670.58745
 92  6 11  6 32 45.0000000  0  5G17G21G23G28G11
  22585893.961     9936581.361 6   7738236.268 5
  20792452.5634  -10764091.65347  -8328076.98746
  21769857.0474    5813380.14247   4542053.52346
  21313700.9304  -14226251.25347 -10968203.40546
  23191866.2664   -7857264.25046  -5951348.23445
 92  6 11  6 33  0.0000000  0  5G17G21G23G28G11
  22592689.469     9972295.452 6   7766065.412 5
  20791610.7504  -10768513.83747  -8331522.83446
  21774652.1414    5838585.89947   4561694.36846
  21313584.7034  -14226872.83847 -10968687.76046
  23182678.9774   -7905531.56946  -5988959.13245
 92  6 11  6 33 15.0000000  0  5G17G21G23G28G11
  22599500.4534   10008068.84446   7793940.76545
  20790778.8754  -10772883.21947  -8334927.55446
  21779450.4304    5863819.07047   4581356.59546
  21313490.8834  -14227348.12947 -10969058.11746
  23173507.813    -7953733.009 6  -6026518.687 5
 92  6 11  6 33 30.0000000  0  5G17G21G23G28G11
  22606317.727    10043917.614 6   7821874.862 5
  20789961.7814  -10777183.88847  -8338278.73446
  21784260.9304    5889093.46947   4601050.92746
  21313435.5164  -14227662.71447 -10969303.24746
  23164349.5944   -8001853.29346  -6064015.00545
 92  6 11  6 33 45.0000000  0  5G17G21G23G28G11
  22613156.422    10079834.645 6   7849862.144 5
  20789155.4064  -10781420.25547  -8341579.78946
  21789076.3444    5914403.01347   4620772.65546
  21313401.9534  -14227823.80447 -10969428.77446
  23155206.688    -8049898.732 6  -6101452.995 5
 92  6 11  6 34  0.0000000  0  5G17G21G23G28G11
  22619998.9384   10115814.14146   7877898.08745
  20788361.1024  -10785594.81347  -8344832.68446
  21793901.3914    5939740.86447   4640516.44546
  21313400.5314  -14227837.01147 -10969439.06946
  23146077.297    -8097873.110 6  -6138835.610 5
 92  6 11  6 34 15.0000000  0  5G17G21G23G28G11
  22626864.914    10151870.847 6   7905994.198 5
  20787578.5784  -10789693.38247  -8348026.37746
  21798732.4694    5965121.00647   4660293.18646
  21313433.3914  -14227688.15547 -10969323.08146
  23136964.7424   -8145761.68546  -6176151.38645
 92  6 11  6 34 30.0000000  0  5G17G21G23G28G11
  22633736.516    10187988.714 6   7934137.970 5
  20786811.6254  -10793731.53547  -8351172.98446
  21803566.023     5990526.460 7   4680089.660 6
  21313485.1804  -14227392.24147 -10969092.49746
  23127866.3594   -8193579.51646  -6213412.03145
 92  6 11  6 34 45.0000000  0  5G17G21G23G28G11
  22640618.273    10224176.331 6   7962336.095 5
  20786055.211   -10797700.996 7  -8354266.058 6
  21808409.1334    6015965.53947   4699912.31946
  21313572.4844  -14226941.07747 -10968740.94846
  23118780.555    -8241317.768 6  -6250610.649 5
 92  6 11  6 35  0.0000000  0  5G17G21G23G28G11
  22647521.844    10260430.629 6   7990586.179 5
  20785314.7344  -10801602.73047  -8357306.37246
  21813248.9454    6041435.02047   4719758.65846
  21313685.6254  -14226334.75547 -10968268.48846
  23109714.141    -8288978.009 6  -6287748.485 5
 92  6 11  6 35 15.0000000  0  5G17G21G23G28G11
  22654427.195    10296741.011 6   8018879.966 5
  20784584.0234  -10805442.60347  -8360298.47846
  21818098.7274    6066927.05147   4739622.57246
  21313832.3984  -14225576.55247 -10967677.67646
  23100653.9224   -8336565.30046  -6324829.47745
 92  6 11  6 35 30.0000000  0  5G17G21G23G28G11
  22661352.578    10333117.315 6   8047225.123 5
  20783864.016   -10809208.551 7  -8363232.971 6
  21822960.8834    6092455.56447   4759514.93146
  21314005.6094  -14224652.45547 -10966957.60246
  23091615.500    -8384066.337 6  -6361843.260 5
 92  6 11  6 35 45.0000000  0  5G17G21G23G28G11
  22668284.039    10369553.785 6   8075617.145 5
  20783160.1254  -10812905.98447  -8366114.07046
  21827827.2504    6118015.67147   4779431.88946
  21314214.4454  -14223566.04547 -10966111.05446
  23082594.3444   -8431487.20346  -6398794.58545
 92  6 11  6 36  0.0000000  0  5G17G21G23G28G11
  22675232.156    10406047.278 6   8104053.620 5
  20782470.1884  -10816539.44147  -8368945.34946
  21832694.344     6143601.735 7   4799369.061 6
  21314449.9844  -14222322.82847 -10965142.31546
  23073585.9844   -8478830.80746  -6435685.71145
 92  6 11  6 36 15.0000000  0  5G17G21G23G28G11
  22682186.367    10442603.858 6   8132539.247 5
  20781794.8834  -10820109.76247  -8371727.41446
  21837566.9064    6169214.94347   4819327.39546
  21314719.1414  -14220919.14147 -10964048.53546
  23064589.648    -8526093.154 6  -6472513.491 5
 92  6 11  6 36 30.0000000  0  5G17G21G23G28G11
  22689155.703    10479219.305 6   8161070.757 5
  20781123.031   -10823623.332 7  -8374465.235 6
  21842443.6254    6194850.45147   4839303.11646
  21315014.3204  -14219357.97647 -10962832.05246
  23055612.617    -8573278.497 6  -6509281.269 5
 92  6 11  6 36 45.0000000  0  5G17G21G23G28G11
  22696130.3134   10515898.22846   8189651.71745
  20780466.773   -10827073.634 7  -8377153.756 6
  21847329.3754    6220511.13247   4859298.46846
  21315345.1724  -14217634.87647 -10961489.37646
  23046647.867    -8620381.192 6  -6545984.645 5
 92  6 11  6 37  0.0000000  0  5G17G21G23G28G11
  22703125.234    10552643.765 6   8218284.590 5
  20779823.4064  -10830459.30147  -8379791.94046
  21852216.3914    6246200.18047   4879315.89846
  21315702.9534  -14215746.32947 -10960017.78946
  23037700.383    -8667398.151 6  -6582621.218 5
 92  6 11  6 37 15.0000000  0  5G17G21G23G28G11
  22710130.578    10589447.566 6   8246962.847 5
  20779186.563   -10833792.837 7  -8382389.482 6
  21857111.5864    6271906.17647   4899346.53746
  21316090.3754  -14213703.07147 -10958425.63746
  23028767.508    -8714339.277 6  -6619198.706 5
 92  6 11  6 37 30.0000000  0  5G17G21G23G28G11
  22717144.500    10626322.179 6   8275696.289 5
  20778565.2664  -10837065.21247  -8384939.36846
  21862004.5394    6297642.80047   4919401.04946
  21316510.6024  -14211493.74547 -10956704.09746
  23019850.242    -8761192.049 6  -6655707.340 5
 92  6 11  6 37 45.0000000  0  5G17G21G23G28G11
  22724179.5704   10663259.39046   8304478.50845
  20777950.7194  -10840289.35847  -8387451.69846
  21866906.8984    6323399.93547   4939471.55546
  21316960.6564  -14209132.44347 -10954864.12146
  23010951.688    -8807967.833 6  -6692155.985 5
 92  6 11  6 38  0.0000000  0  5G17G21G23G28G11
  22731217.133    10700265.826 6   8333314.666 5
  20777348.6484  -10843459.13747  -8389921.64446
  21871815.0314    6349184.47247   4959563.41346
  21317438.0314  -14206617.10147 -10952904.12046
  23002067.180    -8854660.367 6  -6728539.757 5
 92  6 11  6 38 15.0000000  0  5G17G21G23G28G11
  22738278.094    10737347.660 6   8362209.576 5
  20776758.289   -10846567.221 7  -8392343.514 6
  21876727.8594    6375006.12947   4979684.18846
  21317946.0474  -14203941.44747 -10950819.19846
  22993194.5314   -8901260.28646  -6764851.36345
 92  6 11  6 38 30.0000000  0  5G17G21G23G28G11
  22745338.953    10774484.447 6   8391147.311 5
  20776175.7584  -10849630.35447  -8394730.36346
  21881648.625     6400850.773 7   4999822.887 6
  21318482.7814  -14201121.52447 -10948621.86446
  22984340.680    -8947785.289 6  -6801104.593 5
 92  6 11  6 38 45.0000000  0  5G17G21G23G28G11
  22752417.703    10811685.546 6   8420135.162 5
  20775602.2974  -10852632.66847  -8397069.81446
  21886569.4844    6426734.30247   5019991.87446
  21319050.1334  -14198144.80347 -10946302.34246
  22975506.906    -8994222.021 6  -6837289.048 5
 92  6 11  6 39  0.0000000  0  5G17G21G23G28G11
  22759512.680    10848950.035 6   8449172.405 5
  20775043.7664  -10855573.26447  -8399361.19446
  21891506.023     6452657.155 7   5040191.501 6
  21319647.4384  -14195010.99147 -10943860.41346
  22966688.883    -9040571.176 6  -6873405.257 5
 92  6 11  6 39 15.0000000  0  5G17G21G23G28G11
  22766613.352    10886275.799 6   8478257.390 5
  20774492.781   -10858454.069 7  -8401605.964 6
  21896443.1564    6478616.96047   5060419.92746
  21320273.0554  -14191722.21447 -10941297.73146
  22957882.8284   -9086834.92846  -6909454.92245
 92  6 11  6 39 30.0000000  0  5G17G21G23G28G11
  22773726.195    10923657.850 6   8507386.247 5
  20773958.3524  -10861275.12947  -8403804.18446
  21901391.7274    6504610.38447   5080674.54546
  21320926.2274  -14188280.54447 -10938615.92346
  22949096.063    -9133015.456 6  -6945439.739 5
 92  6 11  6 39 45.0000000  0  5G17G21G23G28G11
  22780856.000    10961104.555 6   8536565.472 5
  20773435.5394  -10864025.40247  -8405947.25046
  21906344.867     6530644.431 7   5100960.824 6
  21321614.0394  -14184675.42147 -10935806.73846
  22940324.555    -9179103.681 6  -6981352.614 5
 92  6 11  6 40  0.0000000  0  5G17G21G23G28G11
  22787984.6334   10998602.40746   8565784.55145
  20772920.8054  -10866715.38047  -8408043.33946
  21911302.8984    6556703.81647   5121266.84546
  21322327.4144  -14180921.24047 -10932881.40946
  22931573.8984   -9225112.98546  -7017204.01045
 92  6 11  6 40 15.0000000  0  5G17G21G23G28G11
  22795134.703    11036156.582 6   8595047.531 5
  20772421.086   -10869341.146 7  -8410089.367 6
  21916269.7584    6582793.44947   5141596.42946
  21323070.8364  -14177010.29647 -10929833.92046
  22922834.422    -9271036.864 6  -7052988.832 5
 92  6 11  6 40 30.0000000  0  5G17G21G23G28G11
  22802299.9694   11073780.85246   8624365.11745
  20771938.703   -10871892.696 7  -8412077.570 6
  21921241.4614    6608922.99347   5161957.11646
  21323850.9614  -14172926.67047 -10926651.88746
  22914112.3054   -9316864.00946  -7088698.29245
 92  6 11  6 40 45.0000000  0  5G17G21G23G28G11
  22809465.039    11111461.502 6   8653726.639 5
  20771466.7424  -10874384.72447  -8414019.40346
  21926218.3364    6635076.76647   5182336.68046
  21324656.1644  -14168682.53447 -10923344.77146
  22905405.1644   -9362608.83546  -7124343.60345
 92  6 11  6 41  0.0000000  0  5G17G21G23G28G11
  22816646.2194   11149205.50146   8683137.52345
  20771001.7344  -10876813.61147  -8415912.03646
  21931200.5394    6661254.61147   5202735.00146
  21325499.0314  -14164275.50747 -10919910.72746
  22896718.6254   -9408267.60946  -7159921.86245
 92  6 11  6 41 15.0000000  0  5G17G21G23G28G11
  22823842.9144   11187026.69446   8712608.55045
  20770557.3984  -10879171.80247  -8417749.58246
  21936187.1094    6687463.77247   5223157.73246
  21326365.109   -14159697.724 7 -10916343.639 6
  22888046.4924   -9453829.33746  -7195424.50045
 92  6 11  6 41 30.0000000  0  5G17G21G23G28G11
  22831054.719    11224912.197 6   8742129.697 5
  20770114.9844  -10881475.38947  -8419544.57446
  21941178.0474    6713691.28647   5243594.75746
  21327269.2344  -14154964.74447 -10912655.60446
  22879394.0944   -9499306.35846  -7230861.12445
 92  6 11  6 41 45.0000000  0  5G17G21G23G28G11
  22838276.398    11262863.886 6   8771702.421 5
  20769686.4064  -10883725.80947  -8421298.14446
  21946171.6644    6739938.96847   5264047.48646
  21328197.0234  -14150074.63847 -10908845.14146
  22870756.258    -9544697.147 6  -7266230.554 5
 92  6 11  6 42  0.0000000  0  5G17G21G23G28G11
  22845515.844    11300893.197 6   8801335.632 5
  20769271.0234  -10885915.43147  -8423004.32646
  21951172.8914    6766218.10547   5284524.73746
  21329159.9844  -14145020.96047 -10904907.21746
  22862138.8284   -9589990.93446  -7301524.40945
 92  6 11  6 42 15.0000000  0  5G17G21G23G28G11
  22852762.313    11338990.490 6   8831021.821 5
  20768861.1724  -10888054.89947  -8424671.45546
  21956178.344     6792521.302 7   5305020.742 6
  21330150.4064  -14139814.41347 -10900850.17646
  22853534.1484   -9635197.03346  -7336749.93445
 92  6 11  6 42 30.0000000  0  5G17G21G23G28G11
  22860023.5554   11377153.64946   8860759.32245
  20768464.9224  -10890146.69347  -8426301.40946
  21961191.258     6818846.618 7   5325533.986 6
  21331169.367   -14134456.719 6 -10896675.367 6
  22844950.555    -9680316.978 6  -7371908.313 5
 92  6 11  6 42 45.0000000  0  5G17G21G23G28G11
  22867293.852    11415391.928 6   8890555.354 5
  20768075.4224  -10892176.68347  -8427883.22746
  21966207.3754    6845204.66347   5346072.71946
  21332221.0234  -14128938.41147 -10892375.38446
  22836381.7034   -9725339.64946  -7406990.90645
 92  6 11  6 43  0.0000000  0  5G17G21G23G28G11
  22874590.094    11453699.093 6   8920405.075 5
  20767704.578   -10894150.296 7  -8429421.088 6
  21971224.125     6871587.933 7   5366631.094 6
  21333299.6414  -14123269.92246 -10887958.39246
  22827829.5084   -9770270.39246  -7442001.86745
 92  6 11  6 43 15.0000000  0  5G17G21G23G28G11
  22881893.4064   11492071.48146   8950305.62445
  20767336.5004  -10896074.81747  -8430920.71046
  21976251.672     6897990.928 7   5387204.848 6
  21334406.5864  -14117456.93446 -10883428.79646
  22819295.672    -9815113.941 6  -7476944.874 5
 92  6 11  6 43 30.0000000  0  5G17G21G23G28G11
  22889212.984    11530514.881 6   8980261.496 5
  20766978.6414  -10897942.14147  -8432375.77346
  21981280.1564    6924424.29047   5407802.27146
  21335541.4774  -14111489.37246 -10878778.76146
  22810783.3054   -9859861.27346  -7511812.91945
 92  6 11  6 43 45.0000000  0  5G17G21G23G28G11
  22896541.2424   11569028.90946   9010272.39045
  20766636.703   -10899745.904 7  -8433781.278 6
  21986315.0634    6950890.02947   5428424.93046
  21336709.1334  -14105361.26146 -10874003.61346
  22802284.1094   -9904510.60646  -7546604.60945
 92  6 11  6 44  0.0000000  0  5G17G21G23G28G11
  22903875.219    11607601.460 6   9040328.903 5
  20766301.8524  -10901494.80647  -8435144.05746
  21991355.8984    6977375.55447   5449063.01146
  21337899.977   -14099084.581 6 -10869112.714 6
  22793806.3134   -9949072.54646  -7581328.21145
 92  6 11  6 44 15.0000000  0  5G17G21G23G28G11
  22911229.797    11646238.518 6   9070435.681 5
  20765985.5004  -10903180.08047  -8436457.25446
  21996399.4924    7003886.13847   5469720.59846
  21339125.9614  -14092652.45947 -10864100.66746
  22785344.047    -9993540.758 6  -7615978.751 5
 92  6 11  6 44 30.0000000  0  5G17G21G23G28G11
  22918591.141    11684948.297 6   9100599.117 5
  20765678.4534  -10904792.75147  -8437713.88246
  22001450.891     7030428.476 7   5490402.922 6
  21340381.609   -14086053.264 6 -10858958.462 6
  22776901.734   -10037906.408 6  -7650549.375 5
 92  6 11  6 44 45.0000000  0  5G17G21G23G28G11
  22925973.000    11723712.204 6   9130804.746 5
  20765383.133   -10906351.738 7  -8438928.654 6
  22006502.6254    7056985.94747   5511097.06146
  21341667.7814  -14079303.30647 -10853698.75246
  22768476.5314  -10082186.72146  -7685053.50245
 92  6 11  6 45  0.0000000  0  5G17G21G23G28G11
  22933365.0164   11762541.62146   9161061.40645
  20765097.6254  -10907846.96447  -8440093.76846
  22011564.0394    7083569.45747   5531811.48946
  21342980.250   -14072391.328 7 -10848312.809 6
  22760064.7584  -10126370.20646  -7719482.17945
 92  6 11  6 45 15.0000000  0  5G17G21G23G28G11
  22940767.523    11801439.875 6   9191371.710 5
  20764822.5234  -10909275.47647  -8441206.90446
  22016627.641     7110182.320 7   5552548.763 6
  21344326.609   -14065313.314 7 -10842797.486 6
  22751680.531   -10170452.505 6  -7753832.006 5
 92  6 11  6 45 30.0000000  0  5G17G21G23G28G11
  22948172.586    11840393.014 6   9221724.782 5
  20764561.9144  -10910646.34047  -8442275.09746
  22021694.9774    7136815.77147   5573302.10246
  21345705.3204  -14058080.07147 -10837161.20446
  22743306.188   -10214444.452 6  -7788111.425 5
 92  6 11  6 45 45.0000000  0  5G17G21G23G28G11
  22955599.0784   11879399.73346   9252119.62445
  20764315.766   -10911953.775 7  -8443293.864 6
  22026767.4774    7163470.22347   5594071.81246
  21347105.477   -14050692.533 6 -10831404.691 6
  22734956.234   -10258343.834 6  -7822318.715 5
 92  6 11  6 46  0.0000000  0  5G17G21G23G28G11
  22963033.758    11918475.775 6   9282568.455 5
  20764080.3524  -10913185.59147  -8444253.70946
  22031849.0784    7190161.45747   5614870.15646
  21348546.8674  -14043138.90346 -10825518.75946
  22726621.2664  -10302135.25346  -7856441.88745
 92  6 11  6 46 15.0000000  0  5G17G21G23G28G11
  22970478.633    11957600.267 6   9313055.057 5
  20763855.4694  -10914366.44247  -8445173.86046
  22036929.1954    7216871.52947   5635683.20246
  21350013.2664  -14035442.25046 -10819521.36346
  22718302.914   -10345838.449 6  -7890496.313 5
 92  6 11  6 46 30.0000000  0  5G17G21G23G28G11
  22977938.6724   11996784.40446   9343588.12445
  20763643.5864  -10915486.10347  -8446046.33546
  22042020.3054    7243612.22447   5656520.11046
  21351504.9144  -14027591.29646 -10813403.74346
  22710007.367   -10389442.433 6  -7924473.421 5
 92  6 11  6 46 45.0000000  0  5G17G21G23G28G11
  22985401.273    12036028.625 6   9374168.021 5
  20763442.2734  -10916544.30847  -8446870.91346
  22047116.2664    7270385.69747   5677382.56746
  21353030.563   -14019586.941 7 -10807166.596 6
  22701731.141   -10432945.698 6  -7958372.050 5
 92  6 11  6 47  0.0000000  0  5G17G21G23G28G11
  22992880.516    12075323.102 6   9404787.076 5
  20763249.4694  -10917548.50747  -8447653.40146
  22052211.6334    7297181.07147   5698262.06846
  21354578.3914  -14011441.62547 -10800819.60346
  22693468.609   -10476357.355 6  -7992199.297 5
 92  6 11  6 47 15.0000000  0  5G17G21G23G28G11
  23000370.1414   12114669.24846   9435446.37345
  20763066.9694  -10918498.01947  -8448393.27546
  22057316.6094    7323997.01947   5719157.61446
  21356157.2734  -14003157.74947 -10794364.64246
  22685222.063   -10519676.405 6  -8025954.387 5
 92  6 11  6 47 30.0000000  0  5G17G21G23G28G11
  23007873.648    12154083.290 6   9466158.603 5
  20762903.773   -10919376.598 7  -8449077.890 6
  22062422.9454    7350853.02747   5740084.36946
  21357759.6414  -13994716.88747 -10787787.34946
  22677001.766   -10562885.647 6  -8059623.910 5
 92  6 11  6 47 45.0000000  0  5G17G21G23G28G11
  23015386.2034   12193549.34746   9496911.34645
  20762750.0944  -10920202.90647  -8449721.77246
  22067539.3754    7377732.00047   5761029.03446
  21359392.7344  -13986135.78746 -10781100.79146
  22668799.508   -10606002.223 6  -8093221.214 5
 92  6 11  6 48  0.0000000  0  5G17G21G23G28G11
  23022899.109    12233071.414 6   9527707.747 5
  20762593.9384  -10920979.31747  -8450326.77046
  22072659.6644    7404634.27747   5781991.82946
  21361053.7504  -13977411.39446 -10774302.56746
  22660608.320   -10649024.805 6  -8126745.283 5
 92  6 11  6 48 15.0000000  0  5G17G21G23G28G11
  23030437.6954   12272673.55846   9558566.53345
  20762462.9144  -10921685.45547  -8450877.00546
  22077790.5234    7431582.70947   5802990.60346
  21362747.852   -13968519.168 6 -10767373.571 6
  22652444.0944  -10691930.38046  -8160178.19245
 92  6 11  6 48 30.0000000  0  5G17G21G23G28G11
  23037988.531    12312335.688 6   9589472.066 5
  20762340.1254  -10922338.26647  -8451385.68046
  22082920.320     7458553.889 7   5824007.090 6
  21364466.742   -13959476.073 6 -10760327.020 6
  22644299.391   -10734739.770 6  -8193536.145 5
 92  6 11  6 48 45.0000000  0  5G17G21G23G28G11
  23045547.258    12352068.104 6   9620432.364 5
  20762222.1094  -10922926.57647  -8451844.10946
  22088057.5554    7485557.45247   5845048.80746
  21366219.250   -13950271.614 7 -10753154.730 6
  22636175.633   -10777443.208 6  -8226811.533 5
 92  6 11  6 49  0.0000000  0  5G17G21G23G28G11
  23053121.141    12391862.859 6   9651441.246 5
  20762126.4614  -10923456.62747  -8452257.14146
  22093203.5314    7512587.72347   5866111.35346
  21368002.2504  -13940909.29447 -10745859.42246
  22628067.289   -10820045.998 6  -8260008.489 5
 92  6 11  6 49 15.0000000  0  5G17G21G23G28G11
  23060706.719    12431717.503 6   9682496.793 5
  20762034.3134  -10923934.66647  -8452629.65146
  22098350.2274    7539641.94147   5887192.55746
  21369810.594   -13931390.496 7 -10738442.194 6
  22619976.648   -10862551.168 6  -8293129.388 5
 92  6 11  6 49 30.0000000  0  5G17G21G23G28G11
  23068304.500    12471643.686 6   9713608.086 5
  20761955.2424  -10924350.05747  -8452953.32746
  22103509.6174    7566731.52447   5908301.34046
  21371656.7114  -13921701.44447 -10730892.28646
  22611909.258   -10904947.267 6  -8326165.295 5
 92  6 11  6 49 45.0000000  0  5G17G21G23G28G11
  23075906.734    12511626.181 6   9744763.261 5
  20761885.0394  -10924716.11347  -8453238.56846
  22108665.5634    7593840.97647   5929425.57646
  21373533.3134  -13911857.22747 -10723221.47546
  22603860.500   -10947249.048 6  -8359127.697 5
 92  6 11  6 50  0.0000000  0  5G17G21G23G28G11
  23083530.1954   12551681.07346   9775974.84445
  20761830.9844  -10925014.59447  -8453471.14446
  22113827.2814    7620983.12547   5950575.29746
  21375435.4454  -13901845.22847 -10715419.92546
  22595830.883   -10989440.619 6  -8392004.220 5
 92  6 11  6 50 15.0000000  0  5G17G21G23G28G11
  23091162.2424   12591794.05146   9807231.68345
  20761781.6804  -10925256.72747  -8453659.80946
  22118997.5394    7648144.01147   5971739.62446
  21377371.8204  -13891679.65947 -10707498.70746
  22587819.1724  -11031533.51846  -8424803.87745
 92  6 11  6 50 30.0000000  0  5G17G21G23G28G11
  23098811.242    12631974.392 6   9838541.021 5
  20761746.469   -10925430.912 7  -8453795.521 6
  22124172.523     7675334.859 7   5992927.282 6
  21379337.4534  -13881350.27847 -10699449.84246
  22579827.9774  -11073516.74646  -8457518.06745
 92  6 11  6 50 45.0000000  0  5G17G21G23G28G11
  23106470.5314   12672211.08746   9869894.25345
  20761728.977   -10925549.436 7  -8453887.865 6
  22129349.3834    7702545.14347   6014130.11446
  21381329.273   -13870870.299 6 -10691283.642 6
  22571859.711   -11115401.325 6  -8490155.384 5
 92  6 11  6 51  0.0000000  0  5G17G21G23G28G11
  23114135.586    12712514.279 6   9901299.327 5
  20761715.984   -10925603.165 7  -8453929.722 6
  22134537.195     7729784.203 7   6035355.339 6
  21383353.6804  -13860231.19246 -10682993.44146
  22563908.547   -11157175.701 6  -8522706.838 5
 92  6 11  6 51 15.0000000  0  5G17G21G23G28G11
  23121818.156    12752882.993 6   9932755.449 5
  20761721.953   -10925596.306 7  -8453924.363 6
  22139723.508     7757046.572 7   6056598.725 6
  21385408.219   -13849437.493 6 -10674582.785 6
  22555983.688   -11198842.367 6  -8555174.354 5
 92  6 11  6 51 30.0000000  0  5G17G21G23G28G11
  23129512.047    12793313.445 6   9964259.681 5
  20761731.922   -10925532.728 7  -8453874.811 6
  22144910.9534    7784324.67547   6077854.39946
  21387493.133   -13838499.691 7 -10666059.830 6
  22548074.9144  -11240406.49546  -8587561.97745
 92  6 11  6 51 45.0000000  0  5G17G21G23G28G11
  23137212.797    12833802.639 6   9995809.674 5
  20761756.7344  -10925410.15247  -8453779.28846
  22150104.4384    7811618.94147   6099122.65246
  21389596.906   -13827419.168 7 -10657425.676 6
  22540182.4774  -11281867.52246  -8619869.26045
 92  6 11  6 52  0.0000000  0  5G17G21G23G28G11
  23144940.2734   12874357.69146  10027410.99245
  20761790.938   -10925221.702 7  -8453632.506 6
  22155307.367     7838937.796 7   6120410.049 6
  21391734.727   -13816186.918 7 -10648673.287 6
  22532315.461   -11323216.426 6  -8652089.176 5
 92  6 11  6 52 15.0000000  0  5G17G21G23G28G11
  23152663.2274   12914970.24546  10059057.09845
  20761835.8054  -10924979.91247  -8453444.08546
  22160503.781     7866273.486 7   6141710.560 6
  21393901.0314  -13804808.67147 -10639807.13046
  22524465.5084  -11364460.81146  -8684227.65145
 92  6 11  6 52 30.0000000  0  6G17G12G21G23G28G11
  23160402.984    12955640.498 6  10090748.193 5
  24360245.883          -0.90915
  20761888.8284  -10924686.63947  -8453215.55646
  22165715.352     7893628.377 7   6163026.035 6
  21396091.5394  -13793282.37047 -10630825.60746
  22516638.0784  -11405599.87046  -8716284.05845
 92  6 11  6 52 45.0000000  0  6G17G12G21G23G28G11
  23168153.398    12996371.603 6  10122486.691 5
  24356074.5944     -21935.64245
  20761955.8284  -10924339.22947  -8452944.83746
  22170923.492     7921006.129 7   6184359.328 6
  21398315.2664  -13781605.61147 -10621726.83246
  22508829.367   -11446631.346 6  -8748256.618 5
 92  6 11  6 53  0.0000000  0  6G17G12G21G23G28G11
  23175916.1334   13037165.57946  10154274.18245
  24351924.1804     -43745.31245        -0.89055
  20762032.3134  -10923933.35347  -8452628.56446
  22176137.172     7948410.993 7   6205713.765 6
  21400567.4844  -13769773.57547 -10612507.07146
  22501040.352   -11487551.311 6  -8780142.286 5
 92  6 11  6 53 15.0000000  0  6G17G12G21G23G28G11
  23183689.8284   13078020.33946  10186109.02545
  24347801.617      -65432.308 5    -16899.832 5
  20762119.4304  -10923470.97147  -8452268.26046
  22181355.0944    7975840.38447   6227087.30546
  21402848.719   -13757787.396 7 -10603167.206 6
  22493273.039   -11528362.005 6  -8811942.808 5
 92  6 11  6 53 30.0000000  0  6G17G12G21G23G28G11
  23191478.336    13118929.161 6  10217986.020 5
  24343690.8284     -87002.16845    -33707.50445
  20762216.6804  -10922959.70147  -8451869.86246
  22186579.367     8003291.271 7   6248477.601 6
  21405156.5234  -13745652.49247 -10593711.44746
  22485527.992   -11569068.790 6  -8843662.365 5
 92  6 11  6 53 45.0000000  0  6G17G12G21G23G28G11
  23199267.9844   13159894.51946  10249907.05145
  24339606.617     -108449.370 5    -50419.597 5
  20762327.3984  -10922393.42747  -8451428.61246
  22191812.1094    8030770.24747   6269889.78346
  21407491.8674  -13733362.14747 -10584134.56846
  22477804.5474  -11609666.08746  -8875296.61145
 92  6 11  6 54  0.0000000  0  6G17G12G21G23G28G11
  23207077.234    13200915.343 6  10281871.311 5
  24335555.9224    -129774.75845    -67036.79245
  20762441.6174  -10921776.99647  -8450948.26746
  22197045.977     8058279.122 7   6291325.261 6
  21409865.8914  -13720914.44247 -10574435.07146
  22470097.5944  -11650154.84646  -8906846.30045
 92  6 11  6 54 15.0000000  0  6G17G12G21G23G28G11
  23214890.5084   13241994.12446  10313880.71645
  24331519.1094    -150978.63145    -83559.29145
  20762573.7114  -10921110.43147  -8450428.85846
  22202282.750     8085818.707 7   6312784.658 6
  21412262.164   -13708310.996 7 -10564614.221 6
  22462416.0704  -11690535.31746  -8938311.59545
 92  6 11  6 54 30.0000000  0  6G17G12G21G23G28G11
  23222722.758    13283132.067 6  10345936.236 5
  24327504.9774    -172058.71845    -99985.32645
  20762710.3134  -10920388.87547  -8449866.60546
  22207535.7584    8113393.56047   6334271.55946
  21414691.4144  -13695552.74147 -10554672.72946
  22454756.4304  -11730804.97146  -8969690.53745
 92  6 11  6 54 45.0000000  0  6G17G12G21G23G28G11
  23230565.250    13324329.242 6  10378037.901 5
  24323528.6954    -193014.03545   -116314.15345
  20762857.5004  -10919609.98547  -8449259.68046
  22212786.3834    8141005.59047   6355787.42546
  21417148.695   -13682638.751 7 -10544609.896 6
  22447110.234   -11770962.686 6  -9000982.250 5
 92  6 11  6 55  0.0000000  0  6G17G12G21G23G28G11
  23238408.203    13365582.463 6  10410183.238 5
  24319559.516     -213845.841 5   -132546.742 5
  20763017.2424  -10918775.25847  -8448609.24346
  22218050.180     8168651.952 7   6377330.031 6
  21419634.6564  -13669569.54847 -10534426.11146
  22439493.492   -11811010.003 6  -9032187.936 5
 92  6 11  6 55 15.0000000  0  6G17G12G21G23G28G11
  23246275.6884   13406895.00546  10442374.79645
  24315617.352     -234552.430 5   -148681.726 5
  20763185.7424  -10917885.76947  -8447916.14946
  22223313.5944    8196332.78047   6398899.49346
  21422150.406   -13656346.308 7 -10524122.301 6
  22431890.2814  -11850944.89346  -9063306.03045
 92  6 11  6 55 30.0000000  0  6G17G12G21G23G28G11
  23254143.9304   13448264.80146  10474610.98445
  24311695.7114    -255133.54845   -164718.93645
  20763370.7274  -10916943.27547  -8447181.73346
  22228593.8284    8224046.21147   6420494.37646
  21424694.1174  -13642973.61747 -10513702.02446
  22424312.664   -11890767.042 6  -9094336.263 5
 92  6 11  6 55 45.0000000  0  6G17G12G21G23G28G11
  23262027.9064   13489690.62846  10506890.81345
  24307807.734     -275590.477 5   -180659.383 5
  20763557.5474  -10915947.19347  -8446405.55746
  22233867.297     8251790.252 7   6442113.084 6
  21427268.867   -13629454.721 7 -10503167.838 6
  22416756.5394  -11930477.84746  -9125279.74545
 92  6 11  6 56  0.0000000  0  6G17G12G21G23G28G11
  23269925.922    13531175.703 6  10539216.815 5
  24303940.7504    -295922.44245   -196502.47545
  20763752.9144  -10914895.10047  -8445585.73646
  22239152.203     8279564.945 7   6463755.688 6
  21429871.070   -13615789.588 7 -10492519.698 6
  22409221.9064  -11970076.26046  -9156135.65345
 92  6 11  6 56 15.0000000  0  6G17G12G21G23G28G11
  23277831.9614   13572718.94546  10571588.14545
  24300094.4144    -316130.40645   -212248.92745
  20763964.7664  -10913786.04747  -8444721.54546
  22244445.7034    8307366.91247   6485419.53346
  21432499.484   -13601981.158 7 -10481759.903 6
  22401710.414   -12009563.193 6  -9186904.672 5
 92  6 11  6 56 30.0000000  0  6G17G12G21G23G28G11
  23285750.5314   13614320.99646  10604005.28445
  24296275.1024    -336212.18745   -227897.08845
  20764187.6884  -10912614.63047  -8443808.73946
  22249738.2274    8335194.39847   6507103.28046
  21435154.055   -13588029.314 7 -10470888.345 6
  22394214.8594  -12048936.39646  -9217585.07345
 92  6 11  6 56 45.0000000  0  6G17G12G21G23G28G11
  23293672.6414   13655981.75446  10636468.18345
  24292472.2584    -356169.02745   -243447.85045
  20764421.5164  -10911383.77347  -8442849.64446
  22255038.2424    8363042.17047   6528802.83646
  21437834.9454  -13573935.30047 -10459906.01746
  22386744.5084  -12088197.07446  -9248177.80845
